Wetterdaten: Montag, 26.11.2018
Datum Zeit Temp. A. Pool Temp. Temp. 5cm Feuchte A. Luftdruck Regen Wind Richtung Richtung Sonnenschein ET UV Solar Taupunkt Windchill Windben Empfang
26.11.2018 00:00 4,1 C 4,4 C 3,9 C 98 % 1004,7 hPa 0,0 l/m 7,0 km/h (2 Bft) O 82 0 min 0,000 mm 0,0 UV-I 0 W/m 3,8 C 3,6 C 11,3 km/h (2 Bft) 96,00 %
26.11.2018 00:02 4,1 C 4,4 C 3,9 C 98 % 1004,7 hPa 0,0 l/m 7,9 km/h (2 Bft) O 95 0 min 0,000 mm 0,0 UV-I 0 W/m 3,8 C 2,7 C 12,9 km/h (3 Bft) 95,74 %
26.11.2018 00:04 4,1 C 4,4 C 3,9 C 98 % 1004,7 hPa 0,0 l/m 6,7 km/h (2 Bft) O-SO 104 0 min 0,000 mm 0,0 UV-I 0 W/m 3,8 C 3,8 C 11,3 km/h (2 Bft) 95,74 %
26.11.2018 00:06 4,1 C 4,4 C 3,9 C 98 % 1004,7 hPa 0,0 l/m 8,4 km/h (2 Bft) O-SO 105 0 min 0,000 mm 0,0 UV-I 0 W/m 3,8 C 2,3 C 11,3 km/h (2 Bft) 94,29 %
26.11.2018 00:08 4,1 C 4,4 C 3,9 C 98 % 1004,7 hPa 0,0 l/m 8,6 km/h (2 Bft) O 101 0 min 0,000 mm 0,0 UV-I 0 W/m 3,8 C 2,2 C 12,9 km/h (3 Bft) 96,43 %
26.11.2018 00:10 4,1 C 4,4 C 3,9 C 98 % 1004,7 hPa 0,2 l/m 7,2 km/h (2 Bft) O-NO 77 0 min 0,000 mm 0,0 UV-I 0 W/m 3,8 C 3,4 C 12,9 km/h (3 Bft) 95,45 %
26.11.2018 00:12 4,1 C 4,4 C 3,9 C 98 % 1004,7 hPa 0,0 l/m 5,6 km/h (1 Bft) O 92 0 min 0,000 mm 0,0 UV-I 0 W/m 3,8 C 4,1 C 8,0 km/h (2 Bft) 93,62 %
26.11.2018 00:14 4,1 C 4,4 C 3,9 C 98 % 1004,6 hPa 0,0 l/m 6,4 km/h (2 Bft) O-NO 72 0 min 0,000 mm 0,0 UV-I 0 W/m 3,8 C 4,1 C 9,7 km/h (2 Bft) 97,56 %
26.11.2018 00:16 4,1 C 4,4 C 3,9 C 98 % 1004,7 hPa 0,0 l/m 8,0 km/h (2 Bft) O 85 0 min 0,000 mm 0,0 UV-I 0 W/m 3,8 C 2,7 C 12,9 km/h (3 Bft) 98,00 %
26.11.2018 00:18 4,1 C 4,4 C 3,9 C 98 % 1004,6 hPa 0,0 l/m 5,5 km/h (1 Bft) O-SO 102 0 min 0,000 mm 0,0 UV-I 0 W/m 3,8 C 4,1 C 11,3 km/h (2 Bft) 95,74 %
26.11.2018 00:20 4,1 C 4,4 C 3,9 C 98 % 1004,6 hPa 0,0 l/m 6,4 km/h (2 Bft) O 86 0 min 0,000 mm 0,0 UV-I 0 W/m 3,8 C 4,1 C 11,3 km/h (2 Bft) 98,00 %
26.11.2018 00:22 4,1 C 4,4 C 3,9 C 98 % 1004,7 hPa 0,0 l/m 6,1 km/h (2 Bft) O-NO 76 0 min 0,000 mm 0,0 UV-I 0 W/m 3,8 C 4,1 C 9,7 km/h (2 Bft) 97,87 %
26.11.2018 00:24 4,1 C 4,4 C 3,9 C 98 % 1004,6 hPa 0,0 l/m 6,6 km/h (2 Bft) O-SO 103 0 min 0,000 mm 0,0 UV-I 0 W/m 3,8 C 3,9 C 11,3 km/h (2 Bft) 96,00 %
26.11.2018 00:26 4,1 C 4,4 C 3,9 C 98 % 1004,6 hPa 0,0 l/m 5,1 km/h (1 Bft) O-SO 104 0 min 0,000 mm 0,0 UV-I 0 W/m 3,8 C 4,1 C 9,7 km/h (2 Bft) 93,62 %
26.11.2018 00:28 4,1 C 4,4 C 3,9 C 98 % 1004,6 hPa 0,0 l/m 4,4 km/h (1 Bft) O 96 0 min 0,000 mm 0,0 UV-I 0 W/m 3,8 C 4,1 C 6,4 km/h (2 Bft) 97,87 %
26.11.2018 00:30 4,1 C 4,4 C 3,9 C 98 % 1004,6 hPa 0,0 l/m 3,7 km/h (1 Bft) O 82 0 min 0,000 mm 0,0 UV-I 0 W/m 3,8 C 4,1 C 6,4 km/h (2 Bft) 97,87 %
26.11.2018 00:32 4,1 C 4,4 C 3,9 C 98 % 1004,6 hPa 0,0 l/m 4,7 km/h (1 Bft) NO 55 0 min 0,000 mm 0,0 UV-I 0 W/m 3,8 C 4,1 C 6,4 km/h (2 Bft) 97,44 %
26.11.2018 00:34 4,0 C 4,4 C 3,9 C 98 % 1004,6 hPa 0,0 l/m 3,5 km/h (1 Bft) O 86 0 min 0,000 mm 0,0 UV-I 0 W/m 3,7 C 4,0 C 6,4 km/h (2 Bft) 98,00 %
26.11.2018 00:36 4,0 C 4,4 C 3,9 C 98 % 1004,6 hPa 0,0 l/m 4,8 km/h (1 Bft) O 82 0 min 0,000 mm 0,0 UV-I 0 W/m 3,7 C 4,0 C 6,4 km/h (2 Bft) 98,11 %
26.11.2018 00:38 4,0 C 4,4 C 3,9 C 98 % 1004,6 hPa 0,2 l/m 4,5 km/h (1 Bft) O 101 0 min 0,000 mm 0,0 UV-I 0 W/m 3,7 C 4,0 C 6,4 km/h (2 Bft) 97,87 %
26.11.2018 00:40 4,0 C 4,4 C 3,9 C 98 % 1004,6 hPa 0,0 l/m 4,2 km/h (1 Bft) O 92 0 min 0,000 mm 0,0 UV-I 0 W/m 3,7 C 4,0 C 9,7 km/h (2 Bft) 97,37 %
26.11.2018 00:42 4,0 C 4,4 C 3,9 C 98 % 1004,6 hPa 0,0 l/m 4,4 km/h (1 Bft) O 88 0 min 0,000 mm 0,0 UV-I 0 W/m 3,7 C 4,0 C 9,7 km/h (2 Bft) 98,00 %
26.11.2018 00:44 4,0 C 4,4 C 3,9 C 98 % 1004,6 hPa 0,0 l/m 5,1 km/h (1 Bft) O-SO 105 0 min 0,000 mm 0,0 UV-I 0 W/m 3,7 C 4,0 C 9,7 km/h (2 Bft) 97,87 %
26.11.2018 00:46 4,0 C 4,4 C 3,9 C 98 % 1004,6 hPa 0,0 l/m 4,1 km/h (1 Bft) O 82 0 min 0,000 mm 0,0 UV-I 0 W/m 3,7 C 4,0 C 6,4 km/h (2 Bft) 97,56 %
26.11.2018 00:48 4,0 C 4,4 C 3,9 C 98 % 1004,6 hPa 0,0 l/m 4,7 km/h (1 Bft) O 96 0 min 0,000 mm 0,0 UV-I 0 W/m 3,7 C 4,0 C 6,4 km/h (2 Bft) 96,23 %
26.11.2018 00:50 4,0 C 4,4 C 3,9 C 98 % 1004,6 hPa 0,2 l/m 3,8 km/h (1 Bft) O-SO 118 0 min 0,000 mm 0,0 UV-I 0 W/m 3,7 C 4,0 C 4,8 km/h (1 Bft) 97,37 %
26.11.2018 00:52 4,0 C 4,4 C 3,9 C 98 % 1004,6 hPa 0,0 l/m 4,1 km/h (1 Bft) O 101 0 min 0,000 mm 0,0 UV-I 0 W/m 3,7 C 4,0 C 9,7 km/h (2 Bft) 98,11 %
26.11.2018 00:54 4,0 C 4,4 C 3,9 C 98 % 1004,5 hPa 0,0 l/m 3,9 km/h (1 Bft) O-SO 104 0 min 0,000 mm 0,0 UV-I 0 W/m 3,7 C 4,0 C 4,8 km/h (1 Bft) 98,00 %
26.11.2018 00:56 4,0 C 4,4 C 3,9 C 98 % 1004,5 hPa 0,0 l/m 4,4 km/h (1 Bft) O-SO 120 0 min 0,000 mm 0,0 UV-I 0 W/m 3,7 C 4,0 C 6,4 km/h (2 Bft) 97,56 %
26.11.2018 00:58 4,0 C 4,4 C 3,9 C 98 % 1004,5 hPa 0,0 l/m 2,8 km/h (1 Bft) SO 126 0 min 0,000 mm 0,0 UV-I 0 W/m 3,7 C 4,0 C 6,4 km/h (2 Bft) 96,00 %
26.11.2018 01:00 4,0 C 4,4 C 3,9 C 98 % 1004,5 hPa 0,0 l/m 2,8 km/h (1 Bft) O 85 0 min 0,000 mm 0,0 UV-I 0 W/m 3,7 C 4,0 C 4,8 km/h (1 Bft) 96,00 %
26.11.2018 01:02 4,0 C 4,4 C 3,9 C 98 % 1004,5 hPa 0,0 l/m 3,7 km/h (1 Bft) O-NO 74 0 min 0,000 mm 0,0 UV-I 0 W/m 3,7 C 4,0 C 6,4 km/h (2 Bft) 100,00 %
26.11.2018 01:04 4,0 C 4,4 C 3,9 C 98 % 1004,5 hPa 0,0 l/m 3,6 km/h (1 Bft) O 96 0 min 0,000 mm 0,0 UV-I 0 W/m 3,7 C 4,0 C 4,8 km/h (1 Bft) 100,00 %
26.11.2018 01:06 4,0 C 4,4 C 3,9 C 98 % 1004,4 hPa 0,2 l/m 3,6 km/h (1 Bft) O-NO 76 0 min 0,000 mm 0,0 UV-I 0 W/m 3,7 C 4,0 C 6,4 km/h (2 Bft) 97,87 %
26.11.2018 01:08 3,9 C 4,4 C 3,9 C 98 % 1004,4 hPa 0,0 l/m 4,6 km/h (1 Bft) O-NO 76 0 min 0,000 mm 0,0 UV-I 0 W/m 3,6 C 3,9 C 6,4 km/h (2 Bft) 100,00 %
26.11.2018 01:10 4,0 C 4,4 C 3,9 C 98 % 1004,4 hPa 0,0 l/m 4,2 km/h (1 Bft) O 80 0 min 0,000 mm 0,0 UV-I 0 W/m 3,7 C 4,0 C 6,4 km/h (2 Bft) 98,00 %
26.11.2018 01:12 3,9 C 4,4 C 3,9 C 98 % 1004,4 hPa 0,0 l/m 2,7 km/h (1 Bft) O 80 0 min 0,000 mm 0,0 UV-I 0 W/m 3,6 C 3,9 C 4,8 km/h (1 Bft) 97,87 %
26.11.2018 01:14 4,0 C 4,4 C 3,9 C 98 % 1004,4 hPa 0,0 l/m 2,8 km/h (1 Bft) NO 55 0 min 0,000 mm 0,0 UV-I 0 W/m 3,7 C 4,0 C 4,8 km/h (1 Bft) 97,37 %
26.11.2018 01:16 3,9 C 4,4 C 3,9 C 98 % 1004,4 hPa 0,2 l/m 2,4 km/h (1 Bft) O-NO 69 0 min 0,000 mm 0,0 UV-I 0 W/m 3,6 C 3,9 C 4,8 km/h (1 Bft) 98,11 %
26.11.2018 01:18 3,9 C 4,4 C 3,9 C 98 % 1004,4 hPa 0,0 l/m 2,7 km/h (1 Bft) O-NO 69 0 min 0,000 mm 0,0 UV-I 0 W/m 3,6 C 3,9 C 4,8 km/h (1 Bft) 93,62 %
26.11.2018 01:20 3,9 C 4,4 C 3,9 C 98 % 1004,4 hPa 0,0 l/m 1,6 km/h (1 Bft) O-NO 69 0 min 0,000 mm 0,0 UV-I 0 W/m 3,6 C 3,9 C 3,2 km/h (1 Bft) 94,00 %
26.11.2018 01:22 4,0 C 4,4 C 3,9 C 98 % 1004,4 hPa 0,0 l/m 2,6 km/h (1 Bft) O-NO 69 0 min 0,000 mm 0,0 UV-I 0 W/m 3,7 C 4,0 C 3,2 km/h (1 Bft) 97,14 %
26.11.2018 01:24 3,9 C 4,4 C 3,9 C 98 % 1004,4 hPa 0,0 l/m 2,2 km/h (1 Bft) O-NO 69 0 min 0,000 mm 0,0 UV-I 0 W/m 3,6 C 3,9 C 3,2 km/h (1 Bft) 94,00 %
26.11.2018 01:26 3,9 C 4,4 C 3,9 C 98 % 1004,4 hPa 0,0 l/m 2,4 km/h (1 Bft) O-NO 69 0 min 0,000 mm 0,0 UV-I 0 W/m 3,6 C 3,9 C 3,2 km/h (1 Bft) 94,00 %
26.11.2018 01:28 3,9 C 4,4 C 3,9 C 98 % 1004,4 hPa 0,0 l/m 2,8 km/h (1 Bft) O-NO 69 0 min 0,000 mm 0,0 UV-I 0 W/m 3,6 C 3,9 C 3,2 km/h (1 Bft) 93,62 %
26.11.2018 01:30 3,9 C 4,4 C 3,9 C 98 % 1004,3 hPa 0,2 l/m 3,3 km/h (1 Bft) O-NO 69 0 min 0,000 mm 0,0 UV-I 0 W/m 3,6 C 3,9 C 4,8 km/h (1 Bft) 95,12 %
26.11.2018 01:32 3,9 C 4,4 C 3,9 C 98 % 1004,3 hPa 0,0 l/m 2,3 km/h (1 Bft) O-NO 69 0 min 0,000 mm 0,0 UV-I 0 W/m 3,6 C 3,9 C 3,2 km/h (1 Bft) 94,92 %
26.11.2018 01:34 3,9 C 4,4 C 3,9 C 98 % 1004,3 hPa 0,0 l/m 2,2 km/h (1 Bft) O-NO 69 0 min 0,000 mm 0,0 UV-I 0 W/m 3,6 C 3,9 C 3,2 km/h (1 Bft) 94,74 %
26.11.2018 01:36 3,9 C 4,4 C 3,9 C 98 % 1004,3 hPa 0,2 l/m 3,6 km/h (1 Bft) O-NO 69 0 min 0,000 mm 0,0 UV-I 0 W/m 3,6 C 3,9 C 6,4 km/h (2 Bft) 96,00 %
26.11.2018 01:38 3,9 C 4,4 C 3,9 C 98 % 1004,3 hPa 0,0 l/m 3,8 km/h (1 Bft) O-NO 77 0 min 0,000 mm 0,0 UV-I 0 W/m 3,6 C 3,9 C 4,8 km/h (1 Bft) 98,00 %
26.11.2018 01:40 3,9 C 4,4 C 3,9 C 98 % 1004,3 hPa 0,0 l/m 4,2 km/h (1 Bft) O-NO 76 0 min 0,000 mm 0,0 UV-I 0 W/m 3,6 C 3,9 C 6,4 km/h (2 Bft) 97,44 %
26.11.2018 01:42 3,9 C 4,4 C 3,9 C 98 % 1004,2 hPa 0,0 l/m 3,1 km/h (1 Bft) O-NO 76 0 min 0,000 mm 0,0 UV-I 0 W/m 3,6 C 3,9 C 4,8 km/h (1 Bft) 97,87 %
26.11.2018 01:44 3,9 C 4,4 C 3,9 C 98 % 1004,2 hPa 0,2 l/m 3,7 km/h (1 Bft) O-NO 76 0 min 0,000 mm 0,0 UV-I 0 W/m 3,6 C 3,9 C 4,8 km/h (1 Bft) 98,08 %
26.11.2018 01:46 3,9 C 4,4 C 3,9 C 98 % 1004,3 hPa 0,0 l/m 3,5 km/h (1 Bft) O-NO 76 0 min 0,000 mm 0,0 UV-I 0 W/m 3,6 C 3,9 C 4,8 km/h (1 Bft) 96,08 %
26.11.2018 01:48 3,9 C 4,4 C 3,9 C 98 % 1004,3 hPa 0,0 l/m 2,9 km/h (1 Bft) O-NO 76 0 min 0,000 mm 0,0 UV-I 0 W/m 3,6 C 3,9 C 4,8 km/h (1 Bft) 97,37 %
26.11.2018 01:50 3,9 C 4,4 C 3,9 C 98 % 1004,3 hPa 0,2 l/m 3,8 km/h (1 Bft) O 82 0 min 0,000 mm 0,0 UV-I 0 W/m 3,6 C 3,9 C 6,4 km/h (2 Bft) 97,87 %
26.11.2018 01:52 3,9 C 4,4 C 3,9 C 98 % 1004,3 hPa 0,0 l/m 2,5 km/h (1 Bft) O 82 0 min 0,000 mm 0,0 UV-I 0 W/m 3,6 C 3,9 C 4,8 km/h (1 Bft) 100,00 %
26.11.2018 01:54 3,9 C 4,4 C 3,9 C 98 % 1004,3 hPa 0,0 l/m 3,5 km/h (1 Bft) O 82 0 min 0,000 mm 0,0 UV-I 0 W/m 3,6 C 3,9 C 4,8 km/h (1 Bft) 96,23 %
26.11.2018 01:56 3,9 C 4,4 C 3,9 C 98 % 1004,3 hPa 0,0 l/m 3,1 km/h (1 Bft) O 82 0 min 0,000 mm 0,0 UV-I 0 W/m 3,6 C 3,9 C 4,8 km/h (1 Bft) 100,00 %
26.11.2018 01:58 3,9 C 4,4 C 3,9 C 98 % 1004,3 hPa 0,0 l/m 2,9 km/h (1 Bft) O 82 0 min 0,000 mm 0,0 UV-I 0 W/m 3,6 C 3,9 C 3,2 km/h (1 Bft) 100,00 %
26.11.2018 02:00 3,9 C 4,4 C 3,9 C 98 % 1004,3 hPa 0,0 l/m 3,4 km/h (1 Bft) O 82 0 min 0,000 mm 0,0 UV-I 0 W/m 3,6 C 3,9 C 4,8 km/h (1 Bft) 100,00 %
26.11.2018 02:02 3,9 C 4,4 C 3,9 C 98 % 1004,3 hPa 0,2 l/m 3,4 km/h (1 Bft) O 82 0 min 0,000 mm 0,0 UV-I 0 W/m 3,6 C 3,9 C 4,8 km/h (1 Bft) 97,87 %
26.11.2018 02:04 3,9 C 4,4 C 3,9 C 98 % 1004,3 hPa 0,0 l/m 3,1 km/h (1 Bft) O-NO 65 0 min 0,000 mm 0,0 UV-I 0 W/m 3,6 C 3,9 C 4,8 km/h (1 Bft) 100,00 %
26.11.2018 02:06 3,9 C 4,4 C 3,9 C 98 % 1004,2 hPa 0,0 l/m 3,2 km/h (1 Bft) O-NO 72 0 min 0,000 mm 0,0 UV-I 0 W/m 3,6 C 3,9 C 4,8 km/h (1 Bft) 100,00 %
26.11.2018 02:08 3,9 C 4,4 C 3,9 C 98 % 1004,2 hPa 0,2 l/m 3,6 km/h (1 Bft) O-NO 73 0 min 0,000 mm 0,0 UV-I 0 W/m 3,6 C 3,9 C 4,8 km/h (1 Bft) 100,00 %
26.11.2018 02:10 3,9 C 4,4 C 3,9 C 98 % 1004,2 hPa 0,0 l/m 3,5 km/h (1 Bft) O-NO 73 0 min 0,000 mm 0,0 UV-I 0 W/m 3,6 C 3,9 C 4,8 km/h (1 Bft) 98,00 %
26.11.2018 02:12 3,9 C 4,4 C 3,9 C 98 % 1004,2 hPa 0,0 l/m 3,8 km/h (1 Bft) O-NO 73 0 min 0,000 mm 0,0 UV-I 0 W/m 3,6 C 3,9 C 4,8 km/h (1 Bft) 100,00 %
26.11.2018 02:14 3,9 C 4,4 C 3,9 C 98 % 1004,2 hPa 0,0 l/m 3,9 km/h (1 Bft) O 90 0 min 0,000 mm 0,0 UV-I 0 W/m 3,6 C 3,9 C 4,8 km/h (1 Bft) 98,11 %
26.11.2018 02:16 3,9 C 4,4 C 3,9 C 98 % 1004,2 hPa 0,0 l/m 3,3 km/h (1 Bft) O 90 0 min 0,000 mm 0,0 UV-I 0 W/m 3,6 C 3,9 C 4,8 km/h (1 Bft) 100,00 %
26.11.2018 02:18 3,9 C 4,4 C 3,9 C 98 % 1004,2 hPa 0,2 l/m 3,5 km/h (1 Bft) O 86 0 min 0,000 mm 0,0 UV-I 0 W/m 3,6 C 3,9 C 4,8 km/h (1 Bft) 100,00 %
26.11.2018 02:20 3,9 C 4,4 C 3,9 C 98 % 1004,2 hPa 0,0 l/m 3,1 km/h (1 Bft) O 85 0 min 0,000 mm 0,0 UV-I 0 W/m 3,6 C 3,9 C 4,8 km/h (1 Bft) 98,00 %
26.11.2018 02:22 3,9 C 4,4 C 3,9 C 98 % 1004,2 hPa 0,0 l/m 4,0 km/h (1 Bft) O-NO 74 0 min 0,000 mm 0,0 UV-I 0 W/m 3,6 C 3,9 C 6,4 km/h (2 Bft) 100,00 %
26.11.2018 02:24 3,9 C 4,4 C 3,9 C 98 % 1004,1 hPa 0,2 l/m 3,2 km/h (1 Bft) O-NO 72 0 min 0,000 mm 0,0 UV-I 0 W/m 3,6 C 3,9 C 4,8 km/h (1 Bft) 100,00 %
26.11.2018 02:26 3,9 C 4,4 C 3,9 C 98 % 1004,1 hPa 0,0 l/m 3,5 km/h (1 Bft) O-NO 74 0 min 0,000 mm 0,0 UV-I 0 W/m 3,6 C 3,9 C 4,8 km/h (1 Bft) 100,00 %
26.11.2018 02:28 3,9 C 4,4 C 3,9 C 98 % 1004,1 hPa 0,0 l/m 2,9 km/h (1 Bft) O-NO 74 0 min 0,000 mm 0,0 UV-I 0 W/m 3,6 C 3,9 C 4,8 km/h (1 Bft) 100,00 %
26.11.2018 02:30 3,9 C 4,4 C 3,9 C 98 % 1004,0 hPa 0,0 l/m 3,1 km/h (1 Bft) O-NO 71 0 min 0,000 mm 0,0 UV-I 0 W/m 3,6 C 3,9 C 6,4 km/h (2 Bft) 98,11 %
26.11.2018 02:32 3,9 C 4,4 C 3,9 C 98 % 1004,0 hPa 0,0 l/m 4,0 km/h (1 Bft) O-NO 73 0 min 0,000 mm 0,0 UV-I 0 W/m 3,6 C 3,9 C 4,8 km/h (1 Bft) 97,37 %
26.11.2018 02:34 3,9 C 4,4 C 3,9 C 98 % 1004,0 hPa 0,0 l/m 4,0 km/h (1 Bft) O-NO 70 0 min 0,000 mm 0,0 UV-I 0 W/m 3,6 C 3,9 C 6,4 km/h (2 Bft) 97,87 %
26.11.2018 02:36 3,9 C 4,4 C 3,9 C 98 % 1004,0 hPa 0,0 l/m 2,7 km/h (1 Bft) O-NO 70 0 min 0,000 mm 0,0 UV-I 0 W/m 3,6 C 3,9 C 3,2 km/h (1 Bft) 98,00 %
26.11.2018 02:38 3,9 C 4,4 C 3,9 C 98 % 1004,0 hPa 0,2 l/m 3,2 km/h (1 Bft) O-NO 73 0 min 0,000 mm 0,0 UV-I 0 W/m 3,6 C 3,9 C 4,8 km/h (1 Bft) 97,56 %
26.11.2018 02:40 3,9 C 4,4 C 3,9 C 98 % 1004,0 hPa 0,0 l/m 4,5 km/h (1 Bft) O-NO 65 0 min 0,000 mm 0,0 UV-I 0 W/m 3,6 C 3,9 C 6,4 km/h (2 Bft) 98,00 %
26.11.2018 02:42 3,9 C 4,4 C 3,9 C 98 % 1004,0 hPa 0,0 l/m 4,2 km/h (1 Bft) O-NO 63 0 min 0,000 mm 0,0 UV-I 0 W/m 3,6 C 3,9 C 4,8 km/h (1 Bft) 98,11 %
26.11.2018 02:44 3,9 C 4,4 C 3,9 C 98 % 1004,0 hPa 0,0 l/m 4,5 km/h (1 Bft) O 85 0 min 0,000 mm 0,0 UV-I 0 W/m 3,6 C 3,9 C 6,4 km/h (2 Bft) 94,74 %
26.11.2018 02:46 3,9 C 4,4 C 3,9 C 98 % 1004,0 hPa 0,0 l/m 4,2 km/h (1 Bft) O 85 0 min 0,000 mm 0,0 UV-I 0 W/m 3,6 C 3,9 C 4,8 km/h (1 Bft) 96,23 %
26.11.2018 02:48 3,8 C 4,4 C 3,9 C 98 % 1003,9 hPa 0,0 l/m 2,8 km/h (1 Bft) O 85 0 min 0,000 mm 0,0 UV-I 0 W/m 3,5 C 3,8 C 4,8 km/h (1 Bft) 97,87 %
26.11.2018 02:50 3,8 C 4,4 C 3,9 C 98 % 1004,0 hPa 0,2 l/m 1,9 km/h (1 Bft) O 85 0 min 0,000 mm 0,0 UV-I 0 W/m 3,5 C 3,8 C 3,2 km/h (1 Bft) 97,56 %
26.11.2018 02:52 3,9 C 4,4 C 3,9 C 98 % 1003,9 hPa 0,0 l/m 3,8 km/h (1 Bft) O-NO 65 0 min 0,000 mm 0,0 UV-I 0 W/m 3,6 C 3,9 C 6,4 km/h (2 Bft) 98,11 %
26.11.2018 02:54 3,9 C 4,4 C 3,9 C 98 % 1003,9 hPa 0,0 l/m 3,1 km/h (1 Bft) O-NO 65 0 min 0,000 mm 0,0 UV-I 0 W/m 3,6 C 3,9 C 4,8 km/h (1 Bft) 97,56 %
26.11.2018 02:56 3,9 C 4,4 C 3,9 C 98 % 1003,9 hPa 0,0 l/m 2,6 km/h (1 Bft) NO 44 0 min 0,000 mm 0,0 UV-I 0 W/m 3,6 C 3,9 C 4,8 km/h (1 Bft) 100,00 %
26.11.2018 02:58 3,9 C 4,4 C 3,9 C 98 % 1003,9 hPa 0,0 l/m 3,4 km/h (1 Bft) NO 44 0 min 0,000 mm 0,0 UV-I 0 W/m 3,6 C 3,9 C 6,4 km/h (2 Bft) 100,00 %
26.11.2018 03:00 3,9 C 4,4 C 3,9 C 98 % 1004,0 hPa 0,0 l/m 3,2 km/h (1 Bft) NO 44 0 min 0,000 mm 0,0 UV-I 0 W/m 3,6 C 3,9 C 4,8 km/h (1 Bft) 100,00 %
26.11.2018 03:02 3,9 C 4,4 C 3,9 C 98 % 1003,9 hPa 0,0 l/m 2,4 km/h (1 Bft) NO 44 0 min 0,000 mm 0,0 UV-I 0 W/m 3,6 C 3,9 C 3,2 km/h (1 Bft) 100,00 %
26.11.2018 03:04 3,9 C 4,4 C 3,9 C 98 % 1003,9 hPa 0,0 l/m 2,0 km/h (1 Bft) NO 44 0 min 0,000 mm 0,0 UV-I 0 W/m 3,6 C 3,9 C 3,2 km/h (1 Bft) 100,00 %
26.11.2018 03:06 3,8 C 4,4 C 3,9 C 98 % 1003,9 hPa 0,2 l/m 1,6 km/h (1 Bft) NO 44 0 min 0,000 mm 0,0 UV-I 0 W/m 3,5 C 3,8 C 3,2 km/h (1 Bft) 100,00 %
26.11.2018 03:08 3,9 C 4,4 C 3,9 C 98 % 1003,9 hPa 0,0 l/m 1,6 km/h (1 Bft) NO 44 0 min 0,000 mm 0,0 UV-I 0 W/m 3,6 C 3,9 C 3,2 km/h (1 Bft) 98,11 %
26.11.2018 03:10 3,8 C 4,4 C 3,9 C 98 % 1003,9 hPa 0,0 l/m 1,2 km/h (1 Bft) NO 44 0 min 0,000 mm 0,0 UV-I 0 W/m 3,5 C 3,8 C 1,6 km/h (1 Bft) 97,87 %
26.11.2018 03:12 3,9 C 4,4 C 3,9 C 98 % 1003,9 hPa 0,0 l/m 1,6 km/h (1 Bft) NO 44 0 min 0,000 mm 0,0 UV-I 0 W/m 3,6 C 3,9 C 3,2 km/h (1 Bft) 97,87 %
26.11.2018 03:14 3,8 C 4,4 C 3,9 C 98 % 1003,8 hPa 0,0 l/m 1,1 km/h (1 Bft) NO 44 0 min 0,000 mm 0,0 UV-I 0 W/m 3,5 C 3,8 C 1,6 km/h (1 Bft) 100,00 %
26.11.2018 03:16 3,8 C 4,4 C 3,9 C 98 % 1003,8 hPa 0,0 l/m 1,2 km/h (1 Bft) NO 44 0 min 0,000 mm 0,0 UV-I 0 W/m 3,5 C 3,8 C 1,6 km/h (1 Bft) 100,00 %
26.11.2018 03:18 3,8 C 4,4 C 3,9 C 98 % 1003,9 hPa 0,0 l/m 1,0 km/h (0 Bft) NO 44 0 min 0,000 mm 0,0 UV-I 0 W/m 3,5 C 3,8 C 1,6 km/h (1 Bft) 97,87 %
26.11.2018 03:20 3,8 C 4,4 C 3,9 C 98 % 1003,9 hPa 0,0 l/m 1,4 km/h (1 Bft) NO 44 0 min 0,000 mm 0,0 UV-I 0 W/m 3,5 C 3,8 C 1,6 km/h (1 Bft) 100,00 %
26.11.2018 03:22 3,8 C 4,4 C 3,9 C 98 % 1003,9 hPa 0,2 l/m 1,9 km/h (1 Bft) NO 44 0 min 0,000 mm 0,0 UV-I 0 W/m 3,5 C 3,8 C 3,2 km/h (1 Bft) 97,73 %
26.11.2018 03:24 3,8 C 4,4 C 3,9 C 98 % 1003,8 hPa 0,0 l/m 1,8 km/h (1 Bft) NO 44 0 min 0,000 mm 0,0 UV-I 0 W/m 3,5 C 3,8 C 3,2 km/h (1 Bft) 98,00 %
26.11.2018 03:26 3,8 C 4,4 C 3,9 C 98 % 1003,9 hPa 0,0 l/m 2,0 km/h (1 Bft) NO 44 0 min 0,000 mm 0,0 UV-I 0 W/m 3,5 C 3,8 C 3,2 km/h (1 Bft) 96,00 %
26.11.2018 03:28 3,8 C 4,4 C 3,9 C 98 % 1003,9 hPa 0,0 l/m 1,1 km/h (1 Bft) NO 44 0 min 0,000 mm 0,0 UV-I 0 W/m 3,5 C 3,8 C 1,6 km/h (1 Bft) 97,37 %
26.11.2018 03:30 3,8 C 4,4 C 3,9 C 98 % 1003,8 hPa 0,0 l/m 1,1 km/h (1 Bft) NO 44 0 min 0,000 mm 0,0 UV-I 0 W/m 3,5 C 3,8 C 3,2 km/h (1 Bft) 100,00 %
26.11.2018 03:32 3,8 C 4,4 C 3,9 C 98 % 1003,8 hPa 0,0 l/m 1,8 km/h (1 Bft) NO 44 0 min 0,000 mm 0,0 UV-I 0 W/m 3,5 C 3,8 C 3,2 km/h (1 Bft) 96,00 %
26.11.2018 03:34 3,8 C 4,4 C 3,9 C 98 % 1003,8 hPa 0,0 l/m 1,3 km/h (1 Bft) NO 44 0 min 0,000 mm 0,0 UV-I 0 W/m 3,5 C 3,8 C 1,6 km/h (1 Bft) 97,44 %
26.11.2018 03:36 3,8 C 4,4 C 3,9 C 98 % 1003,8 hPa 0,0 l/m 1,6 km/h (1 Bft) NO 44 0 min 0,000 mm 0,0 UV-I 0 W/m 3,5 C 3,8 C 3,2 km/h (1 Bft) 96,23 %
26.11.2018 03:38 3,8 C 4,4 C 3,9 C 98 % 1003,8 hPa 0,0 l/m 1,6 km/h (1 Bft) NO 44 0 min 0,000 mm 0,0 UV-I 0 W/m 3,5 C 3,8 C 3,2 km/h (1 Bft) 96,00 %
26.11.2018 03:40 3,8 C 4,4 C 3,9 C 98 % 1003,8 hPa 0,0 l/m 2,3 km/h (1 Bft) NO 44 0 min 0,000 mm 0,0 UV-I 0 W/m 3,5 C 3,8 C 3,2 km/h (1 Bft) 97,87 %
26.11.2018 03:42 3,9 C 4,4 C 3,9 C 98 % 1003,8 hPa 0,0 l/m 2,0 km/h (1 Bft) NO 44 0 min 0,000 mm 0,0 UV-I 0 W/m 3,6 C 3,9 C 3,2 km/h (1 Bft) 97,37 %
26.11.2018 03:44 3,9 C 4,4 C 3,9 C 98 % 1003,8 hPa 0,0 l/m 2,5 km/h (1 Bft) NO 44 0 min 0,000 mm 0,0 UV-I 0 W/m 3,6 C 3,9 C 3,2 km/h (1 Bft) 98,21 %
26.11.2018 03:46 3,8 C 4,4 C 3,9 C 98 % 1003,8 hPa 0,0 l/m 1,9 km/h (1 Bft) NO 44 0 min 0,000 mm 0,0 UV-I 0 W/m 3,5 C 3,8 C 3,2 km/h (1 Bft) 96,00 %
26.11.2018 03:48 3,8 C 4,4 C 3,9 C 98 % 1003,8 hPa 0,2 l/m 2,2 km/h (1 Bft) NO 44 0 min 0,000 mm 0,0 UV-I 0 W/m 3,5 C 3,8 C 3,2 km/h (1 Bft) 94,74 %
26.11.2018 03:50 3,8 C 4,4 C 3,9 C 98 % 1003,7 hPa 0,0 l/m 2,9 km/h (1 Bft) NO 44 0 min 0,000 mm 0,0 UV-I 0 W/m 3,5 C 3,8 C 4,8 km/h (1 Bft) 96,00 %
26.11.2018 03:52 3,8 C 4,4 C 3,9 C 98 % 1003,7 hPa 0,0 l/m 2,9 km/h (1 Bft) NO 44 0 min 0,000 mm 0,0 UV-I 0 W/m 3,5 C 3,8 C 4,8 km/h (1 Bft) 93,18 %
26.11.2018 03:54 3,8 C 4,4 C 3,9 C 98 % 1003,7 hPa 0,0 l/m 2,3 km/h (1 Bft) NO 44 0 min 0,000 mm 0,0 UV-I 0 W/m 3,5 C 3,8 C 3,2 km/h (1 Bft) 94,00 %
26.11.2018 03:56 3,8 C 4,4 C 3,9 C 98 % 1003,7 hPa 0,0 l/m 2,2 km/h (1 Bft) NO 44 0 min 0,000 mm 0,0 UV-I 0 W/m 3,5 C 3,8 C 3,2 km/h (1 Bft) 92,00 %
26.11.2018 03:58 3,8 C 4,4 C 3,9 C 98 % 1003,7 hPa 0,2 l/m 2,9 km/h (1 Bft) NO 44 0 min 0,000 mm 0,0 UV-I 0 W/m 3,5 C 3,8 C 4,8 km/h (1 Bft) 97,37 %
26.11.2018 04:00 3,8 C 4,4 C 3,9 C 98 % 1003,7 hPa 0,0 l/m 2,6 km/h (1 Bft) NO 44 0 min 0,000 mm 0,0 UV-I 0 W/m 3,5 C 3,8 C 3,2 km/h (1 Bft) 93,62 %
26.11.2018 04:02 3,8 C 4,4 C 3,9 C 98 % 1003,7 hPa 0,0 l/m 2,2 km/h (1 Bft) NO 44 0 min 0,000 mm 0,0 UV-I 0 W/m 3,5 C 3,8 C 3,2 km/h (1 Bft) 100,00 %
26.11.2018 04:05 3,8 C 4,4 C 3,9 C 98 % 1003,7 hPa 0,0 l/m 2,8 km/h (1 Bft) NO 44 0 min 0,000 mm 0,0 UV-I 0 W/m 3,5 C 3,8 C 4,8 km/h (1 Bft) 92,50 %
26.11.2018 04:06 3,8 C 4,4 C 3,9 C 98 % 1003,7 hPa 0,0 l/m 3,6 km/h (1 Bft) NO 44 0 min 0,000 mm 0,0 UV-I 0 W/m 3,5 C 3,8 C 4,8 km/h (1 Bft) 100,00 %
26.11.2018 04:08 3,8 C 4,4 C 3,9 C 98 % 1003,8 hPa 0,0 l/m 2,7 km/h (1 Bft) NO 44 0 min 0,000 mm 0,0 UV-I 0 W/m 3,5 C 3,8 C 4,8 km/h (1 Bft) 92,00 %
26.11.2018 04:10 3,8 C 4,4 C 3,9 C 98 % 1003,7 hPa 0,2 l/m 3,6 km/h (1 Bft) N-NO 31 0 min 0,000 mm 0,0 UV-I 0 W/m 3,5 C 3,8 C 4,8 km/h (1 Bft) 97,87 %
26.11.2018 04:12 3,8 C 4,4 C 3,9 C 98 % 1003,7 hPa 0,0 l/m 7,9 km/h (2 Bft) NO 44 0 min 0,000 mm 0,0 UV-I 0 W/m 3,5 C 2,4 C 12,9 km/h (3 Bft) 96,00 %
26.11.2018 04:14 3,7 C 4,4 C 3,9 C 98 % 1003,7 hPa 0,0 l/m 7,6 km/h (2 Bft) NO 35 0 min 0,000 mm 0,0 UV-I 0 W/m 3,4 C 2,6 C 9,7 km/h (2 Bft) 97,44 %
26.11.2018 04:16 3,7 C 4,4 C 3,9 C 98 % 1003,7 hPa 0,0 l/m 6,4 km/h (2 Bft) N-NO 33 0 min 0,000 mm 0,0 UV-I 0 W/m 3,4 C 3,7 C 8,0 km/h (2 Bft) 98,08 %
26.11.2018 04:18 3,7 C 4,4 C 3,9 C 98 % 1003,7 hPa 0,0 l/m 8,7 km/h (2 Bft) NO 43 0 min 0,000 mm 0,0 UV-I 0 W/m 3,4 C 1,6 C 17,7 km/h (3 Bft) 97,62 %
26.11.2018 04:20 3,7 C 4,4 C 3,9 C 98 % 1003,7 hPa 0,2 l/m 9,0 km/h (2 Bft) NO 42 0 min 0,000 mm 0,0 UV-I 0 W/m 3,4 C 1,4 C 11,3 km/h (2 Bft) 96,23 %
26.11.2018 04:22 3,7 C 4,4 C 3,9 C 98 % 1003,7 hPa 0,0 l/m 8,8 km/h (2 Bft) NO 45 0 min 0,000 mm 0,0 UV-I 0 W/m 3,4 C 1,6 C 14,5 km/h (3 Bft) 97,87 %
26.11.2018 04:24 3,7 C 4,4 C 3,9 C 98 % 1003,7 hPa 0,0 l/m 6,6 km/h (2 Bft) NO 50 0 min 0,000 mm 0,0 UV-I 0 W/m 3,4 C 3,5 C 9,7 km/h (2 Bft) 97,37 %
26.11.2018 04:26 3,7 C 4,4 C 3,9 C 98 % 1003,7 hPa 0,0 l/m 5,7 km/h (1 Bft) NO 47 0 min 0,000 mm 0,0 UV-I 0 W/m 3,4 C 3,7 C 6,4 km/h (2 Bft) 98,00 %
26.11.2018 04:28 3,7 C 4,4 C 3,9 C 98 % 1003,7 hPa 0,0 l/m 5,2 km/h (1 Bft) NO 46 0 min 0,000 mm 0,0 UV-I 0 W/m 3,4 C 3,7 C 8,0 km/h (2 Bft) 96,00 %
26.11.2018 04:30 3,7 C 4,4 C 3,9 C 98 % 1003,6 hPa 0,0 l/m 4,4 km/h (1 Bft) O-NO 61 0 min 0,000 mm 0,0 UV-I 0 W/m 3,4 C 3,7 C 8,0 km/h (2 Bft) 97,37 %
26.11.2018 04:32 3,7 C 4,4 C 3,9 C 98 % 1003,6 hPa 0,0 l/m 4,3 km/h (1 Bft) NO 51 0 min 0,000 mm 0,0 UV-I 0 W/m 3,4 C 3,7 C 4,8 km/h (1 Bft) 98,00 %
26.11.2018 04:34 3,7 C 4,4 C 3,9 C 98 % 1003,6 hPa 0,2 l/m 3,8 km/h (1 Bft) NO 51 0 min 0,000 mm 0,0 UV-I 0 W/m 3,4 C 3,7 C 4,8 km/h (1 Bft) 98,21 %
26.11.2018 04:36 3,8 C 4,4 C 3,9 C 98 % 1003,6 hPa 0,0 l/m 5,2 km/h (1 Bft) NO 42 0 min 0,000 mm 0,0 UV-I 0 W/m 3,5 C 3,8 C 6,4 km/h (2 Bft) 97,37 %
26.11.2018 04:38 3,8 C 4,4 C 3,9 C 98 % 1003,6 hPa 0,0 l/m 4,8 km/h (1 Bft) NO 42 0 min 0,000 mm 0,0 UV-I 0 W/m 3,5 C 3,8 C 6,4 km/h (2 Bft) 98,00 %
26.11.2018 04:40 3,8 C 4,4 C 3,9 C 98 % 1003,6 hPa 0,0 l/m 3,8 km/h (1 Bft) NO 45 0 min 0,000 mm 0,0 UV-I 0 W/m 3,5 C 3,8 C 4,8 km/h (1 Bft) 96,00 %
26.11.2018 04:42 3,8 C 4,4 C 3,9 C 98 % 1003,7 hPa 0,2 l/m 3,7 km/h (1 Bft) NO 49 0 min 0,000 mm 0,0 UV-I 0 W/m 3,5 C 3,8 C 4,8 km/h (1 Bft) 93,62 %
26.11.2018 04:44 3,8 C 4,4 C 3,9 C 98 % 1003,7 hPa 0,0 l/m 3,8 km/h (1 Bft) NO 49 0 min 0,000 mm 0,0 UV-I 0 W/m 3,5 C 3,8 C 4,8 km/h (1 Bft) 95,74 %
26.11.2018 04:46 3,8 C 4,4 C 3,9 C 98 % 1003,7 hPa 0,0 l/m 3,5 km/h (1 Bft) NO 49 0 min 0,000 mm 0,0 UV-I 0 W/m 3,5 C 3,8 C 4,8 km/h (1 Bft) 98,00 %
26.11.2018 04:48 3,8 C 4,4 C 3,9 C 98 % 1003,6 hPa 0,0 l/m 3,8 km/h (1 Bft) NO 49 0 min 0,000 mm 0,0 UV-I 0 W/m 3,5 C 3,8 C 6,4 km/h (2 Bft) 100,00 %
26.11.2018 04:50 3,8 C 4,4 C 3,9 C 98 % 1003,7 hPa 0,2 l/m 3,3 km/h (1 Bft) NO 49 0 min 0,000 mm 0,0 UV-I 0 W/m 3,5 C 3,8 C 4,8 km/h (1 Bft) 96,88 %
26.11.2018 04:52 3,8 C 4,4 C 3,9 C 98 % 1003,6 hPa 0,0 l/m 4,6 km/h (1 Bft) NO 49 0 min 0,000 mm 0,0 UV-I 0 W/m 3,5 C 3,8 C 6,4 km/h (2 Bft) 97,62 %
26.11.2018 04:54 3,8 C 4,4 C 3,9 C 98 % 1003,7 hPa 0,0 l/m 5,0 km/h (1 Bft) NO 42 0 min 0,000 mm 0,0 UV-I 0 W/m 3,5 C 3,8 C 6,4 km/h (2 Bft) 97,87 %
26.11.2018 04:56 3,8 C 4,4 C 3,9 C 98 % 1003,6 hPa 0,0 l/m 5,0 km/h (1 Bft) NO 42 0 min 0,000 mm 0,0 UV-I 0 W/m 3,5 C 3,8 C 6,4 km/h (2 Bft) 98,11 %
26.11.2018 04:58 3,8 C 4,4 C 3,9 C 98 % 1003,6 hPa 0,0 l/m 6,6 km/h (2 Bft) NO 40 0 min 0,000 mm 0,0 UV-I 0 W/m 3,5 C 3,6 C 8,0 km/h (2 Bft) 93,62 %
26.11.2018 05:00 3,8 C 4,4 C 3,9 C 98 % 1003,7 hPa 0,0 l/m 6,3 km/h (2 Bft) NO 42 0 min 0,000 mm 0,0 UV-I 0 W/m 3,5 C 3,8 C 9,7 km/h (2 Bft) 95,74 %
26.11.2018 05:02 3,7 C 4,4 C 3,9 C 98 % 1003,7 hPa 0,0 l/m 6,1 km/h (2 Bft) NO 36 0 min 0,000 mm 0,0 UV-I 0 W/m 3,4 C 3,7 C 8,0 km/h (2 Bft) 97,56 %
26.11.2018 05:04 3,7 C 4,4 C 3,9 C 98 % 1003,6 hPa 0,2 l/m 5,1 km/h (1 Bft) NO 34 0 min 0,000 mm 0,0 UV-I 0 W/m 3,4 C 3,7 C 6,4 km/h (2 Bft) 100,00 %
26.11.2018 05:06 3,7 C 4,4 C 3,9 C 98 % 1003,6 hPa 0,0 l/m 5,5 km/h (1 Bft) N-NO 33 0 min 0,000 mm 0,0 UV-I 0 W/m 3,4 C 3,7 C 8,0 km/h (2 Bft) 95,12 %
26.11.2018 05:08 3,7 C 4,4 C 3,9 C 98 % 1003,7 hPa 0,0 l/m 6,0 km/h (2 Bft) NO 43 0 min 0,000 mm 0,0 UV-I 0 W/m 3,4 C 3,7 C 8,0 km/h (2 Bft) 98,21 %
26.11.2018 05:10 3,7 C 4,4 C 3,9 C 98 % 1003,7 hPa 0,0 l/m 5,2 km/h (1 Bft) N-NO 27 0 min 0,000 mm 0,0 UV-I 0 W/m 3,4 C 3,7 C 8,0 km/h (2 Bft) 95,74 %
26.11.2018 05:12 3,7 C 4,4 C 3,9 C 98 % 1003,7 hPa 0,0 l/m 5,8 km/h (2 Bft) NO 36 0 min 0,000 mm 0,0 UV-I 0 W/m 3,4 C 3,7 C 9,7 km/h (2 Bft) 97,14 %
26.11.2018 05:14 3,6 C 4,4 C 3,3 C 98 % 1003,7 hPa 0,0 l/m 5,7 km/h (1 Bft) N-NO 17 0 min 0,000 mm 0,0 UV-I 0 W/m 3,3 C 3,6 C 8,0 km/h (2 Bft) 97,87 %
26.11.2018 05:16 3,6 C 4,4 C 3,3 C 98 % 1003,6 hPa 0,0 l/m 6,7 km/h (2 Bft) N-NO 13 0 min 0,000 mm 0,0 UV-I 0 W/m 3,3 C 3,3 C 9,7 km/h (2 Bft) 98,11 %
26.11.2018 05:18 3,6 C 4,4 C 3,3 C 98 % 1003,6 hPa 0,0 l/m 6,1 km/h (2 Bft) NO 37 0 min 0,000 mm 0,0 UV-I 0 W/m 3,3 C 3,6 C 8,0 km/h (2 Bft) 98,00 %
26.11.2018 05:20 3,6 C 4,4 C 3,3 C 98 % 1003,6 hPa 0,0 l/m 7,2 km/h (2 Bft) N-NO 30 0 min 0,000 mm 0,0 UV-I 0 W/m 3,3 C 2,9 C 9,7 km/h (2 Bft) 97,87 %
26.11.2018 05:22 3,6 C 4,4 C 3,3 C 98 % 1003,6 hPa 0,0 l/m 5,5 km/h (1 Bft) NO 39 0 min 0,000 mm 0,0 UV-I 0 W/m 3,3 C 3,6 C 6,4 km/h (2 Bft) 97,87 %
26.11.2018 05:24 3,5 C 4,4 C 3,3 C 98 % 1003,6 hPa 0,0 l/m 7,6 km/h (2 Bft) N-NO 24 0 min 0,000 mm 0,0 UV-I 0 W/m 3,2 C 2,4 C 12,9 km/h (3 Bft) 97,37 %
26.11.2018 05:26 3,5 C 4,4 C 3,3 C 98 % 1003,6 hPa 0,0 l/m 5,6 km/h (1 Bft) N-NO 20 0 min 0,000 mm 0,0 UV-I 0 W/m 3,2 C 3,5 C 6,4 km/h (2 Bft) 98,11 %
26.11.2018 05:28 3,5 C 4,4 C 3,3 C 98 % 1003,6 hPa 0,2 l/m 5,3 km/h (1 Bft) N-NO 25 0 min 0,000 mm 0,0 UV-I 0 W/m 3,2 C 3,5 C 6,4 km/h (2 Bft) 96,00 %
26.11.2018 05:30 3,5 C 4,4 C 3,3 C 98 % 1003,6 hPa 0,0 l/m 4,8 km/h (1 Bft) N-NO 15 0 min 0,000 mm 0,0 UV-I 0 W/m 3,2 C 3,5 C 6,4 km/h (2 Bft) 97,62 %
26.11.2018 05:32 3,5 C 4,4 C 3,3 C 98 % 1003,5 hPa 0,0 l/m 5,6 km/h (1 Bft) NO 34 0 min 0,000 mm 0,0 UV-I 0 W/m 3,2 C 3,5 C 8,0 km/h (2 Bft) 97,87 %
26.11.2018 05:34 3,5 C 4,4 C 3,3 C 98 % 1003,5 hPa 0,0 l/m 7,0 km/h (2 Bft) N-NO 24 0 min 0,000 mm 0,0 UV-I 0 W/m 3,2 C 2,9 C 8,0 km/h (2 Bft) 97,73 %
26.11.2018 05:36 3,4 C 4,4 C 3,3 C 98 % 1003,5 hPa 0,0 l/m 5,1 km/h (1 Bft) N-NO 12 0 min 0,000 mm 0,0 UV-I 0 W/m 3,1 C 3,4 C 6,4 km/h (2 Bft) 96,23 %
26.11.2018 05:38 3,4 C 4,4 C 3,3 C 98 % 1003,5 hPa 0,0 l/m 4,5 km/h (1 Bft) N-NO 29 0 min 0,000 mm 0,0 UV-I 0 W/m 3,1 C 3,4 C 6,4 km/h (2 Bft) 95,74 %
26.11.2018 05:40 3,4 C 4,4 C 3,3 C 98 % 1003,5 hPa 0,2 l/m 3,6 km/h (1 Bft) N-NO 29 0 min 0,000 mm 0,0 UV-I 0 W/m 3,1 C 3,4 C 4,8 km/h (1 Bft) 97,87 %
26.11.2018 05:42 3,4 C 4,4 C 3,3 C 98 % 1003,5 hPa 0,0 l/m 5,1 km/h (1 Bft) N-NO 28 0 min 0,000 mm 0,0 UV-I 0 W/m 3,1 C 3,4 C 6,4 km/h (2 Bft) 95,74 %
26.11.2018 05:44 3,4 C 4,4 C 3,3 C 98 % 1003,5 hPa 0,0 l/m 5,4 km/h (1 Bft) N-NO 26 0 min 0,000 mm 0,0 UV-I 0 W/m 3,1 C 3,4 C 8,0 km/h (2 Bft) 98,00 %
26.11.2018 05:46 3,4 C 4,4 C 3,3 C 98 % 1003,5 hPa 0,0 l/m 5,8 km/h (2 Bft) NO 43 0 min 0,000 mm 0,0 UV-I 0 W/m 3,1 C 3,4 C 6,4 km/h (2 Bft) 97,56 %
26.11.2018 05:48 3,4 C 4,4 C 3,3 C 98 % 1003,6 hPa 0,0 l/m 5,4 km/h (1 Bft) N-NO 30 0 min 0,000 mm 0,0 UV-I 0 W/m 3,1 C 3,4 C 6,4 km/h (2 Bft) 98,11 %
26.11.2018 05:50 3,4 C 4,4 C 3,3 C 98 % 1003,5 hPa 0,0 l/m 4,9 km/h (1 Bft) N-NO 18 0 min 0,000 mm 0,0 UV-I 0 W/m 3,1 C 3,4 C 8,0 km/h (2 Bft) 97,56 %
26.11.2018 05:52 3,4 C 4,4 C 3,3 C 98 % 1003,6 hPa 0,0 l/m 5,3 km/h (1 Bft) NO 43 0 min 0,000 mm 0,0 UV-I 0 W/m 3,1 C 3,4 C 11,3 km/h (2 Bft) 97,87 %
26.11.2018 05:54 3,4 C 4,4 C 3,3 C 98 % 1003,5 hPa 0,0 l/m 5,1 km/h (1 Bft) N-NO 15 0 min 0,000 mm 0,0 UV-I 0 W/m 3,1 C 3,4 C 6,4 km/h (2 Bft) 97,37 %
26.11.2018 05:56 3,4 C 4,4 C 3,3 C 98 % 1003,6 hPa 0,0 l/m 4,9 km/h (1 Bft) NO 34 0 min 0,000 mm 0,0 UV-I 0 W/m 3,1 C 3,4 C 6,4 km/h (2 Bft) 96,77 %
26.11.2018 05:58 3,4 C 4,4 C 3,3 C 98 % 1003,6 hPa 0,0 l/m 5,2 km/h (1 Bft) N-NO 25 0 min 0,000 mm 0,0 UV-I 0 W/m 3,1 C 3,4 C 6,4 km/h (2 Bft) 94,74 %
26.11.2018 06:00 3,4 C 4,4 C 3,3 C 98 % 1003,5 hPa 0,0 l/m 4,1 km/h (1 Bft) N-NO 31 0 min 0,000 mm 0,0 UV-I 0 W/m 3,1 C 3,4 C 6,4 km/h (2 Bft) 98,00 %
26.11.2018 06:02 3,4 C 4,4 C 3,3 C 98 % 1003,5 hPa 0,2 l/m 4,0 km/h (1 Bft) NO 43 0 min 0,000 mm 0,0 UV-I 0 W/m 3,1 C 3,4 C 6,4 km/h (2 Bft) 100,00 %
26.11.2018 06:04 3,4 C 4,4 C 3,3 C 98 % 1003,5 hPa 0,0 l/m 3,8 km/h (1 Bft) NO 42 0 min 0,000 mm 0,0 UV-I 0 W/m 3,1 C 3,4 C 6,4 km/h (2 Bft) 100,00 %
26.11.2018 06:06 3,4 C 4,4 C 3,3 C 98 % 1003,5 hPa 0,0 l/m 3,7 km/h (1 Bft) NO 42 0 min 0,000 mm 0,0 UV-I 0 W/m 3,1 C 3,4 C 4,8 km/h (1 Bft) 100,00 %
26.11.2018 06:08 3,4 C 4,4 C 3,3 C 98 % 1003,5 hPa 0,0 l/m 3,5 km/h (1 Bft) NO 42 0 min 0,000 mm 0,0 UV-I 0 W/m 3,1 C 3,4 C 6,4 km/h (2 Bft) 100,00 %
26.11.2018 06:10 3,4 C 4,4 C 3,3 C 98 % 1003,5 hPa 0,0 l/m 4,0 km/h (1 Bft) NO 42 0 min 0,000 mm 0,0 UV-I 0 W/m 3,1 C 3,4 C 6,4 km/h (2 Bft) 98,00 %
26.11.2018 06:12 3,4 C 4,4 C 3,3 C 98 % 1003,5 hPa 0,0 l/m 3,5 km/h (1 Bft) NO 42 0 min 0,000 mm 0,0 UV-I 0 W/m 3,1 C 3,4 C 4,8 km/h (1 Bft) 97,92 %
26.11.2018 06:14 3,4 C 4,4 C 3,3 C 98 % 1003,5 hPa 0,2 l/m 3,5 km/h (1 Bft) NO 42 0 min 0,000 mm 0,0 UV-I 0 W/m 3,1 C 3,4 C 4,8 km/h (1 Bft) 100,00 %
26.11.2018 06:16 3,4 C 4,4 C 3,3 C 98 % 1003,5 hPa 0,0 l/m 3,4 km/h (1 Bft) NO 42 0 min 0,000 mm 0,0 UV-I 0 W/m 3,1 C 3,4 C 4,8 km/h (1 Bft) 100,00 %
26.11.2018 06:18 3,4 C 4,4 C 3,3 C 98 % 1003,5 hPa 0,0 l/m 2,5 km/h (1 Bft) NO 42 0 min 0,000 mm 0,0 UV-I 0 W/m 3,1 C 3,4 C 3,2 km/h (1 Bft) 100,00 %
26.11.2018 06:20 3,4 C 4,4 C 3,3 C 98 % 1003,5 hPa 0,0 l/m 3,3 km/h (1 Bft) N-NO 25 0 min 0,000 mm 0,0 UV-I 0 W/m 3,1 C 3,4 C 4,8 km/h (1 Bft) 100,00 %
26.11.2018 06:22 3,4 C 4,4 C 3,3 C 98 % 1003,4 hPa 0,0 l/m 4,1 km/h (1 Bft) NO 44 0 min 0,000 mm 0,0 UV-I 0 W/m 3,1 C 3,4 C 6,4 km/h (2 Bft) 100,00 %
26.11.2018 06:24 3,3 C 4,4 C 3,3 C 98 % 1003,5 hPa 0,0 l/m 4,9 km/h (1 Bft) N-NO 18 0 min 0,000 mm 0,0 UV-I 0 W/m 3,0 C 3,3 C 6,4 km/h (2 Bft) 97,87 %
26.11.2018 06:26 3,3 C 4,4 C 3,3 C 98 % 1003,5 hPa 0,0 l/m 5,4 km/h (1 Bft) N-NO 18 0 min 0,000 mm 0,0 UV-I 0 W/m 3,0 C 3,3 C 8,0 km/h (2 Bft) 97,87 %
26.11.2018 06:28 3,3 C 4,4 C 3,3 C 98 % 1003,5 hPa 0,0 l/m 5,0 km/h (1 Bft) N-NO 28 0 min 0,000 mm 0,0 UV-I 0 W/m 3,0 C 3,3 C 6,4 km/h (2 Bft) 95,12 %
26.11.2018 06:30 3,3 C 4,4 C 3,3 C 98 % 1003,6 hPa 0,0 l/m 4,3 km/h (1 Bft) NO 36 0 min 0,000 mm 0,0 UV-I 0 W/m 3,0 C 3,3 C 4,8 km/h (1 Bft) 98,11 %
26.11.2018 06:32 3,3 C 4,4 C 3,3 C 98 % 1003,6 hPa 0,2 l/m 4,5 km/h (1 Bft) N-NO 31 0 min 0,000 mm 0,0 UV-I 0 W/m 3,0 C 3,3 C 6,4 km/h (2 Bft) 95,74 %
26.11.2018 06:34 3,2 C 4,4 C 3,3 C 98 % 1003,5 hPa 0,0 l/m 5,6 km/h (1 Bft) N-NO 29 0 min 0,000 mm 0,0 UV-I 0 W/m 2,9 C 3,2 C 8,0 km/h (2 Bft) 97,87 %
26.11.2018 06:36 3,2 C 4,4 C 3,3 C 98 % 1003,5 hPa 0,0 l/m 5,4 km/h (1 Bft) N-NO 18 0 min 0,000 mm 0,0 UV-I 0 W/m 2,9 C 3,2 C 6,4 km/h (2 Bft) 97,87 %
26.11.2018 06:38 3,2 C 4,4 C 3,3 C 98 % 1003,5 hPa 0,0 l/m 5,1 km/h (1 Bft) N-NO 13 0 min 0,000 mm 0,0 UV-I 0 W/m 2,9 C 3,2 C 6,4 km/h (2 Bft) 97,87 %
26.11.2018 06:40 3,2 C 4,4 C 3,3 C 98 % 1003,5 hPa 0,0 l/m 4,2 km/h (1 Bft) N-NO 13 0 min 0,000 mm 0,0 UV-I 0 W/m 2,9 C 3,2 C 6,4 km/h (2 Bft) 97,37 %
26.11.2018 06:42 3,2 C 4,4 C 3,3 C 97 % 1003,5 hPa 0,0 l/m 3,8 km/h (1 Bft) N-NO 14 0 min 0,000 mm 0,0 UV-I 0 W/m 2,8 C 3,2 C 4,8 km/h (1 Bft) 97,87 %
26.11.2018 06:44 3,2 C 4,4 C 3,3 C 97 % 1003,5 hPa 0,0 l/m 3,6 km/h (1 Bft) N-NO 15 0 min 0,000 mm 0,0 UV-I 0 W/m 2,8 C 3,2 C 4,8 km/h (1 Bft) 97,92 %
26.11.2018 06:46 3,2 C 4,4 C 3,3 C 97 % 1003,5 hPa 0,2 l/m 3,5 km/h (1 Bft) N-NO 15 0 min 0,000 mm 0,0 UV-I 0 W/m 2,8 C 3,2 C 4,8 km/h (1 Bft) 96,00 %
26.11.2018 06:48 3,2 C 4,4 C 3,3 C 97 % 1003,5 hPa 0,0 l/m 3,4 km/h (1 Bft) N-NO 15 0 min 0,000 mm 0,0 UV-I 0 W/m 2,8 C 3,2 C 4,8 km/h (1 Bft) 100,00 %
26.11.2018 06:50 3,2 C 4,4 C 3,3 C 97 % 1003,5 hPa 0,0 l/m 3,3 km/h (1 Bft) N-NO 15 0 min 0,000 mm 0,0 UV-I 0 W/m 2,8 C 3,2 C 4,8 km/h (1 Bft) 97,87 %
26.11.2018 06:52 3,2 C 4,4 C 3,3 C 97 % 1003,5 hPa 0,0 l/m 3,9 km/h (1 Bft) N-NO 15 0 min 0,000 mm 0,0 UV-I 0 W/m 2,8 C 3,2 C 4,8 km/h (1 Bft) 100,00 %
26.11.2018 06:54 3,2 C 4,4 C 3,3 C 97 % 1003,5 hPa 0,0 l/m 2,6 km/h (1 Bft) N-NO 15 0 min 0,000 mm 0,0 UV-I 0 W/m 2,8 C 3,2 C 3,2 km/h (1 Bft) 95,74 %
26.11.2018 06:56 3,2 C 4,4 C 3,3 C 97 % 1003,5 hPa 0,0 l/m 2,9 km/h (1 Bft) N-NO 15 0 min 0,000 mm 0,0 UV-I 0 W/m 2,8 C 3,2 C 4,8 km/h (1 Bft) 100,00 %
26.11.2018 06:58 3,2 C 4,4 C 3,3 C 97 % 1003,5 hPa 0,0 l/m 3,1 km/h (1 Bft) N-NO 15 0 min 0,000 mm 0,0 UV-I 0 W/m 2,8 C 3,2 C 4,8 km/h (1 Bft) 100,00 %
26.11.2018 07:00 3,2 C 4,4 C 3,3 C 97 % 1003,5 hPa 0,0 l/m 2,7 km/h (1 Bft) N-NO 15 0 min 0,000 mm 0,0 UV-I 0 W/m 2,8 C 3,2 C 3,2 km/h (1 Bft) 97,87 %
26.11.2018 07:02 3,2 C 4,4 C 3,3 C 97 % 1003,5 hPa 0,0 l/m 3,7 km/h (1 Bft) N-NO 15 0 min 0,000 mm 0,0 UV-I 0 W/m 2,8 C 3,2 C 4,8 km/h (1 Bft) 100,00 %
26.11.2018 07:04 3,2 C 4,4 C 3,3 C 97 % 1003,5 hPa 0,2 l/m 4,4 km/h (1 Bft) N-NO 24 0 min 0,000 mm 0,0 UV-I 0 W/m 2,8 C 3,2 C 6,4 km/h (2 Bft) 100,00 %
26.11.2018 07:06 3,2 C 4,4 C 3,3 C 97 % 1003,4 hPa 0,0 l/m 4,5 km/h (1 Bft) N-NO 14 0 min 0,000 mm 0,0 UV-I 0 W/m 2,8 C 3,2 C 6,4 km/h (2 Bft) 100,00 %
26.11.2018 07:08 3,2 C 4,4 C 3,3 C 98 % 1003,4 hPa 0,0 l/m 4,6 km/h (1 Bft) N-NO 28 0 min 0,000 mm 0,0 UV-I 0 W/m 2,9 C 3,2 C 6,4 km/h (2 Bft) 100,00 %
26.11.2018 07:10 3,2 C 4,4 C 3,3 C 98 % 1003,4 hPa 0,0 l/m 4,1 km/h (1 Bft) N-NO 19 0 min 0,000 mm 0,0 UV-I 0 W/m 2,9 C 3,2 C 6,4 km/h (2 Bft) 100,00 %
26.11.2018 07:12 3,2 C 4,4 C 3,3 C 98 % 1003,5 hPa 0,0 l/m 3,8 km/h (1 Bft) N-NO 19 0 min 0,000 mm 0,0 UV-I 0 W/m 2,9 C 3,2 C 6,4 km/h (2 Bft) 97,87 %
26.11.2018 07:14 3,2 C 4,4 C 3,3 C 97 % 1003,5 hPa 0,0 l/m 2,7 km/h (1 Bft) N-NO 19 0 min 0,000 mm 0,0 UV-I 0 W/m 2,8 C 3,2 C 3,2 km/h (1 Bft) 97,87 %
26.11.2018 07:16 3,2 C 4,4 C 3,3 C 97 % 1003,5 hPa 0,0 l/m 1,9 km/h (1 Bft) N-NO 19 0 min 0,000 mm 0,0 UV-I 0 W/m 2,8 C 3,2 C 3,2 km/h (1 Bft) 98,00 %
26.11.2018 07:18 3,2 C 4,4 C 3,3 C 97 % 1003,5 hPa 0,0 l/m 1,2 km/h (1 Bft) N-NO 19 0 min 0,000 mm 0,0 UV-I 0 W/m 2,8 C 3,2 C 1,6 km/h (1 Bft) 100,00 %
26.11.2018 07:20 3,2 C 4,4 C 3,3 C 97 % 1003,6 hPa 0,0 l/m 1,4 km/h (1 Bft) N-NO 19 0 min 0,000 mm 0,0 UV-I 0 W/m 2,8 C 3,2 C 3,2 km/h (1 Bft) 100,00 %
26.11.2018 07:22 3,2 C 4,4 C 3,3 C 97 % 1003,6 hPa 0,2 l/m 2,0 km/h (1 Bft) N-NO 19 0 min 0,000 mm 0,0 UV-I 0 W/m 2,8 C 3,2 C 3,2 km/h (1 Bft) 100,00 %
26.11.2018 07:24 3,2 C 4,4 C 3,3 C 97 % 1003,6 hPa 0,0 l/m 0,7 km/h (0 Bft) N-NO 19 0 min 0,000 mm 0,0 UV-I 0 W/m 2,8 C 3,2 C 1,6 km/h (1 Bft) 100,00 %
26.11.2018 07:26 3,2 C 4,4 C 3,3 C 97 % 1003,6 hPa 0,0 l/m 1,3 km/h (1 Bft) N-NO 19 0 min 0,000 mm 0,0 UV-I 0 W/m 2,8 C 3,2 C 3,2 km/h (1 Bft) 97,87 %
26.11.2018 07:28 3,2 C 4,4 C 3,3 C 97 % 1003,6 hPa 0,0 l/m 1,5 km/h (1 Bft) N-NO 19 0 min 0,000 mm 0,0 UV-I 0 W/m 2,8 C 3,2 C 3,2 km/h (1 Bft) 100,00 %
26.11.2018 07:30 3,2 C 4,4 C 3,3 C 97 % 1003,6 hPa 0,0 l/m 1,6 km/h (1 Bft) N-NO 19 0 min 0,000 mm 0,0 UV-I 0 W/m 2,8 C 3,2 C 3,2 km/h (1 Bft) 100,00 %
26.11.2018 07:32 3,2 C 4,4 C 3,3 C 97 % 1003,6 hPa 0,0 l/m 2,0 km/h (1 Bft) N-NO 19 0 min 0,000 mm 0,0 UV-I 0 W/m 2,8 C 3,2 C 3,2 km/h (1 Bft) 98,00 %
26.11.2018 07:34 3,2 C 4,4 C 3,3 C 97 % 1003,7 hPa 0,0 l/m 1,0 km/h (0 Bft) N-NO 19 0 min 0,000 mm 0,0 UV-I 0 W/m 2,8 C 3,2 C 3,2 km/h (1 Bft) 98,11 %
26.11.2018 07:36 3,2 C 4,4 C 3,3 C 97 % 1003,7 hPa 0,0 l/m 1,2 km/h (1 Bft) N-NO 19 0 min 0,000 mm 0,0 UV-I 0 W/m 2,8 C 3,2 C 3,2 km/h (1 Bft) 97,56 %
26.11.2018 07:38 3,2 C 4,4 C 3,3 C 97 % 1003,7 hPa 0,0 l/m 1,4 km/h (1 Bft) N-NO 19 0 min 0,000 mm 0,0 UV-I 2 W/m 2,8 C 3,2 C 3,2 km/h (1 Bft) 96,00 %
26.11.2018 07:40 3,2 C 4,4 C 3,3 C 97 % 1003,7 hPa 0,0 l/m 0,7 km/h (0 Bft) N-NO 19 0 min 0,000 mm 0,0 UV-I 5 W/m 2,8 C 3,2 C 1,6 km/h (1 Bft) 96,15 %
26.11.2018 07:42 3,2 C 4,4 C 3,3 C 97 % 1003,7 hPa 0,0 l/m 1,1 km/h (1 Bft) N-NO 19 0 min 0,000 mm 0,0 UV-I 5 W/m 2,8 C 3,2 C 1,6 km/h (1 Bft) 96,92 %
26.11.2018 07:45 3,2 C 4,4 C 3,3 C 97 % 1003,8 hPa 0,2 l/m 1,2 km/h (1 Bft) N-NO 19 0 min 0,000 mm 0,0 UV-I 5 W/m 2,8 C 3,2 C 3,2 km/h (1 Bft) 93,42 %
26.11.2018 07:46 3,2 C 4,4 C 3,3 C 97 % 1003,8 hPa 0,0 l/m 1,4 km/h (1 Bft) N-NO 19 0 min 0,000 mm 0,0 UV-I 6 W/m 2,8 C 3,2 C 1,6 km/h (1 Bft) 95,83 %
26.11.2018 07:48 3,2 C 4,4 C 3,3 C 97 % 1003,8 hPa 0,0 l/m 0,5 km/h (0 Bft) N-NO 19 0 min 0,000 mm 0,0 UV-I 7 W/m 2,8 C 3,2 C 1,6 km/h (1 Bft) 95,12 %
26.11.2018 07:50 3,2 C 4,4 C 3,3 C 97 % 1003,8 hPa 0,0 l/m 0,4 km/h (0 Bft) N-NO 19 0 min 0,000 mm 0,0 UV-I 7 W/m 2,8 C 3,2 C 1,6 km/h (1 Bft) 96,23 %
26.11.2018 07:52 3,2 C 4,4 C 3,3 C 97 % 1003,9 hPa 0,0 l/m 0,2 km/h (0 Bft) N-NO 19 0 min 0,000 mm 0,0 UV-I 7 W/m 2,8 C 3,2 C 1,6 km/h (1 Bft) 91,43 %
26.11.2018 07:54 3,2 C 4,4 C 3,3 C 97 % 1003,9 hPa 0,2 l/m 0,1 km/h (0 Bft) N-NO 19 0 min 0,000 mm 0,0 UV-I 8 W/m 2,8 C 3,2 C 1,6 km/h (1 Bft) 92,45 %
26.11.2018 07:56 3,2 C 4,4 C 3,3 C 97 % 1003,9 hPa 0,0 l/m 0,7 km/h (0 Bft) N-NO 19 0 min 0,000 mm 0,0 UV-I 9 W/m 2,8 C 3,2 C 1,6 km/h (1 Bft) 94,00 %
26.11.2018 07:58 3,2 C 4,4 C 3,3 C 97 % 1004,0 hPa 0,0 l/m 0,9 km/h (0 Bft) N-NO 19 0 min 0,000 mm 0,0 UV-I 10 W/m 2,8 C 3,2 C 1,6 km/h (1 Bft) 92,11 %
26.11.2018 08:00 3,2 C 4,4 C 3,3 C 97 % 1003,9 hPa 0,0 l/m 0,0 km/h (0 Bft) N-NO 19 0 min 0,000 mm 0,0 UV-I 11 W/m 2,8 C 3,2 C 1,6 km/h (1 Bft) 93,75 %
26.11.2018 08:02 3,2 C 4,4 C 3,3 C 97 % 1004,0 hPa 0,2 l/m 0,0 km/h (0 Bft) N-NO 19 0 min 0,000 mm 0,0 UV-I 11 W/m 2,8 C 3,2 C 0,0 km/h (0 Bft) 93,62 %
26.11.2018 08:04 3,2 C 4,4 C 3,3 C 97 % 1004,0 hPa 0,0 l/m 0,0 km/h (0 Bft) N-NO 19 0 min 0,000 mm 0,0 UV-I 11 W/m 2,8 C 3,2 C 0,0 km/h (0 Bft) 91,49 %
26.11.2018 08:06 3,2 C 4,4 C 3,3 C 97 % 1004,0 hPa 0,0 l/m 0,0 km/h (0 Bft) N-NO 19 0 min 0,000 mm 0,0 UV-I 11 W/m 2,8 C 3,2 C 0,0 km/h (0 Bft) 100,00 %
26.11.2018 08:08 3,3 C 4,4 C 3,3 C 97 % 1004,0 hPa 0,0 l/m 0,1 km/h (0 Bft) N-NO 19 0 min 0,000 mm 0,0 UV-I 11 W/m 2,9 C 3,3 C 1,6 km/h (1 Bft) 98,00 %
26.11.2018 08:10 3,3 C 4,4 C 3,3 C 97 % 1004,0 hPa 0,2 l/m 0,8 km/h (0 Bft) N-NO 19 0 min 0,000 mm 0,0 UV-I 12 W/m 2,9 C 3,3 C 1,6 km/h (1 Bft) 98,11 %
26.11.2018 08:12 3,2 C 4,4 C 3,3 C 97 % 1004,0 hPa 0,0 l/m 0,3 km/h (0 Bft) N-NO 19 0 min 0,000 mm 0,0 UV-I 12 W/m 2,8 C 3,2 C 1,6 km/h (1 Bft) 96,15 %
26.11.2018 08:15 3,2 C 4,4 C 3,3 C 97 % 1004,0 hPa 0,0 l/m 0,8 km/h (0 Bft) N-NO 19 0 min 0,000 mm 0,0 UV-I 12 W/m 2,8 C 3,2 C 3,2 km/h (1 Bft) 97,87 %
26.11.2018 08:16 3,1 C 4,4 C 3,3 C 97 % 1004,0 hPa 0,0 l/m 2,2 km/h (1 Bft) N-NO 19 0 min 0,000 mm 0,0 UV-I 12 W/m 2,7 C 3,1 C 3,2 km/h (1 Bft) 100,00 %
26.11.2018 08:18 3,1 C 4,4 C 3,3 C 97 % 1004,0 hPa 0,0 l/m 0,7 km/h (0 Bft) N-NO 19 0 min 0,000 mm 0,0 UV-I 13 W/m 2,7 C 3,1 C 1,6 km/h (1 Bft) 95,45 %
26.11.2018 08:20 3,1 C 4,4 C 3,3 C 97 % 1004,0 hPa 0,0 l/m 1,7 km/h (1 Bft) N-NO 19 0 min 0,000 mm 0,0 UV-I 14 W/m 2,7 C 3,1 C 3,2 km/h (1 Bft) 96,61 %
26.11.2018 08:22 3,1 C 4,4 C 3,3 C 97 % 1004,1 hPa 0,2 l/m 1,7 km/h (1 Bft) N-NO 19 0 min 0,000 mm 0,0 UV-I 14 W/m 2,7 C 3,1 C 3,2 km/h (1 Bft) 97,14 %
26.11.2018 08:25 3,1 C 4,4 C 3,3 C 97 % 1004,1 hPa 0,0 l/m 1,9 km/h (1 Bft) N-NO 19 0 min 0,000 mm 0,0 UV-I 14 W/m 2,7 C 3,1 C 3,2 km/h (1 Bft) 97,30 %
26.11.2018 08:26 3,1 C 4,4 C 3,3 C 97 % 1004,1 hPa 0,0 l/m 0,8 km/h (0 Bft) N-NO 19 0 min 0,000 mm 0,0 UV-I 14 W/m 2,7 C 3,1 C 1,6 km/h (1 Bft) 96,55 %
26.11.2018 08:28 3,1 C 4,4 C 3,3 C 97 % 1004,1 hPa 0,0 l/m 0,2 km/h (0 Bft) N-NO 19 0 min 0,000 mm 0,0 UV-I 14 W/m 2,7 C 3,1 C 1,6 km/h (1 Bft) 97,87 %
26.11.2018 08:30 3,1 C 4,4 C 3,3 C 97 % 1004,2 hPa 0,2 l/m 1,8 km/h (1 Bft) N 355 0 min 0,000 mm 0,0 UV-I 14 W/m 2,7 C 3,1 C 4,8 km/h (1 Bft) 95,74 %
26.11.2018 08:32 3,1 C 4,4 C 3,3 C 97 % 1004,1 hPa 0,0 l/m 3,5 km/h (1 Bft) N-NW 343 0 min 0,000 mm 0,0 UV-I 15 W/m 2,7 C 3,1 C 4,8 km/h (1 Bft) 97,56 %
26.11.2018 08:35 3,1 C 4,4 C 3,3 C 97 % 1004,2 hPa 0,0 l/m 2,4 km/h (1 Bft) N-NW 344 0 min 0,000 mm 0,0 UV-I 14 W/m 2,7 C 3,1 C 4,8 km/h (1 Bft) 97,40 %
26.11.2018 08:36 3,1 C 4,4 C 3,3 C 97 % 1004,2 hPa 0,0 l/m 1,8 km/h (1 Bft) N-NW 344 0 min 0,000 mm 0,0 UV-I 16 W/m 2,7 C 3,1 C 3,2 km/h (1 Bft) 95,65 %
26.11.2018 08:38 3,1 C 4,4 C 3,3 C 97 % 1004,2 hPa 0,0 l/m 2,0 km/h (1 Bft) N-NW 344 0 min 0,000 mm 0,0 UV-I 15 W/m 2,7 C 3,1 C 4,8 km/h (1 Bft) 100,00 %
26.11.2018 08:40 3,1 C 4,4 C 3,3 C 97 % 1004,2 hPa 0,2 l/m 2,4 km/h (1 Bft) N-NW 344 0 min 0,000 mm 0,0 UV-I 17 W/m 2,7 C 3,1 C 4,8 km/h (1 Bft) 96,23 %
26.11.2018 08:42 3,1 C 4,4 C 3,3 C 97 % 1004,2 hPa 0,0 l/m 2,7 km/h (1 Bft) N-NW 344 0 min 0,000 mm 0,0 UV-I 18 W/m 2,7 C 3,1 C 4,8 km/h (1 Bft) 97,87 %
26.11.2018 08:44 3,1 C 4,4 C 3,3 C 97 % 1004,2 hPa 0,0 l/m 3,9 km/h (1 Bft) N-NW 345 0 min 0,000 mm 0,0 UV-I 19 W/m 2,7 C 3,1 C 4,8 km/h (1 Bft) 98,00 %
26.11.2018 08:46 3,1 C 4,4 C 3,3 C 97 % 1004,3 hPa 0,0 l/m 2,7 km/h (1 Bft) N-NW 345 0 min 0,000 mm 0,0 UV-I 22 W/m 2,7 C 3,1 C 4,8 km/h (1 Bft) 98,00 %
26.11.2018 08:48 3,1 C 4,4 C 3,3 C 97 % 1004,2 hPa 0,0 l/m 3,0 km/h (1 Bft) N-NW 344 0 min 0,000 mm 0,0 UV-I 25 W/m 2,7 C 3,1 C 4,8 km/h (1 Bft) 97,37 %
26.11.2018 08:50 3,1 C 4,4 C 3,3 C 97 % 1004,3 hPa 0,2 l/m 3,7 km/h (1 Bft) N 11 0 min 0,000 mm 0,0 UV-I 25 W/m 2,7 C 3,1 C 4,8 km/h (1 Bft) 98,00 %
26.11.2018 08:52 3,1 C 4,4 C 3,3 C 97 % 1004,3 hPa 0,0 l/m 3,5 km/h (1 Bft) N 10 0 min 0,000 mm 0,0 UV-I 27 W/m 2,7 C 3,1 C 6,4 km/h (2 Bft) 98,00 %
26.11.2018 08:54 3,1 C 4,4 C 3,3 C 97 % 1004,3 hPa 0,0 l/m 3,7 km/h (1 Bft) N-NW 336 0 min 0,000 mm 0,0 UV-I 31 W/m 2,7 C 3,1 C 8,0 km/h (2 Bft) 97,87 %
26.11.2018 08:56 3,1 C 4,4 C 3,3 C 97 % 1004,4 hPa 0,0 l/m 2,6 km/h (1 Bft) N-NW 337 0 min 0,000 mm 0,0 UV-I 33 W/m 2,7 C 3,1 C 4,8 km/h (1 Bft) 97,87 %
26.11.2018 08:58 3,1 C 4,4 C 3,3 C 97 % 1004,3 hPa 0,0 l/m 3,7 km/h (1 Bft) N 355 0 min 0,000 mm 0,0 UV-I 34 W/m 2,7 C 3,1 C 6,4 km/h (2 Bft) 92,11 %
26.11.2018 09:00 3,1 C 4,4 C 3,3 C 97 % 1004,3 hPa 0,0 l/m 5,2 km/h (1 Bft) N-NW 338 0 min 0,000 mm 0,0 UV-I 35 W/m 2,7 C 3,1 C 6,4 km/h (2 Bft) 98,00 %
26.11.2018 09:02 3,0 C 4,4 C 3,3 C 97 % 1004,4 hPa 0,2 l/m 5,9 km/h (2 Bft) N-NW 332 0 min 0,000 mm 0,0 UV-I 38 W/m 2,6 C 3,0 C 9,7 km/h (2 Bft) 97,87 %
26.11.2018 09:04 2,9 C 4,4 C 3,3 C 97 % 1004,4 hPa 0,0 l/m 6,3 km/h (2 Bft) N-NO 12 0 min 0,000 mm 0,0 UV-I 40 W/m 2,5 C 2,9 C 9,7 km/h (2 Bft) 96,00 %
26.11.2018 09:06 2,9 C 4,4 C 3,3 C 97 % 1004,4 hPa 0,0 l/m 5,1 km/h (1 Bft) N 10 0 min 0,000 mm 0,0 UV-I 36 W/m 2,5 C 2,9 C 9,7 km/h (2 Bft) 95,45 %
26.11.2018 09:08 2,9 C 4,4 C 3,3 C 97 % 1004,4 hPa 0,0 l/m 4,0 km/h (1 Bft) N 355 0 min 0,000 mm 0,0 UV-I 29 W/m 2,5 C 2,9 C 6,4 km/h (2 Bft) 94,00 %
26.11.2018 09:10 2,9 C 4,4 C 3,3 C 97 % 1004,5 hPa 0,2 l/m 4,6 km/h (1 Bft) N-NW 344 0 min 0,000 mm 0,0 UV-I 28 W/m 2,5 C 2,9 C 8,0 km/h (2 Bft) 95,45 %
26.11.2018 09:12 2,9 C 4,4 C 3,3 C 97 % 1004,5 hPa 0,0 l/m 5,3 km/h (1 Bft) NO 42 0 min 0,000 mm 0,0 UV-I 28 W/m 2,5 C 2,9 C 6,4 km/h (2 Bft) 96,23 %
26.11.2018 09:14 2,9 C 4,4 C 3,3 C 97 % 1004,5 hPa 0,0 l/m 6,7 km/h (2 Bft) N-NO 26 0 min 0,000 mm 0,0 UV-I 27 W/m 2,5 C 2,6 C 12,9 km/h (3 Bft) 97,56 %
26.11.2018 09:16 2,9 C 4,4 C 3,3 C 97 % 1004,5 hPa 0,0 l/m 6,5 km/h (2 Bft) N 350 0 min 0,000 mm 0,0 UV-I 30 W/m 2,5 C 2,8 C 12,9 km/h (3 Bft) 97,87 %
26.11.2018 09:18 2,8 C 4,4 C 3,3 C 97 % 1004,6 hPa 0,0 l/m 4,1 km/h (1 Bft) N 11 0 min 0,000 mm 0,0 UV-I 30 W/m 2,4 C 2,8 C 6,4 km/h (2 Bft) 97,44 %
26.11.2018 09:20 2,9 C 4,4 C 3,3 C 97 % 1004,6 hPa 0,2 l/m 2,9 km/h (1 Bft) N 11 0 min 0,000 mm 0,0 UV-I 29 W/m 2,5 C 2,9 C 4,8 km/h (1 Bft) 96,23 %
26.11.2018 09:22 2,8 C 4,4 C 3,3 C 97 % 1004,7 hPa 0,0 l/m 3,1 km/h (1 Bft) N-NO 12 0 min 0,000 mm 0,0 UV-I 26 W/m 2,4 C 2,8 C 6,4 km/h (2 Bft) 97,87 %
26.11.2018 09:24 2,8 C 4,4 C 3,3 C 97 % 1004,6 hPa 0,0 l/m 4,5 km/h (1 Bft) N-NW 336 0 min 0,000 mm 0,0 UV-I 26 W/m 2,4 C 2,8 C 6,4 km/h (2 Bft) 100,00 %
26.11.2018 09:26 2,8 C 4,4 C 3,3 C 97 % 1004,7 hPa 0,0 l/m 5,6 km/h (1 Bft) N-NW 336 0 min 0,000 mm 0,0 UV-I 24 W/m 2,4 C 2,8 C 8,0 km/h (2 Bft) 100,00 %
26.11.2018 09:28 2,9 C 4,4 C 3,3 C 97 % 1004,7 hPa 0,2 l/m 5,0 km/h (1 Bft) N-NW 346 0 min 0,000 mm 0,0 UV-I 22 W/m 2,5 C 2,9 C 6,4 km/h (2 Bft) 100,00 %
26.11.2018 09:30 2,8 C 4,4 C 2,8 C 97 % 1004,7 hPa 0,0 l/m 4,4 km/h (1 Bft) N-NW 336 0 min 0,000 mm 0,0 UV-I 21 W/m 2,4 C 2,8 C 6,4 km/h (2 Bft) 97,56 %
26.11.2018 09:32 2,8 C 4,4 C 2,8 C 97 % 1004,8 hPa 0,0 l/m 4,8 km/h (1 Bft) N-NW 345 0 min 0,000 mm 0,0 UV-I 23 W/m 2,4 C 2,8 C 6,4 km/h (2 Bft) 100,00 %
26.11.2018 09:34 2,8 C 4,4 C 2,8 C 97 % 1004,8 hPa 0,0 l/m 3,1 km/h (1 Bft) N-NW 347 0 min 0,000 mm 0,0 UV-I 25 W/m 2,4 C 2,8 C 4,8 km/h (1 Bft) 100,00 %
26.11.2018 09:36 2,8 C 4,4 C 3,3 C 97 % 1004,8 hPa 0,0 l/m 4,3 km/h (1 Bft) N 360 0 min 0,000 mm 0,0 UV-I 27 W/m 2,4 C 2,8 C 8,0 km/h (2 Bft) 97,14 %
26.11.2018 09:38 2,8 C 4,4 C 3,3 C 97 % 1004,8 hPa 0,0 l/m 3,6 km/h (1 Bft) N 5 0 min 0,000 mm 0,0 UV-I 30 W/m 2,4 C 2,8 C 6,4 km/h (2 Bft) 96,43 %
26.11.2018 09:40 2,8 C 4,4 C 3,3 C 97 % 1004,8 hPa 0,2 l/m 5,7 km/h (1 Bft) N 355 0 min 0,000 mm 0,0 UV-I 32 W/m 2,4 C 2,8 C 8,0 km/h (2 Bft) 98,00 %
26.11.2018 09:42 2,8 C 4,4 C 3,3 C 97 % 1004,8 hPa 0,0 l/m 4,5 km/h (1 Bft) N 355 0 min 0,000 mm 0,0 UV-I 31 W/m 2,4 C 2,8 C 8,0 km/h (2 Bft) 97,37 %
26.11.2018 09:44 2,8 C 4,4 C 3,3 C 97 % 1004,8 hPa 0,0 l/m 3,5 km/h (1 Bft) N 9 0 min 0,000 mm 0,0 UV-I 28 W/m 2,4 C 2,8 C 4,8 km/h (1 Bft) 96,00 %
26.11.2018 09:46 2,8 C 4,4 C 3,3 C 97 % 1004,8 hPa 0,0 l/m 2,3 km/h (1 Bft) N 9 0 min 0,000 mm 0,0 UV-I 28 W/m 2,4 C 2,8 C 3,2 km/h (1 Bft) 97,37 %
26.11.2018 09:48 2,8 C 4,4 C 3,3 C 97 % 1004,9 hPa 0,2 l/m 2,6 km/h (1 Bft) N 5 0 min 0,000 mm 0,0 UV-I 28 W/m 2,4 C 2,8 C 4,8 km/h (1 Bft) 98,11 %
26.11.2018 09:50 2,8 C 4,4 C 3,3 C 97 % 1004,8 hPa 0,0 l/m 4,0 km/h (1 Bft) N 5 0 min 0,000 mm 0,0 UV-I 26 W/m 2,4 C 2,8 C 4,8 km/h (1 Bft) 97,87 %
26.11.2018 09:52 2,7 C 4,4 C 2,8 C 97 % 1004,9 hPa 0,0 l/m 3,2 km/h (1 Bft) N 5 0 min 0,000 mm 0,0 UV-I 26 W/m 2,3 C 2,7 C 6,4 km/h (2 Bft) 95,24 %
26.11.2018 09:54 2,8 C 4,4 C 2,8 C 97 % 1004,9 hPa 0,0 l/m 4,2 km/h (1 Bft) N 5 0 min 0,000 mm 0,0 UV-I 26 W/m 2,4 C 2,8 C 4,8 km/h (1 Bft) 98,00 %
26.11.2018 09:56 2,7 C 4,4 C 2,8 C 97 % 1005,0 hPa 0,2 l/m 2,1 km/h (1 Bft) N 5 0 min 0,000 mm 0,0 UV-I 25 W/m 2,3 C 2,7 C 3,2 km/h (1 Bft) 94,00 %
26.11.2018 09:58 2,8 C 4,4 C 3,3 C 97 % 1005,0 hPa 0,0 l/m 1,3 km/h (1 Bft) N 5 0 min 0,000 mm 0,0 UV-I 25 W/m 2,4 C 2,8 C 3,2 km/h (1 Bft) 94,23 %
26.11.2018 10:00 2,8 C 4,4 C 3,3 C 97 % 1005,0 hPa 0,0 l/m 2,0 km/h (1 Bft) N 11 0 min 0,000 mm 0,0 UV-I 25 W/m 2,4 C 2,8 C 3,2 km/h (1 Bft) 94,87 %
26.11.2018 10:02 2,8 C 4,4 C 3,3 C 97 % 1005,0 hPa 0,2 l/m 3,6 km/h (1 Bft) NW 320 0 min 0,000 mm 0,0 UV-I 24 W/m 2,4 C 2,8 C 9,7 km/h (2 Bft) 98,00 %
26.11.2018 10:04 2,7 C 4,4 C 2,8 C 97 % 1005,0 hPa 0,0 l/m 5,9 km/h (2 Bft) N 11 0 min 0,000 mm 0,0 UV-I 27 W/m 2,3 C 2,7 C 8,0 km/h (2 Bft) 97,87 %
26.11.2018 10:06 2,7 C 4,4 C 2,8 C 97 % 1005,0 hPa 0,0 l/m 3,5 km/h (1 Bft) N 350 0 min 0,000 mm 0,0 UV-I 28 W/m 2,3 C 2,7 C 6,4 km/h (2 Bft) 98,00 %
26.11.2018 10:08 2,7 C 4,4 C 2,8 C 97 % 1005,0 hPa 0,0 l/m 4,5 km/h (1 Bft) N-NW 327 0 min 0,000 mm 0,0 UV-I 26 W/m 2,3 C 2,7 C 6,4 km/h (2 Bft) 97,73 %
26.11.2018 10:10 2,7 C 4,4 C 2,8 C 97 % 1005,0 hPa 0,2 l/m 3,4 km/h (1 Bft) N-NW 332 0 min 0,000 mm 0,0 UV-I 27 W/m 2,3 C 2,7 C 4,8 km/h (1 Bft) 100,00 %
26.11.2018 10:12 2,7 C 4,4 C 2,8 C 97 % 1005,1 hPa 0,0 l/m 3,1 km/h (1 Bft) N 5 0 min 0,000 mm 0,0 UV-I 28 W/m 2,3 C 2,7 C 4,8 km/h (1 Bft) 97,37 %
26.11.2018 10:14 2,7 C 4,4 C 2,8 C 97 % 1005,1 hPa 0,0 l/m 4,5 km/h (1 Bft) N 355 0 min 0,000 mm 0,0 UV-I 30 W/m 2,3 C 2,7 C 6,4 km/h (2 Bft) 96,23 %
26.11.2018 10:16 2,7 C 4,4 C 2,8 C 97 % 1005,1 hPa 0,0 l/m 4,2 km/h (1 Bft) N 11 0 min 0,000 mm 0,0 UV-I 28 W/m 2,3 C 2,7 C 6,4 km/h (2 Bft) 97,73 %
26.11.2018 10:18 2,7 C 4,4 C 2,8 C 97 % 1005,1 hPa 0,2 l/m 4,5 km/h (1 Bft) NW 317 0 min 0,000 mm 0,0 UV-I 27 W/m 2,3 C 2,7 C 9,7 km/h (2 Bft) 100,00 %
26.11.2018 10:20 2,6 C 4,4 C 2,8 C 97 % 1005,1 hPa 0,0 l/m 5,2 km/h (1 Bft) N 355 0 min 0,000 mm 0,0 UV-I 29 W/m 2,2 C 2,6 C 8,0 km/h (2 Bft) 97,56 %
26.11.2018 10:22 2,6 C 4,4 C 2,8 C 97 % 1005,2 hPa 0,0 l/m 4,8 km/h (1 Bft) N-NO 32 0 min 0,000 mm 0,0 UV-I 32 W/m 2,2 C 2,6 C 6,4 km/h (2 Bft) 97,56 %
26.11.2018 10:24 2,6 C 4,4 C 2,8 C 97 % 1005,2 hPa 0,0 l/m 3,6 km/h (1 Bft) NO 37 0 min 0,000 mm 0,0 UV-I 32 W/m 2,2 C 2,6 C 4,8 km/h (1 Bft) 98,00 %
26.11.2018 10:26 2,6 C 4,4 C 2,8 C 97 % 1005,2 hPa 0,2 l/m 5,6 km/h (1 Bft) N 9 0 min 0,000 mm 0,0 UV-I 32 W/m 2,2 C 2,6 C 11,3 km/h (2 Bft) 98,00 %
26.11.2018 10:28 2,6 C 4,4 C 2,8 C 97 % 1005,1 hPa 0,0 l/m 4,1 km/h (1 Bft) N 9 0 min 0,000 mm 0,0 UV-I 32 W/m 2,2 C 2,6 C 6,4 km/h (2 Bft) 96,00 %
26.11.2018 10:30 2,6 C 4,4 C 2,8 C 97 % 1005,1 hPa 0,0 l/m 4,8 km/h (1 Bft) N-NO 30 0 min 0,000 mm 0,0 UV-I 33 W/m 2,2 C 2,6 C 6,4 km/h (2 Bft) 96,00 %
26.11.2018 10:32 2,6 C 4,4 C 2,8 C 97 % 1005,2 hPa 0,0 l/m 6,5 km/h (2 Bft) N-NO 13 0 min 0,000 mm 0,0 UV-I 31 W/m 2,2 C 2,5 C 11,3 km/h (2 Bft) 95,74 %
26.11.2018 10:34 2,6 C 4,4 C 2,8 C 97 % 1005,2 hPa 0,0 l/m 6,9 km/h (2 Bft) N 360 0 min 0,000 mm 0,0 UV-I 29 W/m 2,2 C 2,1 C 11,3 km/h (2 Bft) 97,56 %
26.11.2018 10:36 2,6 C 4,4 C 2,8 C 97 % 1005,2 hPa 0,0 l/m 3,5 km/h (1 Bft) NW 324 0 min 0,000 mm 0,0 UV-I 26 W/m 2,2 C 2,6 C 4,8 km/h (1 Bft) 94,00 %
26.11.2018 10:38 2,5 C 4,4 C 2,8 C 97 % 1005,2 hPa 0,2 l/m 3,4 km/h (1 Bft) N 355 0 min 0,000 mm 0,0 UV-I 26 W/m 2,1 C 2,5 C 6,4 km/h (2 Bft) 97,44 %
26.11.2018 10:40 2,5 C 4,4 C 2,8 C 97 % 1005,2 hPa 0,0 l/m 5,4 km/h (1 Bft) N-NO 13 0 min 0,000 mm 0,0 UV-I 28 W/m 2,1 C 2,5 C 8,0 km/h (2 Bft) 100,00 %
26.11.2018 10:42 2,5 C 4,4 C 2,8 C 97 % 1005,2 hPa 0,0 l/m 4,3 km/h (1 Bft) N 9 0 min 0,000 mm 0,0 UV-I 27 W/m 2,1 C 2,5 C 6,4 km/h (2 Bft) 100,00 %
26.11.2018 10:44 2,5 C 4,4 C 2,8 C 97 % 1005,2 hPa 0,0 l/m 3,5 km/h (1 Bft) N 5 0 min 0,000 mm 0,0 UV-I 28 W/m 2,1 C 2,5 C 6,4 km/h (2 Bft) 97,87 %
26.11.2018 10:46 2,5 C 4,4 C 2,8 C 97 % 1005,2 hPa 0,0 l/m 2,4 km/h (1 Bft) N 5 0 min 0,000 mm 0,0 UV-I 29 W/m 2,1 C 2,5 C 4,8 km/h (1 Bft) 100,00 %
26.11.2018 10:49 2,4 C 4,4 C 2,8 C 97 % 1005,2 hPa 0,2 l/m 2,2 km/h (1 Bft) N 5 0 min 0,000 mm 0,0 UV-I 34 W/m 2,0 C 2,4 C 4,8 km/h (1 Bft) 98,44 %
26.11.2018 10:50 2,4 C 4,4 C 2,8 C 97 % 1005,2 hPa 0,0 l/m 4,2 km/h (1 Bft) N 5 0 min 0,000 mm 0,0 UV-I 37 W/m 2,0 C 2,4 C 6,4 km/h (2 Bft) 100,00 %
26.11.2018 10:52 2,4 C 4,4 C 2,8 C 97 % 1005,2 hPa 0,2 l/m 6,2 km/h (2 Bft) NO 38 0 min 0,000 mm 0,0 UV-I 39 W/m 2,0 C 2,4 C 9,7 km/h (2 Bft) 100,00 %
26.11.2018 10:54 2,4 C 4,4 C 2,8 C 97 % 1005,2 hPa 0,0 l/m 5,7 km/h (1 Bft) N-NO 23 0 min 0,000 mm 0,0 UV-I 38 W/m 2,0 C 2,4 C 8,0 km/h (2 Bft) 100,00 %
26.11.2018 10:56 2,4 C 4,4 C 2,8 C 97 % 1005,2 hPa 0,0 l/m 4,7 km/h (1 Bft) N-NO 22 0 min 0,000 mm 0,0 UV-I 37 W/m 2,0 C 2,4 C 8,0 km/h (2 Bft) 100,00 %
26.11.2018 10:58 2,4 C 4,4 C 2,8 C 96 % 1005,2 hPa 0,2 l/m 4,5 km/h (1 Bft) N 5 0 min 0,000 mm 0,0 UV-I 36 W/m 1,8 C 2,4 C 6,4 km/h (2 Bft) 100,00 %
26.11.2018 11:00 2,4 C 4,4 C 2,8 C 97 % 1005,2 hPa 0,0 l/m 5,0 km/h (1 Bft) N 5 0 min 0,000 mm 0,0 UV-I 37 W/m 2,0 C 2,4 C 6,4 km/h (2 Bft) 100,00 %
26.11.2018 11:02 2,4 C 4,4 C 2,8 C 96 % 1005,2 hPa 0,2 l/m 4,9 km/h (1 Bft) N 9 0 min 0,000 mm 0,0 UV-I 39 W/m 1,8 C 2,4 C 8,0 km/h (2 Bft) 98,46 %
26.11.2018 11:04 2,3 C 4,4 C 2,8 C 96 % 1005,2 hPa 0,0 l/m 2,6 km/h (1 Bft) N 10 0 min 0,000 mm 0,0 UV-I 38 W/m 1,7 C 2,3 C 6,4 km/h (2 Bft) 94,74 %
26.11.2018 11:06 2,3 C 4,4 C 2,8 C 96 % 1005,2 hPa 0,0 l/m 1,5 km/h (1 Bft) N 10 0 min 0,000 mm 0,0 UV-I 36 W/m 1,7 C 2,3 C 3,2 km/h (1 Bft) 100,00 %
26.11.2018 11:08 2,3 C 4,4 C 2,8 C 96 % 1005,1 hPa 0,2 l/m 3,1 km/h (1 Bft) N 355 0 min 0,000 mm 0,0 UV-I 33 W/m 1,7 C 2,3 C 4,8 km/h (1 Bft) 100,00 %
26.11.2018 11:10 2,3 C 4,4 C 2,2 C 96 % 1005,1 hPa 0,0 l/m 2,8 km/h (1 Bft) N 355 0 min 0,000 mm 0,0 UV-I 32 W/m 1,7 C 2,3 C 4,8 km/h (1 Bft) 97,87 %
26.11.2018 11:12 2,2 C 4,4 C 2,2 C 96 % 1005,1 hPa 0,0 l/m 1,8 km/h (1 Bft) N 355 0 min 0,000 mm 0,0 UV-I 31 W/m 1,6 C 2,2 C 3,2 km/h (1 Bft) 100,00 %
26.11.2018 11:14 2,2 C 4,4 C 2,2 C 96 % 1005,2 hPa 0,0 l/m 1,6 km/h (1 Bft) N 355 0 min 0,000 mm 0,0 UV-I 30 W/m 1,6 C 2,2 C 3,2 km/h (1 Bft) 96,88 %
26.11.2018 11:16 2,2 C 4,4 C 2,2 C 96 % 1005,1 hPa 0,0 l/m 2,4 km/h (1 Bft) N 355 0 min 0,000 mm 0,0 UV-I 29 W/m 1,6 C 2,2 C 4,8 km/h (1 Bft) 100,00 %
26.11.2018 11:18 2,2 C 4,4 C 2,2 C 96 % 1005,2 hPa 0,2 l/m 2,3 km/h (1 Bft) N 355 0 min 0,000 mm 0,0 UV-I 27 W/m 1,6 C 2,2 C 3,2 km/h (1 Bft) 100,00 %
26.11.2018 11:20 2,1 C 4,4 C 2,2 C 96 % 1005,2 hPa 0,0 l/m 1,7 km/h (1 Bft) N 355 0 min 0,000 mm 0,0 UV-I 26 W/m 1,5 C 2,1 C 3,2 km/h (1 Bft) 100,00 %
26.11.2018 11:22 2,1 C 4,4 C 2,2 C 96 % 1005,1 hPa 0,0 l/m 2,7 km/h (1 Bft) NW 317 0 min 0,000 mm 0,0 UV-I 28 W/m 1,5 C 2,1 C 4,8 km/h (1 Bft) 100,00 %
26.11.2018 11:24 2,0 C 4,4 C 2,2 C 96 % 1005,2 hPa 0,0 l/m 1,8 km/h (1 Bft) NW 317 0 min 0,000 mm 0,0 UV-I 31 W/m 1,4 C 2,0 C 3,2 km/h (1 Bft) 100,00 %
26.11.2018 11:26 2,0 C 4,4 C 2,2 C 96 % 1005,1 hPa 0,0 l/m 1,7 km/h (1 Bft) NW 317 0 min 0,000 mm 0,0 UV-I 32 W/m 1,4 C 2,0 C 3,2 km/h (1 Bft) 98,00 %
26.11.2018 11:28 2,0 C 4,4 C 2,2 C 96 % 1005,1 hPa 0,2 l/m 0,6 km/h (0 Bft) NW 317 0 min 0,000 mm 0,0 UV-I 31 W/m 1,4 C 2,0 C 1,6 km/h (1 Bft) 100,00 %
26.11.2018 11:30 1,9 C 4,4 C 2,2 C 96 % 1005,1 hPa 0,0 l/m 0,1 km/h (0 Bft) NW 317 0 min 0,000 mm 0,0 UV-I 30 W/m 1,3 C 1,9 C 1,6 km/h (1 Bft) 97,87 %
26.11.2018 11:32 1,9 C 4,4 C 2,2 C 96 % 1005,1 hPa 0,0 l/m 1,2 km/h (1 Bft) NW 317 0 min 0,000 mm 0,0 UV-I 30 W/m 1,3 C 1,9 C 1,6 km/h (1 Bft) 100,00 %
26.11.2018 11:34 1,9 C 4,4 C 2,2 C 96 % 1005,1 hPa 0,0 l/m 3,0 km/h (1 Bft) N 5 0 min 0,000 mm 0,0 UV-I 28 W/m 1,3 C 1,9 C 4,8 km/h (1 Bft) 98,00 %
26.11.2018 11:36 1,8 C 4,4 C 2,2 C 97 % 1005,1 hPa 0,2 l/m 2,2 km/h (1 Bft) N 5 0 min 0,000 mm 0,0 UV-I 31 W/m 1,4 C 1,8 C 3,2 km/h (1 Bft) 96,23 %
26.11.2018 11:38 1,8 C 4,4 C 2,2 C 97 % 1005,1 hPa 0,0 l/m 1,2 km/h (1 Bft) N 5 0 min 0,000 mm 0,0 UV-I 32 W/m 1,4 C 1,8 C 3,2 km/h (1 Bft) 94,74 %
26.11.2018 11:40 1,8 C 4,4 C 1,7 C 97 % 1005,1 hPa 0,0 l/m 2,7 km/h (1 Bft) N 5 0 min 0,000 mm 0,0 UV-I 33 W/m 1,4 C 1,8 C 3,2 km/h (1 Bft) 93,62 %
26.11.2018 11:45 1,7 C 4,4 C 2,2 C 96 % 1005,1 hPa 0,0 l/m 1,6 km/h (1 Bft) N 360 0 min 0,000 mm 0,0 UV-I 34 W/m 1,1 C 1,7 C 4,8 km/h (1 Bft) 98,25 %
26.11.2018 11:50 1,7 C 4,4 C 1,7 C 96 % 1005,1 hPa 0,2 l/m 1,6 km/h (1 Bft) N 360 0 min 0,000 mm 0,0 UV-I 30 W/m 1,1 C 1,7 C 3,2 km/h (1 Bft) 99,12 %
26.11.2018 11:55 1,6 C 4,4 C 1,7 C 96 % 1005,1 hPa 0,0 l/m 1,6 km/h (1 Bft) N 360 0 min 0,000 mm 0,0 UV-I 28 W/m 1,0 C 1,6 C 3,2 km/h (1 Bft) 100,00 %
26.11.2018 12:00 1,5 C 4,4 C 1,7 C 97 % 1005,1 hPa 0,2 l/m 1,6 km/h (1 Bft) N 360 0 min 0,000 mm 0,0 UV-I 29 W/m 1,1 C 1,5 C 1,6 km/h (1 Bft) 100,00 %
26.11.2018 12:06 1,4 C 4,4 C 0,6 C 96 % 1005,2 hPa 0,0 l/m 0,3 km/h (0 Bft) N 5 0 min 0,000 mm 0,0 UV-I 30 W/m 0,8 C 1,4 C 1,6 km/h (1 Bft) 100,00 %
26.11.2018 12:08 1,3 C 4,4 C 0,6 C 96 % 1005,1 hPa 0,0 l/m 0,4 km/h (0 Bft) N 5 0 min 0,000 mm 0,0 UV-I 30 W/m 0,7 C 1,3 C 1,6 km/h (1 Bft) 96,23 %
26.11.2018 12:10 1,3 C 4,4 C 0,6 C 96 % 1005,1 hPa 0,2 l/m 1,4 km/h (1 Bft) N 5 0 min 0,000 mm 0,0 UV-I 30 W/m 0,7 C 1,3 C 3,2 km/h (1 Bft) 97,37 %
26.11.2018 12:12 1,3 C 4,4 C 0,6 C 96 % 1005,1 hPa 0,0 l/m 1,1 km/h (1 Bft) N 5 0 min 0,000 mm 0,0 UV-I 30 W/m 0,7 C 1,3 C 1,6 km/h (1 Bft) 96,23 %
26.11.2018 12:14 1,2 C 4,4 C 0,6 C 97 % 1005,1 hPa 0,0 l/m 1,2 km/h (1 Bft) N 5 0 min 0,000 mm 0,0 UV-I 30 W/m 0,8 C 1,2 C 1,6 km/h (1 Bft) 96,00 %
26.11.2018 12:16 1,2 C 4,4 C 0,6 C 96 % 1005,1 hPa 0,0 l/m 1,7 km/h (1 Bft) N 5 0 min 0,000 mm 0,0 UV-I 28 W/m 0,6 C 1,2 C 3,2 km/h (1 Bft) 97,22 %
26.11.2018 12:18 1,2 C 4,4 C 0,6 C 96 % 1005,1 hPa 0,2 l/m 1,4 km/h (1 Bft) N 5 0 min 0,000 mm 0,0 UV-I 28 W/m 0,6 C 1,2 C 3,2 km/h (1 Bft) 98,00 %
26.11.2018 12:20 1,1 C 4,4 C 0,0 C 96 % 1005,1 hPa 0,0 l/m 2,4 km/h (1 Bft) N 5 0 min 0,000 mm 0,0 UV-I 28 W/m 0,5 C 1,1 C 3,2 km/h (1 Bft) 98,00 %
26.11.2018 12:22 1,0 C 4,4 C 0,0 C 96 % 1005,1 hPa 0,0 l/m 2,7 km/h (1 Bft) N 5 0 min 0,000 mm 0,0 UV-I 29 W/m 0,4 C 1,0 C 3,2 km/h (1 Bft) 97,96 %
26.11.2018 12:24 0,9 C 4,4 C 0,0 C 96 % 1005,1 hPa 0,0 l/m 2,6 km/h (1 Bft) N 9 0 min 0,000 mm 0,0 UV-I 30 W/m 0,3 C 0,9 C 3,2 km/h (1 Bft) 97,44 %
26.11.2018 12:26 0,7 C 4,4 C 0,0 C 96 % 1005,1 hPa 0,0 l/m 3,2 km/h (1 Bft) SW 219 0 min 0,000 mm 0,0 UV-I 30 W/m 0,1 C 0,7 C 4,8 km/h (1 Bft) 98,00 %
26.11.2018 12:28 0,7 C 4,4 C 0,0 C 96 % 1005,1 hPa 0,2 l/m 3,3 km/h (1 Bft) SW 219 0 min 0,000 mm 0,0 UV-I 31 W/m 0,1 C 0,7 C 4,8 km/h (1 Bft) 98,00 %
26.11.2018 12:30 0,6 C 4,4 C 0,0 C 96 % 1005,1 hPa 0,0 l/m 2,8 km/h (1 Bft) SW 219 0 min 0,000 mm 0,0 UV-I 31 W/m 0,0 C 0,6 C 3,2 km/h (1 Bft) 97,37 %
26.11.2018 12:32 0,6 C 4,4 C 0,0 C 97 % 1005,1 hPa 0,0 l/m 2,9 km/h (1 Bft) SW 219 0 min 0,000 mm 0,0 UV-I 32 W/m 0,2 C 0,6 C 3,2 km/h (1 Bft) 98,21 %
26.11.2018 12:34 0,6 C 4,4 C 0,0 C 97 % 1005,1 hPa 0,0 l/m 2,6 km/h (1 Bft) SW 219 0 min 0,000 mm 0,0 UV-I 32 W/m 0,2 C 0,6 C 3,2 km/h (1 Bft) 97,37 %
26.11.2018 12:36 0,6 C 4,4 C 0,0 C 97 % 1005,1 hPa 0,0 l/m 2,1 km/h (1 Bft) SW 219 0 min 0,000 mm 0,0 UV-I 32 W/m 0,2 C 0,6 C 3,2 km/h (1 Bft) 96,23 %
26.11.2018 12:38 0,6 C 4,4 C 0,0 C 97 % 1005,1 hPa 0,2 l/m 1,7 km/h (1 Bft) SW 219 0 min 0,000 mm 0,0 UV-I 32 W/m 0,2 C 0,6 C 3,2 km/h (1 Bft) 97,87 %
26.11.2018 12:40 0,5 C 4,4 C 0,0 C 97 % 1005,1 hPa 0,0 l/m 2,1 km/h (1 Bft) SW 219 0 min 0,000 mm 0,0 UV-I 33 W/m 0,1 C 0,5 C 3,2 km/h (1 Bft) 96,00 %
26.11.2018 12:42 0,4 C 4,4 C 0,0 C 97 % 1005,2 hPa 0,0 l/m 2,1 km/h (1 Bft) SW 219 0 min 0,000 mm 0,0 UV-I 33 W/m -0,0 C 0,4 C 3,2 km/h (1 Bft) 95,74 %
26.11.2018 12:44 0,4 C 4,4 C 0,0 C 97 % 1005,1 hPa 0,2 l/m 1,9 km/h (1 Bft) SW 219 0 min 0,000 mm 0,0 UV-I 32 W/m -0,0 C 0,4 C 3,2 km/h (1 Bft) 97,56 %
26.11.2018 12:46 0,4 C 4,4 C 0,0 C 97 % 1005,1 hPa 0,0 l/m 2,1 km/h (1 Bft) SW 219 0 min 0,000 mm 0,0 UV-I 30 W/m -0,0 C 0,4 C 3,2 km/h (1 Bft) 98,00 %
26.11.2018 12:48 0,4 C 4,4 C 0,0 C 97 % 1005,1 hPa 0,2 l/m 2,0 km/h (1 Bft) SW 219 0 min 0,000 mm 0,0 UV-I 29 W/m -0,0 C 0,4 C 3,2 km/h (1 Bft) 96,30 %
26.11.2018 12:50 0,4 C 4,4 C 0,0 C 97 % 1005,1 hPa 0,0 l/m 2,1 km/h (1 Bft) SW 219 0 min 0,000 mm 0,0 UV-I 28 W/m -0,0 C 0,4 C 3,2 km/h (1 Bft) 97,01 %
26.11.2018 12:52 0,4 C 4,4 C 0,0 C 97 % 1005,1 hPa 0,0 l/m 2,1 km/h (1 Bft) SW 219 0 min 0,000 mm 0,0 UV-I 26 W/m -0,0 C 0,4 C 3,2 km/h (1 Bft) 93,62 %
26.11.2018 12:54 0,4 C 4,4 C 0,0 C 97 % 1005,1 hPa 0,0 l/m 2,1 km/h (1 Bft) SW 219 0 min 0,000 mm 0,0 UV-I 26 W/m -0,0 C 0,4 C 3,2 km/h (1 Bft) 94,34 %
26.11.2018 12:56 0,4 C 4,4 C 0,0 C 97 % 1005,1 hPa 0,2 l/m 2,0 km/h (1 Bft) SW 219 0 min 0,000 mm 0,0 UV-I 26 W/m -0,0 C 0,4 C 3,2 km/h (1 Bft) 97,44 %
26.11.2018 12:58 0,4 C 4,4 C 0,0 C 97 % 1005,1 hPa 0,0 l/m 2,4 km/h (1 Bft) SW 219 0 min 0,000 mm 0,0 UV-I 28 W/m -0,0 C 0,4 C 4,8 km/h (1 Bft) 94,00 %
26.11.2018 13:00 0,4 C 4,4 C 0,0 C 97 % 1005,1 hPa 0,2 l/m 2,3 km/h (1 Bft) SW 219 0 min 0,000 mm 0,0 UV-I 26 W/m -0,0 C 0,4 C 3,2 km/h (1 Bft) 96,00 %
26.11.2018 13:02 0,4 C 4,4 C 0,0 C 97 % 1005,1 hPa 0,0 l/m 2,7 km/h (1 Bft) SW 219 0 min 0,000 mm 0,0 UV-I 26 W/m -0,0 C 0,4 C 3,2 km/h (1 Bft) 94,74 %
26.11.2018 13:04 0,4 C 4,4 C 0,0 C 97 % 1005,1 hPa 0,0 l/m 2,9 km/h (1 Bft) SW 219 0 min 0,000 mm 0,0 UV-I 26 W/m -0,0 C 0,4 C 4,8 km/h (1 Bft) 96,43 %
26.11.2018 13:06 0,4 C 4,4 C 0,0 C 97 % 1005,1 hPa 0,0 l/m 2,7 km/h (1 Bft) SW 219 0 min 0,000 mm 0,0 UV-I 25 W/m -0,0 C 0,4 C 3,2 km/h (1 Bft) 94,29 %
26.11.2018 13:08 0,3 C 4,4 C 0,0 C 97 % 1005,1 hPa 0,0 l/m 2,5 km/h (1 Bft) SW 219 0 min 0,000 mm 0,0 UV-I 25 W/m -0,1 C 0,3 C 4,8 km/h (1 Bft) 98,08 %
26.11.2018 13:10 0,3 C 4,4 C 0,0 C 97 % 1005,1 hPa 0,2 l/m 2,5 km/h (1 Bft) SW 219 0 min 0,000 mm 0,0 UV-I 25 W/m -0,1 C 0,3 C 4,8 km/h (1 Bft) 97,87 %
26.11.2018 13:12 0,3 C 4,4 C 0,0 C 97 % 1005,1 hPa 0,0 l/m 2,8 km/h (1 Bft) SW 219 0 min 0,000 mm 0,0 UV-I 25 W/m -0,1 C 0,3 C 4,8 km/h (1 Bft) 98,00 %
26.11.2018 13:14 0,3 C 4,4 C 0,0 C 97 % 1005,1 hPa 0,0 l/m 3,0 km/h (1 Bft) SW 219 0 min 0,000 mm 0,0 UV-I 25 W/m -0,1 C 0,3 C 4,8 km/h (1 Bft) 95,12 %
26.11.2018 13:16 0,3 C 4,4 C 0,0 C 97 % 1005,1 hPa 0,0 l/m 3,1 km/h (1 Bft) SW 219 0 min 0,000 mm 0,0 UV-I 25 W/m -0,1 C 0,3 C 4,8 km/h (1 Bft) 100,00 %
26.11.2018 13:18 0,3 C 4,4 C 0,0 C 97 % 1005,1 hPa 0,2 l/m 3,2 km/h (1 Bft) SW 219 0 min 0,000 mm 0,0 UV-I 25 W/m -0,1 C 0,3 C 4,8 km/h (1 Bft) 100,00 %
26.11.2018 13:20 0,3 C 4,4 C 0,0 C 97 % 1005,2 hPa 0,0 l/m 2,6 km/h (1 Bft) SW 219 0 min 0,000 mm 0,0 UV-I 25 W/m -0,1 C 0,3 C 4,8 km/h (1 Bft) 98,21 %
26.11.2018 13:22 0,3 C 4,4 C 0,0 C 97 % 1005,2 hPa 0,0 l/m 2,2 km/h (1 Bft) SW 219 0 min 0,000 mm 0,0 UV-I 25 W/m -0,1 C 0,3 C 3,2 km/h (1 Bft) 100,00 %
26.11.2018 13:24 0,4 C 4,4 C 0,0 C 97 % 1005,2 hPa 0,0 l/m 3,0 km/h (1 Bft) SW 219 0 min 0,000 mm 0,0 UV-I 25 W/m -0,0 C 0,4 C 4,8 km/h (1 Bft) 100,00 %
26.11.2018 13:26 0,4 C 4,4 C 0,0 C 97 % 1005,1 hPa 0,2 l/m 3,1 km/h (1 Bft) SW 219 0 min 0,000 mm 0,0 UV-I 23 W/m -0,0 C 0,4 C 4,8 km/h (1 Bft) 100,00 %
26.11.2018 13:28 0,3 C 4,4 C 0,0 C 97 % 1005,2 hPa 0,0 l/m 2,4 km/h (1 Bft) SW 219 0 min 0,000 mm 0,0 UV-I 23 W/m -0,1 C 0,3 C 3,2 km/h (1 Bft) 97,87 %
26.11.2018 13:30 0,3 C 4,4 C 0,0 C 97 % 1005,1 hPa 0,0 l/m 2,7 km/h (1 Bft) SW 219 0 min 0,000 mm 0,0 UV-I 23 W/m -0,1 C 0,3 C 4,8 km/h (1 Bft) 100,00 %
26.11.2018 13:32 0,4 C 4,4 C 0,0 C 97 % 1005,2 hPa 0,2 l/m 2,5 km/h (1 Bft) SW 219 0 min 0,000 mm 0,0 UV-I 23 W/m -0,0 C 0,4 C 3,2 km/h (1 Bft) 100,00 %
26.11.2018 13:34 0,3 C 4,4 C 0,0 C 97 % 1005,2 hPa 0,0 l/m 2,7 km/h (1 Bft) SW 219 0 min 0,000 mm 0,0 UV-I 21 W/m -0,1 C 0,3 C 4,8 km/h (1 Bft) 100,00 %
26.11.2018 13:36 0,3 C 4,4 C 0,0 C 97 % 1005,2 hPa 0,0 l/m 2,7 km/h (1 Bft) SW 219 0 min 0,000 mm 0,0 UV-I 21 W/m -0,1 C 0,3 C 4,8 km/h (1 Bft) 100,00 %
26.11.2018 13:38 0,3 C 4,4 C 0,0 C 97 % 1005,2 hPa 0,0 l/m 2,7 km/h (1 Bft) SW 219 0 min 0,000 mm 0,0 UV-I 19 W/m -0,1 C 0,3 C 3,2 km/h (1 Bft) 97,87 %
26.11.2018 13:40 0,4 C 4,4 C 0,0 C 97 % 1005,2 hPa 0,0 l/m 2,9 km/h (1 Bft) SW 219 0 min 0,000 mm 0,0 UV-I 19 W/m -0,0 C 0,4 C 4,8 km/h (1 Bft) 95,74 %
26.11.2018 13:42 0,3 C 4,4 C 0,0 C 97 % 1005,2 hPa 0,0 l/m 2,5 km/h (1 Bft) SW 219 0 min 0,000 mm 0,0 UV-I 18 W/m -0,1 C 0,3 C 4,8 km/h (1 Bft) 95,74 %
26.11.2018 13:44 0,4 C 4,4 C 0,0 C 97 % 1005,3 hPa 0,0 l/m 2,8 km/h (1 Bft) SW 219 0 min 0,000 mm 0,0 UV-I 18 W/m -0,0 C 0,4 C 3,2 km/h (1 Bft) 97,87 %
26.11.2018 13:46 0,3 C 4,4 C 0,0 C 97 % 1005,3 hPa 0,0 l/m 3,1 km/h (1 Bft) SW 219 0 min 0,000 mm 0,0 UV-I 18 W/m -0,1 C 0,3 C 4,8 km/h (1 Bft) 96,00 %
26.11.2018 13:48 0,3 C 4,4 C 0,0 C 97 % 1005,2 hPa 0,0 l/m 2,2 km/h (1 Bft) SW 219 0 min 0,000 mm 0,0 UV-I 18 W/m -0,1 C 0,3 C 3,2 km/h (1 Bft) 96,00 %
26.11.2018 13:50 0,3 C 4,4 C 0,0 C 97 % 1005,3 hPa 0,0 l/m 3,2 km/h (1 Bft) SW 225 0 min 0,000 mm 0,0 UV-I 17 W/m -0,1 C 0,3 C 4,8 km/h (1 Bft) 97,37 %
26.11.2018 13:55 0,3 C 4,4 C 0,0 C 97 % 1005,3 hPa 0,2 l/m 1,6 km/h (1 Bft) SW 225 0 min 0,000 mm 0,0 UV-I 16 W/m -0,1 C 0,3 C 4,8 km/h (1 Bft) 99,12 %
26.11.2018 14:00 0,3 C 4,4 C 0,0 C 97 % 1005,4 hPa 0,0 l/m 2,8 km/h (1 Bft) SW 221 0 min 0,000 mm 0,0 UV-I 16 W/m -0,1 C 0,3 C 3,2 km/h (1 Bft) 97,73 %
26.11.2018 14:02 0,4 C 4,4 C 0,0 C 97 % 1005,4 hPa 0,2 l/m 3,2 km/h (1 Bft) SW 221 0 min 0,000 mm 0,0 UV-I 16 W/m -0,0 C 0,4 C 4,8 km/h (1 Bft) 97,87 %
26.11.2018 14:04 0,3 C 4,4 C 0,0 C 97 % 1005,4 hPa 0,0 l/m 2,6 km/h (1 Bft) SW 221 0 min 0,000 mm 0,0 UV-I 16 W/m -0,1 C 0,3 C 3,2 km/h (1 Bft) 92,68 %
26.11.2018 14:06 0,4 C 4,4 C 0,0 C 97 % 1005,4 hPa 0,0 l/m 3,0 km/h (1 Bft) SW 221 0 min 0,000 mm 0,0 UV-I 16 W/m -0,0 C 0,4 C 4,8 km/h (1 Bft) 97,87 %
26.11.2018 14:08 0,4 C 4,4 C 0,0 C 97 % 1005,4 hPa 0,0 l/m 2,7 km/h (1 Bft) SW 221 0 min 0,000 mm 0,0 UV-I 16 W/m -0,0 C 0,4 C 4,8 km/h (1 Bft) 97,87 %
26.11.2018 14:10 0,4 C 4,4 C 0,0 C 97 % 1005,4 hPa 0,0 l/m 2,3 km/h (1 Bft) SW 221 0 min 0,000 mm 0,0 UV-I 16 W/m -0,0 C 0,4 C 3,2 km/h (1 Bft) 95,74 %
26.11.2018 14:12 0,4 C 4,4 C 0,0 C 97 % 1005,4 hPa 0,2 l/m 2,4 km/h (1 Bft) SW 221 0 min 0,000 mm 0,0 UV-I 16 W/m -0,0 C 0,4 C 3,2 km/h (1 Bft) 97,22 %
26.11.2018 14:14 0,4 C 4,4 C 0,0 C 97 % 1005,4 hPa 0,0 l/m 2,6 km/h (1 Bft) SW 222 0 min 0,000 mm 0,0 UV-I 16 W/m -0,0 C 0,4 C 3,2 km/h (1 Bft) 96,36 %
26.11.2018 14:16 0,3 C 4,4 C 0,0 C 97 % 1005,4 hPa 0,0 l/m 2,7 km/h (1 Bft) SW 223 0 min 0,000 mm 0,0 UV-I 14 W/m -0,1 C 0,3 C 4,8 km/h (1 Bft) 96,23 %
26.11.2018 14:18 0,3 C 4,4 C 0,0 C 97 % 1005,5 hPa 0,0 l/m 2,1 km/h (1 Bft) SW 223 0 min 0,000 mm 0,0 UV-I 14 W/m -0,1 C 0,3 C 3,2 km/h (1 Bft) 98,00 %
26.11.2018 14:20 0,3 C 4,4 C 0,0 C 97 % 1005,5 hPa 0,2 l/m 2,4 km/h (1 Bft) SW 223 0 min 0,000 mm 0,0 UV-I 14 W/m -0,1 C 0,3 C 4,8 km/h (1 Bft) 97,44 %
26.11.2018 14:22 0,3 C 4,4 C 0,0 C 98 % 1005,5 hPa 0,0 l/m 3,4 km/h (1 Bft) SW 223 0 min 0,000 mm 0,0 UV-I 14 W/m 0,0 C 0,3 C 4,8 km/h (1 Bft) 98,00 %
26.11.2018 14:24 0,3 C 4,4 C 0,0 C 98 % 1005,5 hPa 0,0 l/m 3,2 km/h (1 Bft) SW 224 0 min 0,000 mm 0,0 UV-I 14 W/m 0,0 C 0,3 C 4,8 km/h (1 Bft) 98,11 %
26.11.2018 14:26 0,3 C 4,4 C 0,0 C 98 % 1005,6 hPa 0,0 l/m 2,9 km/h (1 Bft) SW 225 0 min 0,000 mm 0,0 UV-I 13 W/m 0,0 C 0,3 C 4,8 km/h (1 Bft) 97,37 %
26.11.2018 14:28 0,3 C 4,4 C 0,0 C 98 % 1005,6 hPa 0,0 l/m 2,7 km/h (1 Bft) SW 225 0 min 0,000 mm 0,0 UV-I 12 W/m 0,0 C 0,3 C 4,8 km/h (1 Bft) 98,00 %
26.11.2018 14:30 0,3 C 4,4 C 0,0 C 98 % 1005,6 hPa 0,2 l/m 2,6 km/h (1 Bft) SW 225 0 min 0,000 mm 0,0 UV-I 12 W/m 0,0 C 0,3 C 3,2 km/h (1 Bft) 98,11 %
26.11.2018 14:32 0,3 C 4,4 C 0,0 C 98 % 1005,6 hPa 0,0 l/m 3,2 km/h (1 Bft) SW 225 0 min 0,000 mm 0,0 UV-I 12 W/m 0,0 C 0,3 C 4,8 km/h (1 Bft) 100,00 %
26.11.2018 14:34 0,3 C 4,4 C 0,0 C 98 % 1005,6 hPa 0,0 l/m 2,5 km/h (1 Bft) SW 225 0 min 0,000 mm 0,0 UV-I 12 W/m 0,0 C 0,3 C 4,8 km/h (1 Bft) 100,00 %
26.11.2018 14:36 0,3 C 4,4 C 0,0 C 98 % 1005,6 hPa 0,0 l/m 2,4 km/h (1 Bft) SW 225 0 min 0,000 mm 0,0 UV-I 12 W/m 0,0 C 0,3 C 3,2 km/h (1 Bft) 97,37 %
26.11.2018 14:38 0,3 C 4,4 C 0,0 C 98 % 1005,7 hPa 0,2 l/m 3,0 km/h (1 Bft) SW 225 0 min 0,000 mm 0,0 UV-I 11 W/m 0,0 C 0,3 C 4,8 km/h (1 Bft) 100,00 %
26.11.2018 14:40 0,3 C 4,4 C 0,0 C 98 % 1005,7 hPa 0,0 l/m 2,8 km/h (1 Bft) SW 225 0 min 0,000 mm 0,0 UV-I 11 W/m 0,0 C 0,3 C 4,8 km/h (1 Bft) 100,00 %
26.11.2018 14:42 0,3 C 4,4 C 0,0 C 98 % 1005,7 hPa 0,0 l/m 2,3 km/h (1 Bft) SW 225 0 min 0,000 mm 0,0 UV-I 11 W/m 0,0 C 0,3 C 3,2 km/h (1 Bft) 100,00 %
26.11.2018 14:44 0,3 C 4,4 C 0,0 C 98 % 1005,7 hPa 0,0 l/m 2,4 km/h (1 Bft) SW 225 0 min 0,000 mm 0,0 UV-I 11 W/m 0,0 C 0,3 C 4,8 km/h (1 Bft) 98,00 %
26.11.2018 14:46 0,3 C 4,4 C 0,0 C 98 % 1005,7 hPa 0,0 l/m 2,3 km/h (1 Bft) SW 225 0 min 0,000 mm 0,0 UV-I 11 W/m 0,0 C 0,3 C 4,8 km/h (1 Bft) 100,00 %
26.11.2018 14:48 0,3 C 4,4 C 0,0 C 98 % 1005,7 hPa 0,0 l/m 2,9 km/h (1 Bft) SW 225 0 min 0,000 mm 0,0 UV-I 11 W/m 0,0 C 0,3 C 4,8 km/h (1 Bft) 97,73 %
26.11.2018 14:50 0,3 C 4,4 C 0,0 C 98 % 1005,7 hPa 0,0 l/m 2,6 km/h (1 Bft) SW 227 0 min 0,000 mm 0,0 UV-I 11 W/m 0,0 C 0,3 C 4,8 km/h (1 Bft) 100,00 %
26.11.2018 14:52 0,3 C 4,4 C 0,0 C 98 % 1005,7 hPa 0,2 l/m 2,0 km/h (1 Bft) SW 227 0 min 0,000 mm 0,0 UV-I 11 W/m 0,0 C 0,3 C 3,2 km/h (1 Bft) 100,00 %
26.11.2018 14:54 0,3 C 4,4 C 0,0 C 98 % 1005,8 hPa 0,0 l/m 2,5 km/h (1 Bft) SW 227 0 min 0,000 mm 0,0 UV-I 11 W/m 0,0 C 0,3 C 3,2 km/h (1 Bft) 100,00 %
26.11.2018 14:56 0,3 C 4,4 C 0,0 C 98 % 1005,7 hPa 0,0 l/m 2,7 km/h (1 Bft) SW 227 0 min 0,000 mm 0,0 UV-I 11 W/m 0,0 C 0,3 C 4,8 km/h (1 Bft) 100,00 %
26.11.2018 14:58 0,3 C 4,4 C 0,0 C 98 % 1005,8 hPa 0,0 l/m 2,9 km/h (1 Bft) SW 227 0 min 0,000 mm 0,0 UV-I 11 W/m 0,0 C 0,3 C 4,8 km/h (1 Bft) 100,00 %
26.11.2018 15:00 0,3 C 4,4 C 0,0 C 98 % 1005,8 hPa 0,0 l/m 2,8 km/h (1 Bft) SW 228 0 min 0,000 mm 0,0 UV-I 11 W/m 0,0 C 0,3 C 4,8 km/h (1 Bft) 100,00 %
26.11.2018 15:02 0,3 C 4,4 C 0,0 C 98 % 1005,8 hPa 0,2 l/m 2,7 km/h (1 Bft) SW 228 0 min 0,000 mm 0,0 UV-I 11 W/m 0,0 C 0,3 C 3,2 km/h (1 Bft) 100,00 %
26.11.2018 15:04 0,3 C 4,4 C 0,0 C 98 % 1005,8 hPa 0,0 l/m 2,4 km/h (1 Bft) SW 228 0 min 0,000 mm 0,0 UV-I 11 W/m 0,0 C 0,3 C 4,8 km/h (1 Bft) 98,00 %
26.11.2018 15:06 0,3 C 4,4 C 0,0 C 98 % 1005,8 hPa 0,0 l/m 3,0 km/h (1 Bft) SW 228 0 min 0,000 mm 0,0 UV-I 11 W/m 0,0 C 0,3 C 4,8 km/h (1 Bft) 100,00 %
26.11.2018 15:08 0,3 C 4,4 C 0,0 C 98 % 1005,8 hPa 0,0 l/m 2,0 km/h (1 Bft) SW 228 0 min 0,000 mm 0,0 UV-I 12 W/m 0,0 C 0,3 C 3,2 km/h (1 Bft) 96,00 %
26.11.2018 15:10 0,3 C 4,4 C 0,0 C 98 % 1005,9 hPa 0,0 l/m 2,7 km/h (1 Bft) SW 228 0 min 0,000 mm 0,0 UV-I 11 W/m 0,0 C 0,3 C 3,2 km/h (1 Bft) 97,56 %
26.11.2018 15:12 0,3 C 4,4 C 0,0 C 98 % 1005,9 hPa 0,2 l/m 2,1 km/h (1 Bft) SW 228 0 min 0,000 mm 0,0 UV-I 11 W/m 0,0 C 0,3 C 3,2 km/h (1 Bft) 100,00 %
26.11.2018 15:14 0,3 C 4,4 C 0,0 C 98 % 1005,9 hPa 0,0 l/m 2,1 km/h (1 Bft) SW 228 0 min 0,000 mm 0,0 UV-I 11 W/m 0,0 C 0,3 C 3,2 km/h (1 Bft) 100,00 %
26.11.2018 15:16 0,3 C 4,4 C 0,0 C 98 % 1005,9 hPa 0,0 l/m 2,0 km/h (1 Bft) SW 228 0 min 0,000 mm 0,0 UV-I 11 W/m 0,0 C 0,3 C 3,2 km/h (1 Bft) 98,00 %
26.11.2018 15:18 0,3 C 4,4 C 0,0 C 98 % 1005,9 hPa 0,0 l/m 2,3 km/h (1 Bft) SW 228 0 min 0,000 mm 0,0 UV-I 11 W/m 0,0 C 0,3 C 3,2 km/h (1 Bft) 100,00 %
26.11.2018 15:20 0,3 C 4,4 C 0,0 C 98 % 1005,9 hPa 0,2 l/m 2,5 km/h (1 Bft) SW 228 0 min 0,000 mm 0,0 UV-I 11 W/m 0,0 C 0,3 C 3,2 km/h (1 Bft) 97,87 %
26.11.2018 15:22 0,3 C 4,4 C 0,0 C 98 % 1005,9 hPa 0,0 l/m 2,3 km/h (1 Bft) SW 228 0 min 0,000 mm 0,0 UV-I 11 W/m 0,0 C 0,3 C 3,2 km/h (1 Bft) 98,00 %
26.11.2018 15:24 0,3 C 4,4 C 0,0 C 98 % 1005,9 hPa 0,0 l/m 2,0 km/h (1 Bft) SW 228 0 min 0,000 mm 0,0 UV-I 9 W/m 0,0 C 0,3 C 3,2 km/h (1 Bft) 100,00 %
26.11.2018 15:26 0,3 C 4,4 C 0,0 C 98 % 1006,0 hPa 0,0 l/m 2,4 km/h (1 Bft) SW 229 0 min 0,000 mm 0,0 UV-I 9 W/m 0,0 C 0,3 C 3,2 km/h (1 Bft) 97,87 %
26.11.2018 15:28 0,3 C 4,4 C 0,0 C 98 % 1006,0 hPa 0,0 l/m 2,7 km/h (1 Bft) SW 228 0 min 0,000 mm 0,0 UV-I 9 W/m 0,0 C 0,3 C 4,8 km/h (1 Bft) 95,74 %
26.11.2018 15:30 0,3 C 4,4 C 0,0 C 98 % 1006,0 hPa 0,0 l/m 2,4 km/h (1 Bft) SW 228 0 min 0,000 mm 0,0 UV-I 10 W/m 0,0 C 0,3 C 4,8 km/h (1 Bft) 100,00 %
26.11.2018 15:32 0,3 C 4,4 C 0,0 C 98 % 1006,0 hPa 0,0 l/m 3,0 km/h (1 Bft) SW 227 0 min 0,000 mm 0,0 UV-I 11 W/m 0,0 C 0,3 C 4,8 km/h (1 Bft) 93,62 %
26.11.2018 15:34 0,3 C 4,4 C 0,0 C 98 % 1006,0 hPa 0,2 l/m 2,3 km/h (1 Bft) SW 227 0 min 0,000 mm 0,0 UV-I 11 W/m 0,0 C 0,3 C 3,2 km/h (1 Bft) 96,00 %
26.11.2018 15:36 0,3 C 4,4 C 0,0 C 98 % 1006,0 hPa 0,0 l/m 2,0 km/h (1 Bft) SW 227 0 min 0,000 mm 0,0 UV-I 11 W/m 0,0 C 0,3 C 3,2 km/h (1 Bft) 95,74 %
26.11.2018 15:38 0,3 C 4,4 C 0,0 C 98 % 1006,0 hPa 0,0 l/m 2,6 km/h (1 Bft) SW 227 0 min 0,000 mm 0,0 UV-I 11 W/m 0,0 C 0,3 C 3,2 km/h (1 Bft) 97,87 %
26.11.2018 15:40 0,3 C 4,4 C 0,0 C 98 % 1006,0 hPa 0,0 l/m 3,0 km/h (1 Bft) SW 225 0 min 0,000 mm 0,0 UV-I 10 W/m 0,0 C 0,3 C 4,8 km/h (1 Bft) 92,31 %
26.11.2018 15:42 0,3 C 4,4 C 0,0 C 98 % 1006,1 hPa 0,0 l/m 2,6 km/h (1 Bft) SW 226 0 min 0,000 mm 0,0 UV-I 9 W/m 0,0 C 0,3 C 3,2 km/h (1 Bft) 96,23 %
26.11.2018 15:44 0,3 C 4,4 C 0,0 C 98 % 1006,1 hPa 0,0 l/m 3,2 km/h (1 Bft) SW 227 0 min 0,000 mm 0,0 UV-I 9 W/m 0,0 C 0,3 C 4,8 km/h (1 Bft) 97,37 %
26.11.2018 15:46 0,3 C 4,4 C 0,0 C 98 % 1006,1 hPa 0,0 l/m 2,9 km/h (1 Bft) SW 225 0 min 0,000 mm 0,0 UV-I 9 W/m 0,0 C 0,3 C 4,8 km/h (1 Bft) 94,00 %
26.11.2018 15:48 0,3 C 4,4 C 0,0 C 98 % 1006,1 hPa 0,2 l/m 3,0 km/h (1 Bft) SW 225 0 min 0,000 mm 0,0 UV-I 7 W/m 0,0 C 0,3 C 4,8 km/h (1 Bft) 96,23 %
26.11.2018 15:50 0,3 C 4,4 C 0,0 C 98 % 1006,1 hPa 0,0 l/m 2,5 km/h (1 Bft) SW 217 0 min 0,000 mm 0,0 UV-I 7 W/m 0,0 C 0,3 C 3,2 km/h (1 Bft) 97,37 %
26.11.2018 15:52 0,3 C 4,4 C 0,0 C 98 % 1006,1 hPa 0,0 l/m 2,9 km/h (1 Bft) SW 217 0 min 0,000 mm 0,0 UV-I 7 W/m 0,0 C 0,3 C 4,8 km/h (1 Bft) 98,00 %
26.11.2018 15:54 0,3 C 4,4 C 0,0 C 98 % 1006,1 hPa 0,0 l/m 2,9 km/h (1 Bft) SW 217 0 min 0,000 mm 0,0 UV-I 7 W/m 0,0 C 0,3 C 4,8 km/h (1 Bft) 97,87 %
26.11.2018 15:56 0,3 C 4,4 C 0,0 C 98 % 1006,2 hPa 0,0 l/m 3,0 km/h (1 Bft) SW 217 0 min 0,000 mm 0,0 UV-I 6 W/m 0,0 C 0,3 C 4,8 km/h (1 Bft) 98,00 %
26.11.2018 15:58 0,3 C 4,4 C 0,0 C 98 % 1006,2 hPa 0,0 l/m 2,7 km/h (1 Bft) SW 217 0 min 0,000 mm 0,0 UV-I 5 W/m 0,0 C 0,3 C 4,8 km/h (1 Bft) 97,87 %
26.11.2018 16:00 0,3 C 4,4 C 0,0 C 98 % 1006,2 hPa 0,0 l/m 3,0 km/h (1 Bft) SW 217 0 min 0,000 mm 0,0 UV-I 5 W/m 0,0 C 0,3 C 3,2 km/h (1 Bft) 97,73 %
26.11.2018 16:02 0,3 C 4,4 C 0,0 C 98 % 1006,2 hPa 0,0 l/m 3,0 km/h (1 Bft) SW 217 0 min 0,000 mm 0,0 UV-I 5 W/m 0,0 C 0,3 C 3,2 km/h (1 Bft) 94,34 %
26.11.2018 16:04 0,3 C 4,4 C 0,0 C 98 % 1006,2 hPa 0,0 l/m 3,3 km/h (1 Bft) SW 217 0 min 0,000 mm 0,0 UV-I 5 W/m 0,0 C 0,3 C 4,8 km/h (1 Bft) 97,73 %
26.11.2018 16:06 0,3 C 4,4 C 0,0 C 98 % 1006,2 hPa 0,0 l/m 2,5 km/h (1 Bft) SW 217 0 min 0,000 mm 0,0 UV-I 5 W/m 0,0 C 0,3 C 3,2 km/h (1 Bft) 97,87 %
26.11.2018 16:08 0,3 C 4,4 C 0,0 C 98 % 1006,2 hPa 0,2 l/m 3,1 km/h (1 Bft) SW 217 0 min 0,000 mm 0,0 UV-I 5 W/m 0,0 C 0,3 C 6,4 km/h (2 Bft) 96,00 %
26.11.2018 16:10 0,3 C 4,4 C 0,0 C 98 % 1006,2 hPa 0,0 l/m 3,6 km/h (1 Bft) SW 217 0 min 0,000 mm 0,0 UV-I 5 W/m 0,0 C 0,3 C 4,8 km/h (1 Bft) 97,87 %
26.11.2018 16:12 0,3 C 4,4 C 0,0 C 98 % 1006,3 hPa 0,0 l/m 2,5 km/h (1 Bft) SW 217 0 min 0,000 mm 0,0 UV-I 5 W/m 0,0 C 0,3 C 4,8 km/h (1 Bft) 95,74 %
26.11.2018 16:14 0,3 C 4,4 C 0,0 C 98 % 1006,3 hPa 0,0 l/m 2,6 km/h (1 Bft) SW 217 0 min 0,000 mm 0,0 UV-I 0 W/m 0,0 C 0,3 C 3,2 km/h (1 Bft) 97,44 %
26.11.2018 16:16 0,3 C 4,4 C 0,0 C 98 % 1006,3 hPa 0,0 l/m 2,5 km/h (1 Bft) SW 217 0 min 0,000 mm 0,0 UV-I 0 W/m 0,0 C 0,3 C 3,2 km/h (1 Bft) 97,87 %
26.11.2018 16:18 0,3 C 4,4 C 0,0 C 98 % 1006,3 hPa 0,0 l/m 2,3 km/h (1 Bft) SW 217 0 min 0,000 mm 0,0 UV-I 0 W/m 0,0 C 0,3 C 3,2 km/h (1 Bft) 100,00 %
26.11.2018 16:20 0,3 C 4,4 C 0,0 C 98 % 1006,3 hPa 0,0 l/m 2,7 km/h (1 Bft) SW 218 0 min 0,000 mm 0,0 UV-I 0 W/m 0,0 C 0,3 C 3,2 km/h (1 Bft) 92,68 %
26.11.2018 16:22 0,3 C 4,4 C 0,0 C 98 % 1006,4 hPa 0,0 l/m 2,9 km/h (1 Bft) SW 218 0 min 0,000 mm 0,0 UV-I 0 W/m 0,0 C 0,3 C 4,8 km/h (1 Bft) 98,00 %
26.11.2018 16:24 0,3 C 4,4 C 0,0 C 98 % 1006,4 hPa 0,2 l/m 2,7 km/h (1 Bft) SW 218 0 min 0,000 mm 0,0 UV-I 0 W/m 0,0 C 0,3 C 3,2 km/h (1 Bft) 98,00 %
26.11.2018 16:26 0,3 C 4,4 C 0,0 C 98 % 1006,4 hPa 0,0 l/m 2,8 km/h (1 Bft) SW 218 0 min 0,000 mm 0,0 UV-I 0 W/m 0,0 C 0,3 C 3,2 km/h (1 Bft) 98,00 %
26.11.2018 16:28 0,3 C 4,4 C 0,0 C 98 % 1006,4 hPa 0,0 l/m 2,2 km/h (1 Bft) SW 218 0 min 0,000 mm 0,0 UV-I 0 W/m 0,0 C 0,3 C 3,2 km/h (1 Bft) 95,74 %
26.11.2018 16:30 0,3 C 4,4 C 0,0 C 98 % 1006,4 hPa 0,0 l/m 1,9 km/h (1 Bft) SW 218 0 min 0,000 mm 0,0 UV-I 0 W/m 0,0 C 0,3 C 3,2 km/h (1 Bft) 97,87 %
26.11.2018 16:32 0,3 C 4,4 C 0,0 C 98 % 1006,4 hPa 0,0 l/m 2,6 km/h (1 Bft) SW 218 0 min 0,000 mm 0,0 UV-I 0 W/m 0,0 C 0,3 C 3,2 km/h (1 Bft) 94,74 %
26.11.2018 16:34 0,3 C 4,4 C 0,0 C 98 % 1006,4 hPa 0,0 l/m 2,6 km/h (1 Bft) SW 218 0 min 0,000 mm 0,0 UV-I 0 W/m 0,0 C 0,3 C 4,8 km/h (1 Bft) 96,00 %
26.11.2018 16:36 0,3 C 4,4 C 0,0 C 98 % 1006,5 hPa 0,0 l/m 2,8 km/h (1 Bft) SW 218 0 min 0,000 mm 0,0 UV-I 0 W/m 0,0 C 0,3 C 4,8 km/h (1 Bft) 98,00 %
26.11.2018 16:38 0,4 C 4,4 C 0,0 C 98 % 1006,4 hPa 0,2 l/m 3,0 km/h (1 Bft) SW 218 0 min 0,000 mm 0,0 UV-I 0 W/m 0,1 C 0,4 C 4,8 km/h (1 Bft) 97,37 %
26.11.2018 16:40 0,4 C 4,4 C 0,0 C 98 % 1006,5 hPa 0,0 l/m 3,2 km/h (1 Bft) SW 218 0 min 0,000 mm 0,0 UV-I 0 W/m 0,1 C 0,4 C 4,8 km/h (1 Bft) 97,87 %
26.11.2018 16:42 0,3 C 4,4 C 0,0 C 98 % 1006,5 hPa 0,0 l/m 2,2 km/h (1 Bft) SW 218 0 min 0,000 mm 0,0 UV-I 0 W/m 0,0 C 0,3 C 3,2 km/h (1 Bft) 96,00 %
26.11.2018 16:44 0,3 C 4,4 C 0,0 C 98 % 1006,4 hPa 0,0 l/m 2,0 km/h (1 Bft) SW 218 0 min 0,000 mm 0,0 UV-I 0 W/m 0,0 C 0,3 C 3,2 km/h (1 Bft) 95,74 %
26.11.2018 16:46 0,3 C 4,4 C 0,0 C 98 % 1006,4 hPa 0,0 l/m 2,5 km/h (1 Bft) SW 218 0 min 0,000 mm 0,0 UV-I 0 W/m 0,0 C 0,3 C 3,2 km/h (1 Bft) 94,34 %
26.11.2018 16:48 0,3 C 4,4 C 0,0 C 98 % 1006,5 hPa 0,0 l/m 1,6 km/h (1 Bft) SW 218 0 min 0,000 mm 0,0 UV-I 0 W/m 0,0 C 0,3 C 1,6 km/h (1 Bft) 94,87 %
26.11.2018 16:50 0,3 C 3,9 C 0,0 C 98 % 1006,5 hPa 0,0 l/m 2,0 km/h (1 Bft) SW 218 0 min 0,000 mm 0,0 UV-I 0 W/m 0,0 C 0,3 C 3,2 km/h (1 Bft) 97,56 %
26.11.2018 16:52 0,3 C 3,9 C 0,0 C 98 % 1006,5 hPa 0,2 l/m 2,0 km/h (1 Bft) SW 218 0 min 0,000 mm 0,0 UV-I 0 W/m 0,0 C 0,3 C 3,2 km/h (1 Bft) 94,34 %
26.11.2018 16:54 0,3 C 4,4 C 0,0 C 98 % 1006,5 hPa 0,0 l/m 2,6 km/h (1 Bft) SW 219 0 min 0,000 mm 0,0 UV-I 0 W/m 0,0 C 0,3 C 4,8 km/h (1 Bft) 92,00 %
26.11.2018 16:56 0,3 C 3,9 C 0,0 C 98 % 1006,5 hPa 0,0 l/m 2,0 km/h (1 Bft) SW 219 0 min 0,000 mm 0,0 UV-I 0 W/m 0,0 C 0,3 C 3,2 km/h (1 Bft) 94,00 %
26.11.2018 16:58 0,3 C 4,4 C 0,0 C 98 % 1006,5 hPa 0,0 l/m 2,5 km/h (1 Bft) SW 219 0 min 0,000 mm 0,0 UV-I 0 W/m 0,0 C 0,3 C 3,2 km/h (1 Bft) 95,74 %
26.11.2018 17:00 0,3 C 4,4 C 0,0 C 98 % 1006,6 hPa 0,0 l/m 2,7 km/h (1 Bft) SW 219 0 min 0,000 mm 0,0 UV-I 0 W/m 0,0 C 0,3 C 3,2 km/h (1 Bft) 95,83 %
26.11.2018 17:02 0,3 C 4,4 C 0,0 C 98 % 1006,6 hPa 0,0 l/m 2,1 km/h (1 Bft) SW 219 0 min 0,000 mm 0,0 UV-I 0 W/m 0,0 C 0,3 C 3,2 km/h (1 Bft) 97,87 %
26.11.2018 17:04 0,3 C 3,9 C 0,0 C 98 % 1006,6 hPa 0,0 l/m 2,3 km/h (1 Bft) SW 219 0 min 0,000 mm 0,0 UV-I 0 W/m 0,0 C 0,3 C 3,2 km/h (1 Bft) 97,37 %
26.11.2018 17:06 0,3 C 4,4 C 0,0 C 98 % 1006,6 hPa 0,0 l/m 2,4 km/h (1 Bft) SW 219 0 min 0,000 mm 0,0 UV-I 0 W/m 0,0 C 0,3 C 3,2 km/h (1 Bft) 97,87 %
26.11.2018 17:08 0,3 C 4,4 C 0,0 C 98 % 1006,6 hPa 0,0 l/m 2,0 km/h (1 Bft) SW 219 0 min 0,000 mm 0,0 UV-I 0 W/m 0,0 C 0,3 C 3,2 km/h (1 Bft) 97,87 %
26.11.2018 17:10 0,3 C 4,4 C 0,0 C 98 % 1006,6 hPa 0,0 l/m 2,9 km/h (1 Bft) SW 221 0 min 0,000 mm 0,0 UV-I 0 W/m 0,0 C 0,3 C 4,8 km/h (1 Bft) 98,00 %
26.11.2018 17:12 0,3 C 4,4 C 0,0 C 98 % 1006,6 hPa 0,2 l/m 2,7 km/h (1 Bft) SW 219 0 min 0,000 mm 0,0 UV-I 0 W/m 0,0 C 0,3 C 4,8 km/h (1 Bft) 98,00 %
26.11.2018 17:14 0,3 C 4,4 C 0,0 C 98 % 1006,6 hPa 0,0 l/m 2,4 km/h (1 Bft) SW 229 0 min 0,000 mm 0,0 UV-I 0 W/m 0,0 C 0,3 C 4,8 km/h (1 Bft) 95,74 %
26.11.2018 17:16 0,3 C 3,9 C 0,0 C 98 % 1006,7 hPa 0,0 l/m 2,4 km/h (1 Bft) SW 228 0 min 0,000 mm 0,0 UV-I 0 W/m 0,0 C 0,3 C 3,2 km/h (1 Bft) 100,00 %
26.11.2018 17:18 0,3 C 4,4 C 0,0 C 98 % 1006,8 hPa 0,0 l/m 2,6 km/h (1 Bft) SW 228 0 min 0,000 mm 0,0 UV-I 0 W/m 0,0 C 0,3 C 4,8 km/h (1 Bft) 95,45 %
26.11.2018 17:20 0,3 C 3,9 C 0,0 C 98 % 1006,8 hPa 0,0 l/m 1,7 km/h (1 Bft) SW 229 0 min 0,000 mm 0,0 UV-I 0 W/m 0,0 C 0,3 C 3,2 km/h (1 Bft) 98,00 %
26.11.2018 17:22 0,3 C 4,4 C 0,0 C 98 % 1006,8 hPa 0,0 l/m 2,2 km/h (1 Bft) SW 229 0 min 0,000 mm 0,0 UV-I 0 W/m 0,0 C 0,3 C 3,2 km/h (1 Bft) 96,00 %
26.11.2018 17:24 0,3 C 4,4 C 0,0 C 98 % 1006,8 hPa 0,0 l/m 1,6 km/h (1 Bft) SW 229 0 min 0,000 mm 0,0 UV-I 0 W/m 0,0 C 0,3 C 3,2 km/h (1 Bft) 96,00 %
26.11.2018 17:26 0,3 C 4,4 C 0,0 C 98 % 1006,9 hPa 0,0 l/m 1,8 km/h (1 Bft) SW 228 0 min 0,000 mm 0,0 UV-I 0 W/m 0,0 C 0,3 C 3,2 km/h (1 Bft) 94,87 %
26.11.2018 17:28 0,3 C 4,4 C 0,0 C 98 % 1006,9 hPa 0,2 l/m 1,2 km/h (1 Bft) SW 228 0 min 0,000 mm 0,0 UV-I 0 W/m 0,0 C 0,3 C 3,2 km/h (1 Bft) 98,00 %
26.11.2018 17:30 0,3 C 4,4 C 0,0 C 98 % 1006,9 hPa 0,0 l/m 2,0 km/h (1 Bft) SW 229 0 min 0,000 mm 0,0 UV-I 0 W/m 0,0 C 0,3 C 3,2 km/h (1 Bft) 96,23 %
26.11.2018 17:32 0,3 C 4,4 C 0,0 C 98 % 1006,9 hPa 0,0 l/m 1,6 km/h (1 Bft) SW 228 0 min 0,000 mm 0,0 UV-I 0 W/m 0,0 C 0,3 C 3,2 km/h (1 Bft) 97,37 %
26.11.2018 17:34 0,3 C 4,4 C 0,0 C 98 % 1006,9 hPa 0,0 l/m 3,0 km/h (1 Bft) SW 227 0 min 0,000 mm 0,0 UV-I 0 W/m 0,0 C 0,3 C 4,8 km/h (1 Bft) 100,00 %
26.11.2018 17:36 0,3 C 4,4 C 0,0 C 98 % 1006,9 hPa 0,0 l/m 2,2 km/h (1 Bft) SW 228 0 min 0,000 mm 0,0 UV-I 0 W/m 0,0 C 0,3 C 3,2 km/h (1 Bft) 100,00 %
26.11.2018 17:38 0,3 C 3,9 C 0,0 C 98 % 1006,9 hPa 0,0 l/m 1,9 km/h (1 Bft) SW 228 0 min 0,000 mm 0,0 UV-I 0 W/m 0,0 C 0,3 C 3,2 km/h (1 Bft) 100,00 %
26.11.2018 17:40 0,3 C 4,4 C 0,0 C 98 % 1006,9 hPa 0,0 l/m 2,8 km/h (1 Bft) SW 228 0 min 0,000 mm 0,0 UV-I 0 W/m 0,0 C 0,3 C 4,8 km/h (1 Bft) 100,00 %
26.11.2018 17:42 0,3 C 4,4 C 0,0 C 98 % 1006,9 hPa 0,0 l/m 2,1 km/h (1 Bft) SW 227 0 min 0,000 mm 0,0 UV-I 0 W/m 0,0 C 0,3 C 3,2 km/h (1 Bft) 100,00 %
26.11.2018 17:44 0,3 C 4,4 C 0,0 C 98 % 1006,9 hPa 0,0 l/m 2,3 km/h (1 Bft) SW 228 0 min 0,000 mm 0,0 UV-I 0 W/m 0,0 C 0,3 C 3,2 km/h (1 Bft) 96,00 %
26.11.2018 17:46 0,3 C 4,4 C 0,0 C 98 % 1007,0 hPa 0,0 l/m 3,3 km/h (1 Bft) SW 228 0 min 0,000 mm 0,0 UV-I 0 W/m 0,0 C 0,3 C 4,8 km/h (1 Bft) 97,37 %
26.11.2018 17:48 0,3 C 4,4 C 0,0 C 98 % 1007,0 hPa 0,0 l/m 3,2 km/h (1 Bft) SW 224 0 min 0,000 mm 0,0 UV-I 0 W/m 0,0 C 0,3 C 4,8 km/h (1 Bft) 94,64 %
26.11.2018 17:50 0,3 C 4,4 C 0,0 C 98 % 1007,0 hPa 0,0 l/m 3,3 km/h (1 Bft) SW 220 0 min 0,000 mm 0,0 UV-I 0 W/m 0,0 C 0,3 C 4,8 km/h (1 Bft) 97,37 %
26.11.2018 17:52 0,3 C 4,4 C 0,0 C 98 % 1007,0 hPa 0,0 l/m 3,0 km/h (1 Bft) SW 218 0 min 0,000 mm 0,0 UV-I 0 W/m 0,0 C 0,3 C 4,8 km/h (1 Bft) 96,00 %
26.11.2018 17:54 0,3 C 4,4 C 0,0 C 98 % 1007,0 hPa 0,0 l/m 2,7 km/h (1 Bft) SW 219 0 min 0,000 mm 0,0 UV-I 0 W/m 0,0 C 0,3 C 3,2 km/h (1 Bft) 96,00 %
26.11.2018 17:56 0,3 C 3,9 C 0,0 C 98 % 1007,1 hPa 0,0 l/m 2,9 km/h (1 Bft) SW 219 0 min 0,000 mm 0,0 UV-I 0 W/m 0,0 C 0,3 C 4,8 km/h (1 Bft) 94,74 %
26.11.2018 17:58 0,3 C 4,4 C 0,0 C 98 % 1007,1 hPa 0,0 l/m 2,3 km/h (1 Bft) SW 219 0 min 0,000 mm 0,0 UV-I 0 W/m 0,0 C 0,3 C 3,2 km/h (1 Bft) 96,43 %
26.11.2018 18:00 0,3 C 3,9 C 0,0 C 98 % 1007,1 hPa 0,0 l/m 2,4 km/h (1 Bft) SW 219 0 min 0,000 mm 0,0 UV-I 0 W/m 0,0 C 0,3 C 3,2 km/h (1 Bft) 93,62 %
26.11.2018 18:02 0,3 C 4,4 C 0,0 C 98 % 1007,1 hPa 0,0 l/m 2,7 km/h (1 Bft) SW 220 0 min 0,000 mm 0,0 UV-I 0 W/m 0,0 C 0,3 C 4,8 km/h (1 Bft) 96,00 %
26.11.2018 18:04 0,3 C 3,9 C 0,0 C 98 % 1007,1 hPa 0,0 l/m 2,7 km/h (1 Bft) SW 221 0 min 0,000 mm 0,0 UV-I 0 W/m 0,0 C 0,3 C 4,8 km/h (1 Bft) 94,44 %
26.11.2018 18:06 0,3 C 3,9 C 0,0 C 98 % 1007,1 hPa 0,0 l/m 2,3 km/h (1 Bft) SW 223 0 min 0,000 mm 0,0 UV-I 0 W/m 0,0 C 0,3 C 4,8 km/h (1 Bft) 96,43 %
26.11.2018 18:08 0,3 C 3,9 C 0,0 C 98 % 1007,1 hPa 0,0 l/m 3,7 km/h (1 Bft) W-SW 245 0 min 0,000 mm 0,0 UV-I 0 W/m 0,0 C 0,3 C 4,8 km/h (1 Bft) 94,74 %
26.11.2018 18:11 0,3 C 3,9 C 0,0 C 98 % 1007,1 hPa 0,0 l/m 3,2 km/h (1 Bft) SW 215 0 min 0,000 mm 0,0 UV-I 0 W/m 0,0 C 0,3 C 4,8 km/h (1 Bft) 94,94 %
26.11.2018 18:12 0,3 C 4,4 C 0,0 C 98 % 1007,1 hPa 0,0 l/m 2,5 km/h (1 Bft) W-SW 242 0 min 0,000 mm 0,0 UV-I 0 W/m 0,0 C 0,3 C 3,2 km/h (1 Bft) 100,00 %
26.11.2018 18:14 0,3 C 4,4 C 0,0 C 98 % 1007,1 hPa 0,0 l/m 2,9 km/h (1 Bft) W-SW 245 0 min 0,000 mm 0,0 UV-I 0 W/m 0,0 C 0,3 C 4,8 km/h (1 Bft) 96,00 %
26.11.2018 18:16 0,3 C 3,9 C 0,0 C 98 % 1007,1 hPa 0,0 l/m 2,9 km/h (1 Bft) SW 234 0 min 0,000 mm 0,0 UV-I 0 W/m 0,0 C 0,3 C 4,8 km/h (1 Bft) 98,11 %
26.11.2018 18:18 0,4 C 3,9 C 0,0 C 98 % 1007,1 hPa 0,0 l/m 4,0 km/h (1 Bft) W-SW 238 0 min 0,000 mm 0,0 UV-I 0 W/m 0,1 C 0,4 C 6,4 km/h (2 Bft) 97,56 %
26.11.2018 18:20 0,4 C 3,9 C 0,0 C 98 % 1007,2 hPa 0,0 l/m 2,7 km/h (1 Bft) SW 236 0 min 0,000 mm 0,0 UV-I 0 W/m 0,1 C 0,4 C 6,4 km/h (2 Bft) 96,00 %
26.11.2018 18:22 0,4 C 3,9 C 0,0 C 98 % 1007,2 hPa 0,0 l/m 3,7 km/h (1 Bft) SW 226 0 min 0,000 mm 0,0 UV-I 0 W/m 0,1 C 0,4 C 4,8 km/h (1 Bft) 97,56 %
26.11.2018 18:24 0,4 C 3,9 C 0,0 C 98 % 1007,2 hPa 0,2 l/m 4,3 km/h (1 Bft) SW 234 0 min 0,000 mm 0,0 UV-I 0 W/m 0,1 C 0,4 C 6,4 km/h (2 Bft) 100,00 %
26.11.2018 18:26 0,4 C 3,9 C 0,0 C 98 % 1007,2 hPa 0,0 l/m 2,6 km/h (1 Bft) SW 234 0 min 0,000 mm 0,0 UV-I 0 W/m 0,1 C 0,4 C 4,8 km/h (1 Bft) 100,00 %
26.11.2018 18:28 0,4 C 3,9 C 0,0 C 98 % 1007,3 hPa 0,0 l/m 2,8 km/h (1 Bft) SW 234 0 min 0,000 mm 0,0 UV-I 0 W/m 0,1 C 0,4 C 4,8 km/h (1 Bft) 98,11 %
26.11.2018 18:30 0,4 C 3,9 C 0,0 C 98 % 1007,3 hPa 0,0 l/m 2,8 km/h (1 Bft) SW 235 0 min 0,000 mm 0,0 UV-I 0 W/m 0,1 C 0,4 C 4,8 km/h (1 Bft) 100,00 %
26.11.2018 18:32 0,4 C 3,9 C 0,0 C 98 % 1007,3 hPa 0,0 l/m 2,3 km/h (1 Bft) SW 234 0 min 0,000 mm 0,0 UV-I 0 W/m 0,1 C 0,4 C 3,2 km/h (1 Bft) 100,00 %
26.11.2018 18:34 0,4 C 3,9 C 0,0 C 98 % 1007,3 hPa 0,0 l/m 3,3 km/h (1 Bft) W-SW 253 0 min 0,000 mm 0,0 UV-I 0 W/m 0,1 C 0,4 C 4,8 km/h (1 Bft) 100,00 %
26.11.2018 18:36 0,4 C 4,4 C 0,0 C 98 % 1007,4 hPa 0,0 l/m 2,2 km/h (1 Bft) W-SW 253 0 min 0,000 mm 0,0 UV-I 0 W/m 0,1 C 0,4 C 3,2 km/h (1 Bft) 100,00 %
26.11.2018 18:38 0,4 C 3,9 C 0,0 C 98 % 1007,4 hPa 0,0 l/m 4,3 km/h (1 Bft) W-SW 237 0 min 0,000 mm 0,0 UV-I 0 W/m 0,1 C 0,4 C 6,4 km/h (2 Bft) 100,00 %
26.11.2018 18:40 0,4 C 3,9 C 0,0 C 98 % 1007,4 hPa 0,0 l/m 3,5 km/h (1 Bft) W-SW 238 0 min 0,000 mm 0,0 UV-I 0 W/m 0,1 C 0,4 C 4,8 km/h (1 Bft) 100,00 %
26.11.2018 18:42 0,4 C 3,9 C 0,0 C 98 % 1007,5 hPa 0,0 l/m 2,1 km/h (1 Bft) W-SW 238 0 min 0,000 mm 0,0 UV-I 0 W/m 0,1 C 0,4 C 4,8 km/h (1 Bft) 100,00 %
26.11.2018 18:44 0,4 C 3,9 C 0,0 C 98 % 1007,4 hPa 0,0 l/m 3,1 km/h (1 Bft) W-SW 239 0 min 0,000 mm 0,0 UV-I 0 W/m 0,1 C 0,4 C 4,8 km/h (1 Bft) 100,00 %
26.11.2018 18:46 0,4 C 3,9 C 0,0 C 98 % 1007,4 hPa 0,0 l/m 4,3 km/h (1 Bft) W-SW 240 0 min 0,000 mm 0,0 UV-I 0 W/m 0,1 C 0,4 C 6,4 km/h (2 Bft) 97,56 %
26.11.2018 18:48 0,4 C 3,9 C 0,0 C 98 % 1007,5 hPa 0,0 l/m 2,3 km/h (1 Bft) W 267 0 min 0,000 mm 0,0 UV-I 0 W/m 0,1 C 0,4 C 3,2 km/h (1 Bft) 100,00 %
26.11.2018 18:50 0,4 C 3,9 C 0,0 C 98 % 1007,5 hPa 0,0 l/m 2,8 km/h (1 Bft) W-SW 257 0 min 0,000 mm 0,0 UV-I 0 W/m 0,1 C 0,4 C 4,8 km/h (1 Bft) 100,00 %
26.11.2018 18:52 0,4 C 3,9 C 0,0 C 98 % 1007,5 hPa 0,0 l/m 3,1 km/h (1 Bft) W-SW 252 0 min 0,000 mm 0,0 UV-I 0 W/m 0,1 C 0,4 C 4,8 km/h (1 Bft) 100,00 %
26.11.2018 18:54 0,4 C 3,9 C 0,0 C 98 % 1007,5 hPa 0,0 l/m 2,4 km/h (1 Bft) W-SW 253 0 min 0,000 mm 0,0 UV-I 0 W/m 0,1 C 0,4 C 3,2 km/h (1 Bft) 100,00 %
26.11.2018 18:56 0,4 C 3,9 C 0,0 C 98 % 1007,6 hPa 0,0 l/m 2,3 km/h (1 Bft) W-SW 253 0 min 0,000 mm 0,0 UV-I 0 W/m 0,1 C 0,4 C 3,2 km/h (1 Bft) 100,00 %
26.11.2018 18:58 0,4 C 3,9 C 0,0 C 98 % 1007,6 hPa 0,0 l/m 1,9 km/h (1 Bft) W-SW 253 0 min 0,000 mm 0,0 UV-I 0 W/m 0,1 C 0,4 C 3,2 km/h (1 Bft) 100,00 %
26.11.2018 19:00 0,4 C 3,9 C 0,0 C 98 % 1007,6 hPa 0,0 l/m 2,9 km/h (1 Bft) W-SW 253 0 min 0,000 mm 0,0 UV-I 0 W/m 0,1 C 0,4 C 4,8 km/h (1 Bft) 100,00 %
26.11.2018 19:02 0,4 C 3,9 C 0,0 C 98 % 1007,6 hPa 0,0 l/m 3,5 km/h (1 Bft) SW 220 0 min 0,000 mm 0,0 UV-I 0 W/m 0,1 C 0,4 C 6,4 km/h (2 Bft) 100,00 %
26.11.2018 19:04 0,4 C 3,9 C 0,0 C 98 % 1007,6 hPa 0,0 l/m 2,6 km/h (1 Bft) W-SW 257 0 min 0,000 mm 0,0 UV-I 0 W/m 0,1 C 0,4 C 3,2 km/h (1 Bft) 97,87 %
26.11.2018 19:06 0,4 C 3,9 C 0,0 C 98 % 1007,7 hPa 0,0 l/m 2,8 km/h (1 Bft) W-SW 257 0 min 0,000 mm 0,0 UV-I 0 W/m 0,1 C 0,4 C 4,8 km/h (1 Bft) 100,00 %
26.11.2018 19:08 0,4 C 3,9 C 0,0 C 98 % 1007,7 hPa 0,0 l/m 2,2 km/h (1 Bft) W-SW 257 0 min 0,000 mm 0,0 UV-I 0 W/m 0,1 C 0,4 C 3,2 km/h (1 Bft) 97,87 %
26.11.2018 19:10 0,4 C 3,9 C 0,0 C 98 % 1007,7 hPa 0,0 l/m 0,5 km/h (0 Bft) W-SW 257 0 min 0,000 mm 0,0 UV-I 0 W/m 0,1 C 0,4 C 3,2 km/h (1 Bft) 95,74 %
26.11.2018 19:12 0,4 C 3,9 C 0,0 C 98 % 1007,7 hPa 0,2 l/m 0,0 km/h (0 Bft) W-SW 253 0 min 0,000 mm 0,0 UV-I 0 W/m 0,1 C 0,4 C 1,6 km/h (1 Bft) 96,23 %
26.11.2018 19:14 0,4 C 4,4 C 0,0 C 98 % 1007,7 hPa 0,0 l/m 0,0 km/h (0 Bft) W-SW 245 0 min 0,000 mm 0,0 UV-I 0 W/m 0,1 C 0,4 C 0,0 km/h (0 Bft) 97,87 %
26.11.2018 19:16 0,4 C 4,4 C 0,0 C 98 % 1007,7 hPa 0,0 l/m 1,2 km/h (1 Bft) W-SW 246 0 min 0,000 mm 0,0 UV-I 0 W/m 0,1 C 0,4 C 4,8 km/h (1 Bft) 98,00 %
26.11.2018 19:18 0,4 C 4,4 C 0,0 C 98 % 1007,8 hPa 0,0 l/m 3,3 km/h (1 Bft) W-SW 250 0 min 0,000 mm 0,0 UV-I 0 W/m 0,1 C 0,4 C 4,8 km/h (1 Bft) 95,24 %
26.11.2018 19:20 0,4 C 3,9 C 0,0 C 98 % 1007,8 hPa 0,0 l/m 3,7 km/h (1 Bft) SW 231 0 min 0,000 mm 0,0 UV-I 0 W/m 0,1 C 0,4 C 4,8 km/h (1 Bft) 95,45 %
26.11.2018 19:22 0,4 C 3,9 C 0,0 C 98 % 1007,8 hPa 0,0 l/m 2,7 km/h (1 Bft) W 260 0 min 0,000 mm 0,0 UV-I 0 W/m 0,1 C 0,4 C 4,8 km/h (1 Bft) 95,74 %
26.11.2018 19:24 0,4 C 3,9 C 0,0 C 98 % 1007,8 hPa 0,0 l/m 3,6 km/h (1 Bft) W-SW 240 0 min 0,000 mm 0,0 UV-I 0 W/m 0,1 C 0,4 C 6,4 km/h (2 Bft) 98,11 %
26.11.2018 19:26 0,4 C 3,9 C 0,0 C 98 % 1007,8 hPa 0,0 l/m 3,1 km/h (1 Bft) W-SW 241 0 min 0,000 mm 0,0 UV-I 0 W/m 0,1 C 0,4 C 4,8 km/h (1 Bft) 96,00 %
26.11.2018 19:29 0,4 C 3,9 C 0,0 C 98 % 1007,8 hPa 0,0 l/m 3,0 km/h (1 Bft) W-SW 244 0 min 0,000 mm 0,0 UV-I 0 W/m 0,1 C 0,4 C 4,8 km/h (1 Bft) 98,44 %
26.11.2018 19:30 0,4 C 3,9 C 0,0 C 98 % 1007,8 hPa 0,0 l/m 3,0 km/h (1 Bft) W-SW 246 0 min 0,000 mm 0,0 UV-I 0 W/m 0,1 C 0,4 C 4,8 km/h (1 Bft) 100,00 %
26.11.2018 19:32 0,4 C 3,9 C 0,0 C 98 % 1007,8 hPa 0,0 l/m 3,5 km/h (1 Bft) SW 232 0 min 0,000 mm 0,0 UV-I 0 W/m 0,1 C 0,4 C 4,8 km/h (1 Bft) 100,00 %
26.11.2018 19:34 0,4 C 3,9 C 0,0 C 98 % 1007,8 hPa 0,0 l/m 3,0 km/h (1 Bft) SW 231 0 min 0,000 mm 0,0 UV-I 0 W/m 0,1 C 0,4 C 4,8 km/h (1 Bft) 100,00 %
26.11.2018 19:36 0,4 C 3,9 C 0,0 C 98 % 1007,9 hPa 0,2 l/m 2,8 km/h (1 Bft) SW 227 0 min 0,000 mm 0,0 UV-I 0 W/m 0,1 C 0,4 C 4,8 km/h (1 Bft) 100,00 %
26.11.2018 19:38 0,4 C 3,9 C 0,0 C 98 % 1007,9 hPa 0,0 l/m 2,9 km/h (1 Bft) SW 234 0 min 0,000 mm 0,0 UV-I 0 W/m 0,1 C 0,4 C 4,8 km/h (1 Bft) 98,00 %
26.11.2018 19:40 0,4 C 3,9 C 0,0 C 98 % 1007,9 hPa 0,0 l/m 2,7 km/h (1 Bft) W-SW 252 0 min 0,000 mm 0,0 UV-I 0 W/m 0,1 C 0,4 C 4,8 km/h (1 Bft) 95,12 %
26.11.2018 19:42 0,4 C 3,9 C 0,0 C 98 % 1007,9 hPa 0,0 l/m 3,6 km/h (1 Bft) SW 234 0 min 0,000 mm 0,0 UV-I 0 W/m 0,1 C 0,4 C 6,4 km/h (2 Bft) 98,00 %
26.11.2018 19:44 0,4 C 3,9 C 0,0 C 98 % 1007,9 hPa 0,0 l/m 3,6 km/h (1 Bft) W-SW 239 0 min 0,000 mm 0,0 UV-I 0 W/m 0,1 C 0,4 C 6,4 km/h (2 Bft) 95,74 %
26.11.2018 19:46 0,4 C 3,9 C 0,0 C 98 % 1007,9 hPa 0,0 l/m 3,2 km/h (1 Bft) W-SW 240 0 min 0,000 mm 0,0 UV-I 0 W/m 0,1 C 0,4 C 4,8 km/h (1 Bft) 97,87 %
26.11.2018 19:48 0,3 C 3,9 C 0,0 C 98 % 1007,9 hPa 0,0 l/m 3,5 km/h (1 Bft) W-SW 240 0 min 0,000 mm 0,0 UV-I 0 W/m 0,0 C 0,3 C 4,8 km/h (1 Bft) 96,00 %
26.11.2018 19:50 0,4 C 3,9 C 0,0 C 98 % 1008,0 hPa 0,2 l/m 3,6 km/h (1 Bft) W-SW 237 0 min 0,000 mm 0,0 UV-I 0 W/m 0,1 C 0,4 C 4,8 km/h (1 Bft) 97,44 %
26.11.2018 19:52 0,3 C 3,9 C 0,0 C 98 % 1008,0 hPa 0,0 l/m 3,7 km/h (1 Bft) W-SW 242 0 min 0,000 mm 0,0 UV-I 0 W/m 0,0 C 0,3 C 6,4 km/h (2 Bft) 98,18 %
26.11.2018 19:54 0,3 C 3,9 C 0,0 C 98 % 1008,0 hPa 0,0 l/m 3,6 km/h (1 Bft) W-SW 241 0 min 0,000 mm 0,0 UV-I 0 W/m 0,0 C 0,3 C 4,8 km/h (1 Bft) 97,44 %
26.11.2018 19:56 0,3 C 3,9 C 0,0 C 98 % 1008,0 hPa 0,0 l/m 3,5 km/h (1 Bft) W-SW 242 0 min 0,000 mm 0,0 UV-I 0 W/m 0,0 C 0,3 C 4,8 km/h (1 Bft) 97,73 %
26.11.2018 19:59 0,3 C 3,9 C 0,0 C 98 % 1008,1 hPa 0,0 l/m 3,1 km/h (1 Bft) SW 226 0 min 0,000 mm 0,0 UV-I 0 W/m 0,0 C 0,3 C 4,8 km/h (1 Bft) 96,20 %
26.11.2018 20:00 0,3 C 3,9 C 0,0 C 98 % 1008,1 hPa 0,0 l/m 3,1 km/h (1 Bft) SW 232 0 min 0,000 mm 0,0 UV-I 0 W/m 0,0 C 0,3 C 4,8 km/h (1 Bft) 100,00 %
26.11.2018 20:02 0,3 C 3,9 C 0,0 C 98 % 1008,1 hPa 0,0 l/m 4,2 km/h (1 Bft) W-SW 239 0 min 0,000 mm 0,0 UV-I 0 W/m 0,0 C 0,3 C 6,4 km/h (2 Bft) 97,14 %
26.11.2018 20:04 0,3 C 3,9 C 0,0 C 98 % 1008,1 hPa 0,0 l/m 4,0 km/h (1 Bft) W-SW 239 0 min 0,000 mm 0,0 UV-I 0 W/m 0,0 C 0,3 C 6,4 km/h (2 Bft) 96,23 %
26.11.2018 20:06 0,3 C 3,9 C 0,0 C 98 % 1008,1 hPa 0,0 l/m 3,6 km/h (1 Bft) W-SW 238 0 min 0,000 mm 0,0 UV-I 0 W/m 0,0 C 0,3 C 4,8 km/h (1 Bft) 98,11 %
26.11.2018 20:08 0,3 C 3,9 C 0,0 C 98 % 1008,1 hPa 0,2 l/m 4,3 km/h (1 Bft) W-SW 246 0 min 0,000 mm 0,0 UV-I 0 W/m 0,0 C 0,3 C 6,4 km/h (2 Bft) 97,87 %
26.11.2018 20:10 0,4 C 3,9 C 0,0 C 98 % 1008,1 hPa 0,0 l/m 3,0 km/h (1 Bft) SW 234 0 min 0,000 mm 0,0 UV-I 0 W/m 0,1 C 0,4 C 4,8 km/h (1 Bft) 97,37 %
26.11.2018 20:12 0,3 C 3,9 C 0,0 C 98 % 1008,1 hPa 0,0 l/m 3,7 km/h (1 Bft) SW 236 0 min 0,000 mm 0,0 UV-I 0 W/m 0,0 C 0,3 C 4,8 km/h (1 Bft) 98,11 %
26.11.2018 20:14 0,3 C 3,9 C 0,0 C 98 % 1008,2 hPa 0,0 l/m 3,7 km/h (1 Bft) W-SW 240 0 min 0,000 mm 0,0 UV-I 0 W/m 0,0 C 0,3 C 4,8 km/h (1 Bft) 97,56 %
26.11.2018 20:16 0,4 C 3,9 C 0,0 C 98 % 1008,2 hPa 0,0 l/m 2,8 km/h (1 Bft) W-SW 249 0 min 0,000 mm 0,0 UV-I 0 W/m 0,1 C 0,4 C 4,8 km/h (1 Bft) 98,11 %
26.11.2018 20:18 0,4 C 3,9 C 0,0 C 98 % 1008,2 hPa 0,0 l/m 2,3 km/h (1 Bft) W-SW 248 0 min 0,000 mm 0,0 UV-I 0 W/m 0,1 C 0,4 C 3,2 km/h (1 Bft) 97,62 %
26.11.2018 20:20 0,4 C 3,9 C 0,0 C 98 % 1008,3 hPa 0,0 l/m 3,4 km/h (1 Bft) SW 231 0 min 0,000 mm 0,0 UV-I 0 W/m 0,1 C 0,4 C 6,4 km/h (2 Bft) 100,00 %
26.11.2018 20:22 0,3 C 3,9 C 0,0 C 98 % 1008,3 hPa 0,0 l/m 3,5 km/h (1 Bft) SW 232 0 min 0,000 mm 0,0 UV-I 0 W/m 0,0 C 0,3 C 4,8 km/h (1 Bft) 97,56 %
26.11.2018 20:24 0,4 C 3,9 C 0,0 C 98 % 1008,3 hPa 0,0 l/m 2,7 km/h (1 Bft) SW 233 0 min 0,000 mm 0,0 UV-I 0 W/m 0,1 C 0,4 C 4,8 km/h (1 Bft) 94,00 %
26.11.2018 20:26 0,4 C 3,9 C 0,0 C 98 % 1008,3 hPa 0,0 l/m 3,4 km/h (1 Bft) SW 233 0 min 0,000 mm 0,0 UV-I 0 W/m 0,1 C 0,4 C 4,8 km/h (1 Bft) 95,74 %
26.11.2018 20:28 0,4 C 3,9 C 0,0 C 98 % 1008,4 hPa 0,0 l/m 3,2 km/h (1 Bft) SW 234 0 min 0,000 mm 0,0 UV-I 0 W/m 0,1 C 0,4 C 4,8 km/h (1 Bft) 97,37 %
26.11.2018 20:30 0,4 C 3,9 C 0,0 C 98 % 1008,4 hPa 0,2 l/m 3,9 km/h (1 Bft) W-SW 240 0 min 0,000 mm 0,0 UV-I 0 W/m 0,1 C 0,4 C 6,4 km/h (2 Bft) 98,11 %
26.11.2018 20:32 0,4 C 3,9 C 0,0 C 98 % 1008,4 hPa 0,0 l/m 3,7 km/h (1 Bft) W-SW 240 0 min 0,000 mm 0,0 UV-I 0 W/m 0,1 C 0,4 C 4,8 km/h (1 Bft) 95,74 %
26.11.2018 20:34 0,3 C 3,9 C 0,0 C 98 % 1008,4 hPa 0,0 l/m 2,7 km/h (1 Bft) W-SW 240 0 min 0,000 mm 0,0 UV-I 0 W/m 0,0 C 0,3 C 4,8 km/h (1 Bft) 94,34 %
26.11.2018 20:36 0,3 C 3,9 C 0,0 C 98 % 1008,4 hPa 0,0 l/m 1,9 km/h (1 Bft) W-SW 240 0 min 0,000 mm 0,0 UV-I 0 W/m 0,0 C 0,3 C 3,2 km/h (1 Bft) 95,12 %
26.11.2018 20:38 0,3 C 3,9 C 0,0 C 98 % 1008,4 hPa 0,0 l/m 3,1 km/h (1 Bft) W-SW 240 0 min 0,000 mm 0,0 UV-I 0 W/m 0,0 C 0,3 C 4,8 km/h (1 Bft) 97,87 %
26.11.2018 20:40 0,3 C 3,9 C 0,0 C 98 % 1008,5 hPa 0,0 l/m 2,9 km/h (1 Bft) W-SW 240 0 min 0,000 mm 0,0 UV-I 0 W/m 0,0 C 0,3 C 4,8 km/h (1 Bft) 94,00 %
26.11.2018 20:42 0,3 C 3,9 C 0,0 C 98 % 1008,5 hPa 0,2 l/m 2,7 km/h (1 Bft) W-SW 240 0 min 0,000 mm 0,0 UV-I 0 W/m 0,0 C 0,3 C 3,2 km/h (1 Bft) 100,00 %
26.11.2018 20:44 0,3 C 3,9 C 0,0 C 98 % 1008,5 hPa 0,0 l/m 2,1 km/h (1 Bft) W-SW 240 0 min 0,000 mm 0,0 UV-I 0 W/m 0,0 C 0,3 C 3,2 km/h (1 Bft) 100,00 %
26.11.2018 20:46 0,3 C 4,4 C 0,0 C 98 % 1008,5 hPa 0,0 l/m 2,4 km/h (1 Bft) W-SW 239 0 min 0,000 mm 0,0 UV-I 0 W/m 0,0 C 0,3 C 3,2 km/h (1 Bft) 100,00 %
26.11.2018 20:48 0,3 C 3,9 C 0,0 C 98 % 1008,6 hPa 0,0 l/m 3,2 km/h (1 Bft) W-SW 244 0 min 0,000 mm 0,0 UV-I 0 W/m 0,0 C 0,3 C 4,8 km/h (1 Bft) 100,00 %
26.11.2018 20:50 0,3 C 3,9 C 0,0 C 98 % 1008,6 hPa 0,2 l/m 1,8 km/h (1 Bft) W-SW 244 0 min 0,000 mm 0,0 UV-I 0 W/m 0,0 C 0,3 C 3,2 km/h (1 Bft) 97,87 %
26.11.2018 20:52 0,3 C 3,9 C 0,0 C 98 % 1008,6 hPa 0,0 l/m 2,5 km/h (1 Bft) W-SW 244 0 min 0,000 mm 0,0 UV-I 0 W/m 0,0 C 0,3 C 3,2 km/h (1 Bft) 100,00 %
26.11.2018 20:54 0,3 C 3,9 C 0,0 C 98 % 1008,6 hPa 0,0 l/m 2,3 km/h (1 Bft) W-SW 243 0 min 0,000 mm 0,0 UV-I 0 W/m 0,0 C 0,3 C 4,8 km/h (1 Bft) 96,00 %
26.11.2018 20:56 0,3 C 3,9 C 0,0 C 98 % 1008,7 hPa 0,0 l/m 2,4 km/h (1 Bft) W-SW 243 0 min 0,000 mm 0,0 UV-I 0 W/m 0,0 C 0,3 C 3,2 km/h (1 Bft) 98,11 %
26.11.2018 20:58 0,3 C 3,9 C 0,0 C 98 % 1008,7 hPa 0,0 l/m 2,6 km/h (1 Bft) W-SW 243 0 min 0,000 mm 0,0 UV-I 0 W/m 0,0 C 0,3 C 3,2 km/h (1 Bft) 97,56 %
26.11.2018 21:00 0,3 C 3,9 C 0,0 C 98 % 1008,7 hPa 0,0 l/m 2,8 km/h (1 Bft) W-SW 243 0 min 0,000 mm 0,0 UV-I 0 W/m 0,0 C 0,3 C 4,8 km/h (1 Bft) 97,87 %
26.11.2018 21:02 0,3 C 3,9 C 0,0 C 98 % 1008,7 hPa 0,0 l/m 3,0 km/h (1 Bft) W-SW 241 0 min 0,000 mm 0,0 UV-I 0 W/m 0,0 C 0,3 C 4,8 km/h (1 Bft) 98,21 %
26.11.2018 21:04 0,3 C 3,9 C 0,0 C 98 % 1008,8 hPa 0,0 l/m 3,4 km/h (1 Bft) W-SW 253 0 min 0,000 mm 0,0 UV-I 0 W/m 0,0 C 0,3 C 4,8 km/h (1 Bft) 97,37 %
26.11.2018 21:06 0,3 C 3,9 C 0,0 C 98 % 1008,8 hPa 0,0 l/m 2,1 km/h (1 Bft) W-SW 253 0 min 0,000 mm 0,0 UV-I 0 W/m 0,0 C 0,3 C 4,8 km/h (1 Bft) 95,74 %
26.11.2018 21:08 0,3 C 3,9 C 0,0 C 98 % 1008,9 hPa 0,2 l/m 3,0 km/h (1 Bft) W-SW 246 0 min 0,000 mm 0,0 UV-I 0 W/m 0,0 C 0,3 C 4,8 km/h (1 Bft) 98,11 %
26.11.2018 21:10 0,3 C 3,9 C 0,0 C 98 % 1008,9 hPa 0,0 l/m 3,1 km/h (1 Bft) W-SW 244 0 min 0,000 mm 0,0 UV-I 0 W/m 0,0 C 0,3 C 4,8 km/h (1 Bft) 97,73 %
26.11.2018 21:12 0,3 C 3,9 C 0,0 C 98 % 1008,9 hPa 0,0 l/m 2,7 km/h (1 Bft) W-SW 244 0 min 0,000 mm 0,0 UV-I 0 W/m 0,0 C 0,3 C 4,8 km/h (1 Bft) 93,62 %
26.11.2018 21:14 0,3 C 3,9 C 0,0 C 98 % 1009,0 hPa 0,0 l/m 2,8 km/h (1 Bft) W-SW 244 0 min 0,000 mm 0,0 UV-I 0 W/m 0,0 C 0,3 C 4,8 km/h (1 Bft) 97,56 %
26.11.2018 21:16 0,3 C 3,9 C 0,0 C 98 % 1009,0 hPa 0,0 l/m 2,6 km/h (1 Bft) W-SW 242 0 min 0,000 mm 0,0 UV-I 0 W/m 0,0 C 0,3 C 4,8 km/h (1 Bft) 98,00 %
26.11.2018 21:18 0,3 C 3,9 C 0,0 C 98 % 1009,0 hPa 0,0 l/m 2,7 km/h (1 Bft) W-SW 246 0 min 0,000 mm 0,0 UV-I 0 W/m 0,0 C 0,3 C 4,8 km/h (1 Bft) 97,87 %
26.11.2018 21:20 0,3 C 3,9 C 0,0 C 98 % 1009,0 hPa 0,0 l/m 2,8 km/h (1 Bft) W-SW 250 0 min 0,000 mm 0,0 UV-I 0 W/m 0,0 C 0,3 C 4,8 km/h (1 Bft) 97,56 %
26.11.2018 21:22 0,3 C 3,9 C 0,0 C 98 % 1009,1 hPa 0,2 l/m 2,2 km/h (1 Bft) W-SW 250 0 min 0,000 mm 0,0 UV-I 0 W/m 0,0 C 0,3 C 3,2 km/h (1 Bft) 98,15 %
26.11.2018 21:24 0,3 C 3,9 C 0,0 C 98 % 1009,1 hPa 0,0 l/m 1,9 km/h (1 Bft) W-SW 250 0 min 0,000 mm 0,0 UV-I 0 W/m 0,0 C 0,3 C 3,2 km/h (1 Bft) 97,44 %
26.11.2018 21:26 0,3 C 3,9 C 0,0 C 98 % 1009,1 hPa 0,0 l/m 1,8 km/h (1 Bft) W-SW 250 0 min 0,000 mm 0,0 UV-I 0 W/m 0,0 C 0,3 C 3,2 km/h (1 Bft) 98,25 %
26.11.2018 21:28 0,3 C 3,9 C 0,0 C 98 % 1009,1 hPa 0,0 l/m 2,1 km/h (1 Bft) W-SW 250 0 min 0,000 mm 0,0 UV-I 0 W/m 0,0 C 0,3 C 3,2 km/h (1 Bft) 98,00 %
26.11.2018 21:30 0,3 C 3,9 C 0,0 C 98 % 1009,1 hPa 0,0 l/m 1,4 km/h (1 Bft) W-SW 250 0 min 0,000 mm 0,0 UV-I 0 W/m 0,0 C 0,3 C 3,2 km/h (1 Bft) 94,87 %
26.11.2018 21:32 0,3 C 3,9 C 0,0 C 98 % 1009,2 hPa 0,0 l/m 2,8 km/h (1 Bft) W-SW 253 0 min 0,000 mm 0,0 UV-I 0 W/m 0,0 C 0,3 C 4,8 km/h (1 Bft) 95,74 %
26.11.2018 21:34 0,3 C 3,9 C 0,0 C 98 % 1009,2 hPa 0,2 l/m 2,1 km/h (1 Bft) W-SW 253 0 min 0,000 mm 0,0 UV-I 0 W/m 0,0 C 0,3 C 4,8 km/h (1 Bft) 96,00 %
26.11.2018 21:36 0,3 C 3,9 C 0,0 C 98 % 1009,3 hPa 0,0 l/m 1,8 km/h (1 Bft) W-SW 253 0 min 0,000 mm 0,0 UV-I 0 W/m 0,0 C 0,3 C 3,2 km/h (1 Bft) 96,00 %
26.11.2018 21:38 0,3 C 3,9 C 0,0 C 98 % 1009,3 hPa 0,0 l/m 1,6 km/h (1 Bft) W-SW 253 0 min 0,000 mm 0,0 UV-I 0 W/m 0,0 C 0,3 C 3,2 km/h (1 Bft) 92,68 %
26.11.2018 21:40 0,3 C 3,9 C 0,0 C 98 % 1009,3 hPa 0,2 l/m 2,3 km/h (1 Bft) W-SW 253 0 min 0,000 mm 0,0 UV-I 0 W/m 0,0 C 0,3 C 3,2 km/h (1 Bft) 96,00 %
26.11.2018 21:42 0,3 C 3,9 C 0,0 C 98 % 1009,3 hPa 0,0 l/m 1,5 km/h (1 Bft) W-SW 253 0 min 0,000 mm 0,0 UV-I 0 W/m 0,0 C 0,3 C 3,2 km/h (1 Bft) 93,62 %
26.11.2018 21:44 0,3 C 3,9 C 0,0 C 98 % 1009,4 hPa 0,0 l/m 2,1 km/h (1 Bft) W-SW 253 0 min 0,000 mm 0,0 UV-I 0 W/m 0,0 C 0,3 C 3,2 km/h (1 Bft) 95,12 %
26.11.2018 21:46 0,3 C 3,9 C 0,0 C 98 % 1009,4 hPa 0,0 l/m 2,4 km/h (1 Bft) W-SW 253 0 min 0,000 mm 0,0 UV-I 0 W/m 0,0 C 0,3 C 3,2 km/h (1 Bft) 94,34 %
26.11.2018 21:48 0,3 C 3,9 C 0,0 C 98 % 1009,4 hPa 0,2 l/m 1,4 km/h (1 Bft) W-SW 253 0 min 0,000 mm 0,0 UV-I 0 W/m 0,0 C 0,3 C 3,2 km/h (1 Bft) 93,62 %
26.11.2018 21:50 0,3 C 3,9 C 0,0 C 98 % 1009,4 hPa 0,0 l/m 2,5 km/h (1 Bft) W-SW 254 0 min 0,000 mm 0,0 UV-I 0 W/m 0,0 C 0,3 C 3,2 km/h (1 Bft) 92,11 %
26.11.2018 21:52 0,3 C 3,9 C 0,0 C 98 % 1009,4 hPa 0,0 l/m 2,5 km/h (1 Bft) W-SW 239 0 min 0,000 mm 0,0 UV-I 0 W/m 0,0 C 0,3 C 4,8 km/h (1 Bft) 94,64 %
26.11.2018 21:54 0,3 C 3,9 C 0,0 C 98 % 1009,4 hPa 0,2 l/m 2,0 km/h (1 Bft) W-SW 239 0 min 0,000 mm 0,0 UV-I 0 W/m 0,0 C 0,3 C 3,2 km/h (1 Bft) 89,36 %
26.11.2018 21:56 0,3 C 3,9 C 0,0 C 98 % 1009,4 hPa 0,0 l/m 2,3 km/h (1 Bft) W 275 0 min 0,000 mm 0,0 UV-I 0 W/m 0,0 C 0,3 C 3,2 km/h (1 Bft) 94,00 %
26.11.2018 21:58 0,3 C 3,9 C 0,0 C 98 % 1009,4 hPa 0,0 l/m 2,3 km/h (1 Bft) W 262 0 min 0,000 mm 0,0 UV-I 0 W/m 0,0 C 0,3 C 3,2 km/h (1 Bft) 95,74 %
26.11.2018 22:00 0,3 C 3,9 C 0,0 C 98 % 1009,4 hPa 0,0 l/m 3,1 km/h (1 Bft) SW 234 0 min 0,000 mm 0,0 UV-I 0 W/m 0,0 C 0,3 C 4,8 km/h (1 Bft) 94,29 %
26.11.2018 22:02 0,3 C 3,9 C 0,0 C 98 % 1009,4 hPa 0,0 l/m 2,4 km/h (1 Bft) SW 234 0 min 0,000 mm 0,0 UV-I 0 W/m 0,0 C 0,3 C 3,2 km/h (1 Bft) 94,64 %
26.11.2018 22:04 0,3 C 3,9 C 0,0 C 98 % 1009,4 hPa 0,0 l/m 1,9 km/h (1 Bft) SW 234 0 min 0,000 mm 0,0 UV-I 0 W/m 0,0 C 0,3 C 4,8 km/h (1 Bft) 97,44 %
26.11.2018 22:06 0,3 C 3,9 C 0,0 C 98 % 1009,5 hPa 0,2 l/m 3,1 km/h (1 Bft) W-SW 240 0 min 0,000 mm 0,0 UV-I 0 W/m 0,0 C 0,3 C 4,8 km/h (1 Bft) 97,73 %
26.11.2018 22:08 0,3 C 3,9 C 0,0 C 98 % 1009,5 hPa 0,0 l/m 2,4 km/h (1 Bft) W-SW 239 0 min 0,000 mm 0,0 UV-I 0 W/m 0,0 C 0,3 C 4,8 km/h (1 Bft) 96,43 %
26.11.2018 22:10 0,3 C 3,9 C 0,0 C 98 % 1009,5 hPa 0,0 l/m 2,6 km/h (1 Bft) W-SW 239 0 min 0,000 mm 0,0 UV-I 0 W/m 0,0 C 0,3 C 4,8 km/h (1 Bft) 95,74 %
26.11.2018 22:12 0,3 C 3,9 C 0,0 C 98 % 1009,5 hPa 0,2 l/m 2,1 km/h (1 Bft) W-SW 239 0 min 0,000 mm 0,0 UV-I 0 W/m 0,0 C 0,3 C 3,2 km/h (1 Bft) 90,91 %
26.11.2018 22:14 0,3 C 3,9 C 0,0 C 98 % 1009,5 hPa 0,0 l/m 1,8 km/h (1 Bft) W-SW 239 0 min 0,000 mm 0,0 UV-I 0 W/m 0,0 C 0,3 C 3,2 km/h (1 Bft) 97,87 %
26.11.2018 22:16 0,3 C 3,9 C 0,0 C 98 % 1009,5 hPa 0,0 l/m 3,2 km/h (1 Bft) W-SW 239 0 min 0,000 mm 0,0 UV-I 0 W/m 0,0 C 0,3 C 4,8 km/h (1 Bft) 93,10 %
26.11.2018 22:18 0,3 C 3,9 C 0,0 C 98 % 1009,5 hPa 0,0 l/m 1,7 km/h (1 Bft) W-SW 239 0 min 0,000 mm 0,0 UV-I 0 W/m 0,0 C 0,3 C 3,2 km/h (1 Bft) 98,59 %
26.11.2018 22:20 0,3 C 3,9 C 0,0 C 98 % 1009,5 hPa 0,0 l/m 2,5 km/h (1 Bft) W-SW 239 0 min 0,000 mm 0,0 UV-I 0 W/m 0,0 C 0,3 C 4,8 km/h (1 Bft) 97,37 %
26.11.2018 22:22 0,3 C 3,9 C 0,0 C 98 % 1009,5 hPa 0,0 l/m 2,6 km/h (1 Bft) W-SW 239 0 min 0,000 mm 0,0 UV-I 0 W/m 0,0 C 0,3 C 4,8 km/h (1 Bft) 98,00 %
26.11.2018 22:24 0,3 C 3,9 C 0,0 C 98 % 1009,5 hPa 0,2 l/m 2,6 km/h (1 Bft) W-SW 239 0 min 0,000 mm 0,0 UV-I 0 W/m 0,0 C 0,3 C 4,8 km/h (1 Bft) 100,00 %
26.11.2018 22:26 0,3 C 3,9 C 0,0 C 98 % 1009,5 hPa 0,0 l/m 2,2 km/h (1 Bft) W-SW 238 0 min 0,000 mm 0,0 UV-I 0 W/m 0,0 C 0,3 C 4,8 km/h (1 Bft) 100,00 %
26.11.2018 22:28 0,3 C 3,9 C 0,0 C 98 % 1009,5 hPa 0,0 l/m 2,0 km/h (1 Bft) W-SW 238 0 min 0,000 mm 0,0 UV-I 0 W/m 0,0 C 0,3 C 3,2 km/h (1 Bft) 100,00 %
26.11.2018 22:30 0,3 C 3,9 C 0,0 C 98 % 1009,5 hPa 0,0 l/m 2,2 km/h (1 Bft) W-SW 238 0 min 0,000 mm 0,0 UV-I 0 W/m 0,0 C 0,3 C 4,8 km/h (1 Bft) 98,00 %
26.11.2018 22:32 0,3 C 3,9 C 0,0 C 98 % 1009,5 hPa 0,2 l/m 2,0 km/h (1 Bft) W-SW 238 0 min 0,000 mm 0,0 UV-I 0 W/m 0,0 C 0,3 C 3,2 km/h (1 Bft) 100,00 %
26.11.2018 22:34 0,3 C 3,9 C 0,0 C 98 % 1009,5 hPa 0,0 l/m 2,9 km/h (1 Bft) W-SW 238 0 min 0,000 mm 0,0 UV-I 0 W/m 0,0 C 0,3 C 3,2 km/h (1 Bft) 98,00 %
26.11.2018 22:36 0,3 C 3,9 C 0,0 C 98 % 1009,5 hPa 0,0 l/m 2,7 km/h (1 Bft) W-SW 238 0 min 0,000 mm 0,0 UV-I 0 W/m 0,0 C 0,3 C 4,8 km/h (1 Bft) 100,00 %
26.11.2018 22:38 0,3 C 3,9 C 0,0 C 98 % 1009,5 hPa 0,0 l/m 1,8 km/h (1 Bft) W-SW 238 0 min 0,000 mm 0,0 UV-I 0 W/m 0,0 C 0,3 C 3,2 km/h (1 Bft) 100,00 %
26.11.2018 22:40 0,3 C 3,9 C 0,0 C 98 % 1009,6 hPa 0,0 l/m 2,8 km/h (1 Bft) W-SW 238 0 min 0,000 mm 0,0 UV-I 0 W/m 0,0 C 0,3 C 4,8 km/h (1 Bft) 100,00 %
26.11.2018 22:42 0,3 C 3,9 C 0,0 C 98 % 1009,6 hPa 0,0 l/m 2,3 km/h (1 Bft) W-SW 238 0 min 0,000 mm 0,0 UV-I 0 W/m 0,0 C 0,3 C 4,8 km/h (1 Bft) 98,21 %
26.11.2018 22:44 0,3 C 3,9 C 0,0 C 98 % 1009,6 hPa 0,0 l/m 1,7 km/h (1 Bft) W-SW 238 0 min 0,000 mm 0,0 UV-I 0 W/m 0,0 C 0,3 C 3,2 km/h (1 Bft) 100,00 %
26.11.2018 22:46 0,3 C 3,9 C 0,0 C 98 % 1009,7 hPa 0,0 l/m 1,9 km/h (1 Bft) W-SW 238 0 min 0,000 mm 0,0 UV-I 0 W/m 0,0 C 0,3 C 3,2 km/h (1 Bft) 97,73 %
26.11.2018 22:48 0,3 C 3,9 C 0,0 C 98 % 1009,7 hPa 0,2 l/m 1,7 km/h (1 Bft) W-SW 238 0 min 0,000 mm 0,0 UV-I 0 W/m 0,0 C 0,3 C 3,2 km/h (1 Bft) 100,00 %
26.11.2018 22:50 0,3 C 3,9 C 0,0 C 98 % 1009,7 hPa 0,0 l/m 2,0 km/h (1 Bft) W-SW 239 0 min 0,000 mm 0,0 UV-I 0 W/m 0,0 C 0,3 C 3,2 km/h (1 Bft) 98,00 %
26.11.2018 22:52 0,3 C 3,9 C 0,0 C 98 % 1009,8 hPa 0,0 l/m 1,0 km/h (0 Bft) W-SW 239 0 min 0,000 mm 0,0 UV-I 0 W/m 0,0 C 0,3 C 1,6 km/h (1 Bft) 97,56 %
26.11.2018 22:54 0,3 C 3,9 C 0,0 C 98 % 1009,8 hPa 0,0 l/m 2,3 km/h (1 Bft) W-SW 239 0 min 0,000 mm 0,0 UV-I 0 W/m 0,0 C 0,3 C 3,2 km/h (1 Bft) 98,11 %
26.11.2018 22:56 0,3 C 3,9 C 0,0 C 98 % 1009,8 hPa 0,0 l/m 1,5 km/h (1 Bft) W-SW 239 0 min 0,000 mm 0,0 UV-I 0 W/m 0,0 C 0,3 C 3,2 km/h (1 Bft) 97,37 %
26.11.2018 22:58 0,3 C 3,9 C 0,0 C 98 % 1009,8 hPa 0,0 l/m 3,0 km/h (1 Bft) W-SW 257 0 min 0,000 mm 0,0 UV-I 0 W/m 0,0 C 0,3 C 4,8 km/h (1 Bft) 98,11 %
26.11.2018 23:00 0,3 C 3,9 C 0,0 C 98 % 1009,8 hPa 0,0 l/m 2,3 km/h (1 Bft) W-SW 257 0 min 0,000 mm 0,0 UV-I 0 W/m 0,0 C 0,3 C 3,2 km/h (1 Bft) 96,00 %
26.11.2018 23:02 0,3 C 3,9 C 0,0 C 98 % 1009,8 hPa 0,0 l/m 3,3 km/h (1 Bft) W-SW 253 0 min 0,000 mm 0,0 UV-I 0 W/m 0,0 C 0,3 C 4,8 km/h (1 Bft) 94,74 %
26.11.2018 23:04 0,3 C 3,9 C 0,0 C 98 % 1009,9 hPa 0,0 l/m 3,0 km/h (1 Bft) SW 227 0 min 0,000 mm 0,0 UV-I 0 W/m 0,0 C 0,3 C 4,8 km/h (1 Bft) 96,43 %
26.11.2018 23:06 0,3 C 3,9 C 0,0 C 98 % 1009,8 hPa 0,0 l/m 3,6 km/h (1 Bft) SW 232 0 min 0,000 mm 0,0 UV-I 0 W/m 0,0 C 0,3 C 4,8 km/h (1 Bft) 97,44 %
26.11.2018 23:08 0,3 C 3,9 C 0,0 C 98 % 1009,9 hPa 0,0 l/m 3,7 km/h (1 Bft) SW 232 0 min 0,000 mm 0,0 UV-I 0 W/m 0,0 C 0,3 C 4,8 km/h (1 Bft) 96,00 %
26.11.2018 23:10 0,3 C 3,9 C 0,0 C 98 % 1009,8 hPa 0,0 l/m 3,4 km/h (1 Bft) SW 232 0 min 0,000 mm 0,0 UV-I 0 W/m 0,0 C 0,3 C 4,8 km/h (1 Bft) 100,00 %
26.11.2018 23:12 0,3 C 3,9 C 0,0 C 98 % 1009,9 hPa 0,0 l/m 3,0 km/h (1 Bft) SW 230 0 min 0,000 mm 0,0 UV-I 0 W/m 0,0 C 0,3 C 4,8 km/h (1 Bft) 100,00 %
26.11.2018 23:14 0,3 C 3,9 C 0,0 C 98 % 1009,8 hPa 0,0 l/m 3,2 km/h (1 Bft) SW 236 0 min 0,000 mm 0,0 UV-I 0 W/m 0,0 C 0,3 C 4,8 km/h (1 Bft) 100,00 %
26.11.2018 23:16 0,3 C 3,9 C 0,0 C 98 % 1009,8 hPa 0,0 l/m 2,6 km/h (1 Bft) W-SW 240 0 min 0,000 mm 0,0 UV-I 0 W/m 0,0 C 0,3 C 4,8 km/h (1 Bft) 100,00 %
26.11.2018 23:18 0,3 C 3,9 C 0,0 C 98 % 1009,9 hPa 0,0 l/m 3,0 km/h (1 Bft) W-SW 240 0 min 0,000 mm 0,0 UV-I 0 W/m 0,0 C 0,3 C 4,8 km/h (1 Bft) 100,00 %
26.11.2018 23:20 0,3 C 3,9 C 0,0 C 98 % 1009,9 hPa 0,0 l/m 4,3 km/h (1 Bft) SW 229 0 min 0,000 mm 0,0 UV-I 0 W/m 0,0 C 0,3 C 6,4 km/h (2 Bft) 100,00 %
26.11.2018 23:22 0,3 C 3,9 C 0,0 C 98 % 1009,9 hPa 0,0 l/m 2,4 km/h (1 Bft) SW 229 0 min 0,000 mm 0,0 UV-I 0 W/m 0,0 C 0,3 C 3,2 km/h (1 Bft) 98,00 %
26.11.2018 23:24 0,3 C 3,9 C 0,0 C 98 % 1009,9 hPa 0,0 l/m 2,6 km/h (1 Bft) SW 229 0 min 0,000 mm 0,0 UV-I 0 W/m 0,0 C 0,3 C 4,8 km/h (1 Bft) 100,00 %
26.11.2018 23:26 0,4 C 3,9 C 0,0 C 98 % 1009,9 hPa 0,0 l/m 1,7 km/h (1 Bft) SW 229 0 min 0,000 mm 0,0 UV-I 0 W/m 0,1 C 0,4 C 3,2 km/h (1 Bft) 100,00 %
26.11.2018 23:28 0,3 C 3,9 C 0,0 C 98 % 1010,0 hPa 0,0 l/m 1,0 km/h (0 Bft) SW 229 0 min 0,000 mm 0,0 UV-I 0 W/m 0,0 C 0,3 C 1,6 km/h (1 Bft) 100,00 %
26.11.2018 23:30 0,4 C 3,9 C 0,0 C 98 % 1010,0 hPa 0,0 l/m 1,9 km/h (1 Bft) SW 229 0 min 0,000 mm 0,0 UV-I 0 W/m 0,1 C 0,4 C 3,2 km/h (1 Bft) 100,00 %
26.11.2018 23:32 0,4 C 3,9 C 0,0 C 98 % 1010,0 hPa 0,0 l/m 2,8 km/h (1 Bft) W-SW 238 0 min 0,000 mm 0,0 UV-I 0 W/m 0,1 C 0,4 C 4,8 km/h (1 Bft) 100,00 %
26.11.2018 23:34 0,4 C 3,9 C 0,0 C 98 % 1010,0 hPa 0,0 l/m 3,2 km/h (1 Bft) SW 226 0 min 0,000 mm 0,0 UV-I 0 W/m 0,1 C 0,4 C 4,8 km/h (1 Bft) 97,92 %
26.11.2018 23:36 0,4 C 3,9 C 0,0 C 98 % 1010,1 hPa 0,0 l/m 2,0 km/h (1 Bft) SW 226 0 min 0,000 mm 0,0 UV-I 0 W/m 0,1 C 0,4 C 3,2 km/h (1 Bft) 97,73 %
26.11.2018 23:38 0,3 C 3,9 C 0,0 C 98 % 1010,1 hPa 0,0 l/m 2,3 km/h (1 Bft) SW 226 0 min 0,000 mm 0,0 UV-I 0 W/m 0,0 C 0,3 C 3,2 km/h (1 Bft) 100,00 %
26.11.2018 23:40 0,4 C 3,9 C 0,0 C 98 % 1010,1 hPa 0,0 l/m 1,8 km/h (1 Bft) SW 226 0 min 0,000 mm 0,0 UV-I 0 W/m 0,1 C 0,4 C 3,2 km/h (1 Bft) 100,00 %
26.11.2018 23:42 0,4 C 3,9 C 0,0 C 98 % 1010,1 hPa 0,0 l/m 1,9 km/h (1 Bft) SW 226 0 min 0,000 mm 0,0 UV-I 0 W/m 0,1 C 0,4 C 4,8 km/h (1 Bft) 100,00 %
26.11.2018 23:44 0,4 C 3,9 C 0,0 C 98 % 1010,2 hPa 0,0 l/m 2,9 km/h (1 Bft) SW 236 0 min 0,000 mm 0,0 UV-I 0 W/m 0,1 C 0,4 C 4,8 km/h (1 Bft) 97,56 %
26.11.2018 23:46 0,3 C 3,9 C 0,0 C 98 % 1010,2 hPa 0,0 l/m 2,2 km/h (1 Bft) SW 236 0 min 0,000 mm 0,0 UV-I 0 W/m 0,0 C 0,3 C 3,2 km/h (1 Bft) 97,87 %
26.11.2018 23:48 0,4 C 3,9 C 0,0 C 98 % 1010,2 hPa 0,0 l/m 2,7 km/h (1 Bft) SW 236 0 min 0,000 mm 0,0 UV-I 0 W/m 0,1 C 0,4 C 3,2 km/h (1 Bft) 100,00 %
26.11.2018 23:50 0,4 C 3,9 C 0,0 C 98 % 1010,2 hPa 0,0 l/m 2,6 km/h (1 Bft) SW 236 0 min 0,000 mm 0,0 UV-I 0 W/m 0,1 C 0,4 C 3,2 km/h (1 Bft) 96,23 %
26.11.2018 23:52 0,3 C 3,9 C 0,0 C 98 % 1010,3 hPa 0,2 l/m 2,7 km/h (1 Bft) SW 236 0 min 0,000 mm 0,0 UV-I 0 W/m 0,0 C 0,3 C 3,2 km/h (1 Bft) 97,37 %
26.11.2018 23:54 0,3 C 3,9 C 0,0 C 98 % 1010,2 hPa 0,0 l/m 3,7 km/h (1 Bft) SW 217 0 min 0,000 mm 0,0 UV-I 0 W/m 0,0 C 0,3 C 4,8 km/h (1 Bft) 98,11 %
26.11.2018 23:56 0,3 C 3,9 C 0,0 C 98 % 1010,2 hPa 0,0 l/m 3,3 km/h (1 Bft) SW 218 0 min 0,000 mm 0,0 UV-I 0 W/m 0,0 C 0,3 C 4,8 km/h (1 Bft) 98,00 %
26.11.2018 23:58 0,3 C 3,9 C 0,0 C 98 % 1010,3 hPa 0,0 l/m 2,3 km/h (1 Bft) SW 217 0 min 0,000 mm 0,0 UV-I 0 W/m 0,0 C 0,3 C 3,2 km/h (1 Bft) 95,74 %
_ Min-Zeit 13:08 16:50 12:20 10:58 06:22 - 08:00 - - - - - - 13:08 13:08 08:02 21:54
Minimum _ 0,3 C 3,9 C 0,0 C 96 % 1003,4 hPa - 0,0 km/h (0 Bft) - - - - - - -0,1 C 0,3 C 0,0 km/h (0 Bft) 89,36 %
_ Max-Zeit 00:00 00:00 00:00 00:00 23:52 00:10 04:20 - - 00:00 00:00 00:00 09:04 00:00 00:14 04:18 01:02
Maximum _ 4,1 C 4,4 C 3,9 C 98 % 1010,3 hPa 0,2 l/m 9,0 km/h
NO (2 Bft)
- - 0 min 0,000 mm 0,0 UV-I 40 W/m 3,8 C 4,1 C 17,7 km/h
O-NO (3 Bft)
100,00 %
Durchschnitt _ 1,9 C 4,3 C 1,7 C 98 % 1005,7 hPa #22,6 l/m 3,1 km/h (1 Bft) SW - #0 min. #0,000 mm 0,0 UV-I 21 W/m 1,5 C 1,8 C 4,8 km/h (1 Bft) 97,54 %